[[{"header":{"parameterUnit":"m.s-1","parameterCategory":1,"la1":31.0,"la2":29.5877,"lo1":-88.7671,"lo2":-86.6584,"dy":0.0162,"dx":0.0185,"nx":115,"ny":88,"refTime":"2024-07-29T18:00:00:Z","depth":0,"parameterNumber":2,"parameterNumberName":"U-component_of_WINDS"},"data":[0.0,0.0,0.0,0.0,0.0,0.0,0.0,0.0,0.0,0.0,0.0,0.0,0.0,0.0,0.0,0.0,0.0,0.0,0.0,0.0,0.0,0.0,0.0,0.0,0.0,0.0,0.0,0.0,0.0,0.0,0.0,0.0,0.0,0.0,0.0,0.0,0.0,0.0,0.0,0.0,0.0,0.0,0.0,0.0,0.0,0.0,0.0,0.0,0.0,0.0,0.0,0.0,0.0,0.0,0.0,0.0,0.0,0.0,0.0,0.0,0.0,0.0,0.0,0.0,0.0,0.0,0.0,0.0,0.0,0.0,0.0,0.0,0.0,0.0,0.0,0.0,0.0,0.0,0.0,0.0,0.0,0.0,0.0,0.0,0.0,0.0,0.0,0.0,0.0,0.0,0.0,0.0,0.0,0.0,0.0,0.0,0.0,0.0,0.0,0.0,0.0,0.0,0.0,0.0,0.0,0.0,0.0,0.0,0.0,0.0,0.0,0.0,0.0,0.0,0.0,0.0,0.0,0.0,0.0,0.0,0.0,0.0,0.0,0.0,0.0,0.0,0.0,0.0,0.0,0.0,0.0,0.0,0.0,0.0,0.0,0.0,0.0,0.0,0.0,0.0,0.0,0.0,0.0,0.0,0.0,0.0,0.0,0.0,0.0,0.0,0.0,0.0,0.0,0.0,0.0,0.0,0.0,0.0,0.0,0.0,0.0,0.0,0.0,0.0,0.0,0.0,0.0,0.0,0.0,0.0,0.0,0.0,0.0,0.0,0.0,0.0,0.0,0.0,0.0,0.0,0.0,0.0,0.0,0.0,0.0,0.0,0.0,0.0,0.0,0.0,0.0,0.0,0.0,0.0,0.0,0.0,0.0,0.0,0.0,0.0,0.0,0.0,0.0,0.0,0.0,0.0,0.0,0.0,0.0,0.0,0.0,0.0,0.0,0.0,0.0,0.0,0.0,0.0,0.0,0.0,0.0,0.0,0.0,0.0,0.0,0.0,0.0,0.0,0.0,0.0,0.0,0.0,0.0,0.0,0.0,0.0,0.0,0.0,0.0,0.0,0.0,0.0,0.0,0.0,0.0,0.0,0.0,0.0,0.0,0.0,0.0,0.0,0.0,0.0,0.0,0.0,0.0,0.0,0.0,0.0,0.0,0.0,0.0,0.0,0.0,0.0,0.0,0.0,0.0,0.0,0.0,0.0,0.0,0.0,0.0,0.0,0.0,0.0,0.0,0.0,0.0,0.0,0.0,0.0,0.0,0.0,0.0,0.0,0.0,0.0,0.0,0.0,0.0,0.0,0.0,0.0,0.0,0.0,0.0,0.0,0.0,0.0,0.0,0.0,0.0,0.0,0.0,0.0,0.0,0.0,0.0,0.0,0.0,0.0,0.0,0.0,0.0,0.0,0.0,0.0,0.0,0.0,0.0,0.0,0.0,0.0,0.0,0.0,0.0,0.0,0.0,0.0,0.0,0.0,0.0,0.0,0.0,0.0,0.0,0.0,0.0,0.0,0.0,0.0,0.0,0.0,0.0,0.0,0.0,0.0,0.0,0.0,0.0,0.0,0.0,0.0,0.0,0.0,0.0,0.0,0.0,0.0,0.0,0.0,0.0,0.0,0.0,0.0,0.0,0.0,0.0,0.0,0.0,0.0,0.0,0.0,0.0,0.0,0.0,0.0,0.0,0.0,0.0,0.0,0.0,0.0,0.0,0.0,0.0,0.0,0.0,0.0,0.0,0.0,0.0,0.0,0.0,0.0,0.0,0.0,0.0,0.0,0.0,0.0,0.0,0.0,0.0,0.0,0.0,0.0,0.0,0.0,0.0,0.0,0.0,0.0,0.0,0.0,0.0,0.0,0.0,0.0,0.0,0.0,0.0,0.0,0.0,0.0,0.0,0.0,0.0,0.0,0.0,0.0,0.0,0.0,0.0,0.0,0.0,0.0,0.0,0.0,0.0,0.0,0.0,0.0,0.0,0.0,0.0,0.0,0.0,0.0,0.0,0.0,0.0,0.0,0.0,0.0,0.0,0.0,0.0,0.0,0.0,0.0,0.0,0.0,0.0,0.0,0.0,0.0,0.0,0.0,0.0,0.0,0.0,0.0,0.0,0.0,0.0,0.0,0.0,0.0,0.0,0.0,0.0,0.0,0.0,0.0,0.0,0.0,0.0,0.0,0.0,0.0,0.0,0.0,0.0,0.0,0.0,0.0,0.0,0.0,0.0,0.0,0.0,0.0,0.0,0.0,0.0,0.0,0.0,0.0,0.0,0.0,0.0,0.0,0.0,0.0,0.0,0.0,0.0,0.0,0.0,0.0,0.0,0.0,0.0,0.0,0.0,0.0,0.0,0.0,0.0,0.0,0.0,0.0,0.0,0.0,0.0,0.0,0.0,0.0,0.0,0.0,0.0,0.0,0.0,0.0,0.0,0.0,0.0,0.0,0.0,0.0,0.0,0.0,0.0,0.0,0.0,0.0,0.0,0.0,0.0,0.0,0.0,0.0,0.0,0.0,0.0,0.0,0.0,0.0,0.0,0.0,0.0,0.0,0.0,0.0,0.0,0.0,0.0,0.0,0.0,0.0,0.0,0.0,0.0,0.0,0.0,0.0,0.0,0.0,0.0,0.0,0.0,0.0,0.0,0.0,0.0,0.0,0.0,0.0,0.0,0.0,0.0,0.0,0.0,0.0,0.0,0.0,0.0,0.0,0.0,0.0,0.0,0.0,0.0,0.0,0.0,0.0,0.0,0.0,0.0,0.0,0.0,0.0,0.0,0.0,0.0,0.0,0.0,0.0,0.0,0.0,0.0,0.0,0.0,0.0,0.0,0.0,0.0,0.0,0.0,0.0,0.0,0.0,0.0,0.0,0.0,0.0,0.0,0.0,0.0,0.0,0.0,0.0,0.0,0.0,0.0,0.0,0.0,0.0,0.0,0.0,0.0,0.0,0.0,0.0,0.0,0.0,0.0,0.0,0.0,0.0,0.0,0.0,0.0,0.0,0.0,0.0,0.0,0.0,0.0,0.0,0.0,0.0,0.0,0.0,0.0,0.0,0.0,0.0,0.0,0.0,0.0,0.0,0.0,0.0,0.0,0.0,0.0,0.0,0.0,0.0,0.0,0.0,0.0,0.0,0.0,0.0,0.0,0.0,0.0,0.0,0.0,0.0,0.0,0.0,0.0,0.0,0.0,0.0,0.0,0.0,0.0,0.0,0.0,0.0,0.0,0.0,0.0,0.0,0.0,0.0,0.0,0.0,0.0,0.0,0.0,0.0,0.0,0.0,0.0,0.0,0.0,0.0,0.0,0.0,0.0,0.0,0.0,0.0,0.0,0.0,0.0,0.0,0.0,0.0,0.0,0.0,0.0,0.0,0.0,0.0,0.0,0.0,0.0,0.0,0.0,0.0,0.0,0.0,0.0,0.0,0.0,0.0,0.0,0.0,0.0,0.0,0.0,0.0,0.0,0.0,0.0,0.0,0.0,0.0,0.0,0.0,0.0,0.0,0.0,0.0,0.0,0.0,0.0,0.0,0.0,0.0,0.0,0.0,0.0,0.0,0.0,0.0,0.0,0.0,0.0,0.0,0.0,0.0,0.0,0.0,0.0,0.0,0.0,0.0,0.0,0.0,0.0,0.0,0.0,0.0,0.0,0.0,0.0,0.0,0.0,0.0,0.0,0.0,0.0,0.0,0.0,0.0,0.0,0.0,0.0,0.0,0.0,0.0,0.0,0.0,0.0,0.0,0.0,0.0,0.0,0.0,0.0,0.0,0.0,0.0,0.0,0.0,0.0,0.0,0.0,0.0,0.0,0.0,0.0,0.0,0.0,0.0,0.0,0.0,0.0,0.0,0.0,0.0,0.0,0.0,0.0,0.0,0.0,0.0,0.0,0.0,0.0,0.0,0.0,0.0,0.0,0.0,0.0,0.0,0.0,0.0,0.0,0.0,0.0,0.0,0.0,0.0,0.0,0.0,0.0,0.0,0.0,0.0,0.0,0.0,0.0,0.0,0.0,0.0,0.0,0.0,0.0,0.0,0.0,0.0,0.0,0.0,0.0,0.0,0.0,0.0,0.0,0.0,0.0,0.0,0.0,0.0,0.0,0.0,0.0,0.0,0.0,0.0,0.0,0.0,0.0,0.0,0.0,0.0,0.0,0.0,0.0,0.0,0.0,0.0,0.0,0.0,0.0,0.0,0.0,0.0,0.0,0.0,0.0,0.0,0.0,0.0,0.0,0.0,0.0,0.0,0.0,0.0,0.0,0.0,0.0,0.0,-0.8976,0.0,0.0,0.0,0.0,0.0,0.0,0.0,0.0,0.0,0.0,0.0,0.0,0.0,0.0,0.0,0.0,0.0,0.0,0.0,0.0,0.0,0.0,0.0,0.0,0.0,0.0,0.0,0.0,0.0,0.0,0.0,0.0,0.0,0.0,0.0,0.0,0.0,0.0,0.0,0.0,0.0,0.0,0.0,0.0,0.0,0.0,0.0,0.0,0.0,0.0,0.0,0.0,0.0,0.0,0.0,0.0,0.0,0.0,0.0,0.0,0.0,0.0,0.0,0.0,0.0,0.0,0.0,0.0,0.0,0.0,0.0,0.0,0.0,0.0,0.0,0.0,0.0,0.0,0.0,0.0,0.0,0.0,0.0,0.0,0.0,0.0,0.0,0.0,0.0,0.0,0.0,0.0,0.0,0.0,0.0,0.0,0.0,0.0,0.0,0.0,0.0,0.0,0.0,0.0,0.0,0.0,0.0,0.0,0.0,0.0,-1.162,-1.0541,-1.0504,-0.9996,-0.8959,0.0,0.0,0.0,0.0,0.0,0.0,0.0,0.0,0.0,0.0,0.0,0.0,0.0,0.0,0.0,0.0,0.0,0.0,0.0,0.0,0.0,0.0,0.0,0.0,0.0,0.0,0.0,0.0,0.0,0.0,0.0,0.0,0.0,0.0,0.0,0.0,0.0,0.0,0.0,0.0,0.0,0.0,0.0,0.0,0.0,0.0,0.0,0.0,0.0,0.0,0.0,0.0,0.0,0.0,0.0,0.0,0.0,0.0,0.0,0.0,0.0,0.0,0.0,0.0,0.0,0.0,0.0,0.0,0.0,0.0,0.0,0.0,0.0,0.0,0.0,0.0,0.0,0.0,0.0,0.0,0.0,0.0,0.0,0.0,0.0,0.0,0.0,0.0,0.0,0.0,0.0,0.0,0.0,0.0,0.0,0.0,0.0,0.0,0.0,0.0,0.0,0.0,0.0,0.0,0.0,0.0,0.0,0.0,0.0,0.0,0.0,0.0,-1.0761,-1.0436,-0.9709,0.0,0.0,0.0,0.0,0.0,0.0,0.0,0.0,0.0,0.0,0.0,0.0,0.0,0.0,0.0,0.0,0.0,0.0,0.0,0.0,0.0,0.0,0.0,0.0,0.0,0.0,0.0,0.0,0.0,0.0,0.0,0.0,0.0,0.0,0.0,0.0,0.0,0.0,0.0,0.0,0.0,0.0,0.0,0.0,0.0,0.0,0.0,0.0,0.0,0.0,0.0,0.0,0.0,0.0,0.0,0.0,0.0,0.0,0.0,0.0,0.0,0.0,0.0,0.0,0.0,0.0,0.0,0.0,0.0,0.0,0.0,0.0,0.0,0.0,0.0,0.0,0.0,0.0,0.0,0.0,0.0,0.0,0.0,0.0,0.0,0.0,0.0,0.0,0.0,0.0,0.0,0.0,0.0,0.0,0.0,0.0,0.0,0.0,0.0,0.0,0.0,0.0,0.0,0.0,0.0,0.0,0.0,0.0,0.0,0.0,-1.1722,-1.3041,-1.3074,0.0,-1.2079,0.0,0.0,0.0,0.0,0.0,0.0,0.0,0.0,0.0,0.0,0.0,0.0,0.0,0.0,0.0,0.0,0.0,0.0,0.0,0.0,0.0,0.0,0.0,0.0,0.0,0.0,0.0,0.0,0.0,0.0,0.0,0.0,0.0,0.0,0.0,0.0,0.0,0.0,0.0,0.0,0.0,0.0,0.0,0.0,0.0,0.0,0.0,0.0,0.0,0.0,0.0,0.0,0.0,0.0,0.0,0.0,0.0,0.0,0.0,0.0,0.0,0.0,0.0,0.0,0.0,0.0,0.0,0.0,0.0,0.0,0.0,0.0,0.0,0.0,0.0,0.0,0.0,0.0,0.0,0.0,0.0,0.0,0.0,0.0,0.0,0.0,0.0,0.0,0.0,0.0,0.0,0.0,0.0,0.0,0.0,0.0,0.0,0.0,0.0,0.0,0.0,0.0,0.0,0.0,0.0,0.0,0.0,0.0,0.0,0.0,0.0,-1.2737,-1.277,-1.2617,0.0,0.0,0.0,0.0,0.0,0.0,0.0,0.0,0.0,0.0,0.0,0.0,0.0,0.0,0.0,0.0,0.0,0.0,0.0,0.0,0.0,0.0,0.0,0.0,0.0,0.0,0.0,0.0,0.0,0.0,0.0,0.0,0.0,0.0,0.0,0.0,0.0,0.0,0.0,0.0,0.0,0.0,0.0,0.0,0.0,0.0,0.0,0.0,0.0,0.0,0.0,0.0,0.0,0.0,0.0,0.0,0.0,0.0,0.0,0.0,0.0,0.0,0.0,0.0,0.0,0.0,0.0,0.0,0.0,0.0,0.0,0.0,0.0,0.0,0.0,0.0,0.0,0.0,0.0,0.0,0.0,0.0,0.0,0.0,0.0,0.0,0.0,0.0,0.0,0.0,0.0,0.0,0.0,0.0,0.0,0.0,0.0,0.0,0.0,0.0,0.0,0.0,0.0,0.0,0.0,0.0,0.0,0.0,0.0,0.0,-1.1773,0.0,-1.3176,-1.3193,-1.2923,-1.2331,0.0,0.0,0.0,0.0,0.0,0.0,0.0,0.0,0.0,0.0,0.0,0.0,0.0,0.0,0.0,0.0,0.0,0.0,0.0,0.0,0.0,0.0,0.0,0.0,0.0,0.0,0.0,0.0,0.0,0.0,0.0,0.0,0.0,0.0,0.0,0.0,0.0,0.0,0.0,0.0,0.0,0.0,0.0,0.0,0.0,0.0,0.0,0.0,0.0,0.0,0.0,0.0,0.0,0.0,0.0,0.0,0.0,0.0,0.0,0.0,0.0,0.0,0.0,0.0,0.0,0.0,0.0,0.0,0.0,0.0,0.0,0.0,0.0,0.0,0.0,0.0,0.0,0.0,0.0,0.0,0.0,0.0,0.0,0.0,0.0,0.0,0.0,0.0,0.0,0.0,0.0,0.0,0.0,0.0,0.0,0.0,0.0,0.0,0.0,0.0,0.0,0.0,0.0,0.0,0.0,0.0,0.0,0.0,0.0,-1.3295,-1.3312,-1.5375,-1.546,-1.4462,0.0,0.0,0.0,0.0,0.0,0.0,0.0,0.0,0.0,0.0,0.0,0.0,0.0,0.0,0.0,0.0,0.0,0.0,0.0,0.0,0.0,0.0,0.0,0.0,0.0,0.0,0.0,0.0,0.0,0.0,0.0,0.0,0.0,0.0,0.0,0.0,0.0,0.0,0.0,0.0,0.0,0.0,0.0,0.0,0.0,0.0,0.0,0.0,0.0,0.0,0.0,0.0,0.0,0.0,0.0,0.0,0.0,0.0,0.0,0.0,0.0,0.0,0.0,0.0,0.0,0.0,0.0,0.0,0.0,0.0,0.0,0.0,0.0,0.0,0.0,0.0,0.0,0.0,0.0,0.0,0.0,0.0,0.0,0.0,0.0,0.0,0.0,0.0,0.0,0.0,0.0,0.0,0.0,0.0,0.0,0.0,0.0,0.0,0.0,0.0,0.0,0.0,0.0,0.0,0.0,0.0,0.0,0.0,0.0,-1.1231,-1.1942,-1.3914,0.0,-1.4741,-1.3506,0.0,0.0,0.0,0.0,0.0,0.0,0.0,0.0,0.0,0.0,0.0,0.0,0.0,0.0,0.0,0.0,0.0,0.0,0.0,0.0,0.0,0.0,0.0,0.0,0.0,0.0,0.0,0.0,0.0,0.0,0.0,0.0,0.0,0.0,0.0,0.0,0.0,0.0,0.0,0.0,0.0,0.0,0.0,0.0,0.0,0.0,0.0,0.0,0.0,0.0,0.0,0.0,0.0,0.0,0.0,0.0,0.0,0.0,0.0,0.0,0.0,0.0,0.0,0.0,0.0,0.0,0.0,0.0,0.0,0.0,0.0,0.0,0.0,0.0,0.0,0.0,0.0,0.0,0.0,0.0,0.0,0.0,0.0,0.0,0.0,0.0,0.0,0.0,0.0,0.0,0.0,0.0,0.0,0.0,0.0,0.0,0.0,0.0,0.0,0.0,0.0,0.0,0.0,0.0,0.0,0.0,0.0,0.0,0.0,-1.077,0.0,-1.5135,0.0,-1.4488,-1.295,0.0,0.0,0.0,0.0,0.0,0.0,0.0,0.0,0.0,0.0,0.0,0.0,0.0,0.0,0.0,0.0,0.0,0.0,0.0,0.0,0.0,0.0,0.0,0.0,0.0,0.0,0.0,0.0,0.0,0.0,0.0,0.0,0.0,0.0,0.0,0.0,0.0,0.0,0.0,0.0,0.0,0.0,0.0,0.0,0.0,0.0,0.0,0.0,0.0,0.0,0.0,0.0,0.0,0.0,0.0,0.0,0.0,0.0,0.0,0.0,0.0,0.0,0.0,0.0,0.0,0.0,0.0,0.0,0.0,0.0,0.0,0.0,0.0,0.0,0.0,0.0,0.0,0.0,0.0,0.0,0.0,0.0,0.0,0.0,0.0,0.0,0.0,0.0,0.0,0.0,0.0,0.0,0.0,0.0,0.0,0.0,0.0,0.0,0.0,0.0,0.0,0.0,0.0,0.0,0.0,0.0,0.0,0.0,-1.0495,-1.4463,-1.6374,-1.6802,-1.5806,-1.5,-1.3019,0.0,0.0,0.0,0.0,0.0,0.0,0.0,0.0,0.0,0.0,0.0,0.0,0.0,0.0,0.0,0.0,0.0,0.0,0.0,0.0,0.0,0.0,0.0,0.0,0.0,0.0,0.0,0.0,0.0,0.0,0.0,0.0,0.0,0.0,0.0,0.0,0.0,0.0,0.0,0.0,0.0,0.0,0.0,0.0,0.0,0.0,0.0,0.0,0.0,0.0,0.0,0.0,0.0,0.0,0.0,0.0,0.0,0.0,0.0,0.0,0.0,0.0,0.0,0.0,0.0,0.0,0.0,0.0,0.0,0.0,0.0,0.0,0.0,0.0,0.0,0.0,0.0,0.0,0.0,0.0,0.0,0.0,0.0,0.0,0.0,0.0,0.0,0.0,0.0,0.0,0.0,0.0,0.0,0.0,0.0,0.0,0.0,0.0,0.0,0.0,0.0,0.0,0.0,0.0,0.0,0.0,0.0,0.0,0.0,-1.3057,-1.4538,-1.5946,-1.7113,-1.4426,-1.3016,0.0,0.0,0.0,0.0,0.0,0.0,0.0,0.0,0.0,0.0,0.0,0.0,0.0,0.0,0.0,0.0,0.0,0.0,0.0,0.0,0.0,0.0,0.0,0.0,0.0,0.0,0.0,0.0,0.0,0.0,0.0,0.0,0.0,0.0,0.0,0.0,0.0,0.0,0.0,0.0,0.0,0.0,0.0,0.0,0.0,0.0,0.0,0.0,0.0,0.0,0.0,0.0,0.0,0.0,0.0,0.0,0.0,0.0,0.0,0.0,0.0,0.0,0.0,0.0,0.0,0.0,0.0,0.0,0.0,0.0,0.0,0.0,0.0,0.0,0.0,0.0,0.0,0.0,0.0,0.0,0.0,0.0,0.0,0.0,0.0,0.0,0.0,0.0,0.0,0.0,0.0,0.0,0.0,0.0,0.0,0.0,0.0,0.0,0.0,0.0,0.0,0.0,0.0,0.0,0.0,0.0,0.0,0.0,0.0,-1.5087,-1.6111,-1.7167,-1.8208,-1.5367,-1.3924,-1.4091,0.0,0.0,0.0,0.0,0.0,0.0,0.0,0.0,0.0,0.0,0.0,0.0,0.0,0.0,0.0,0.0,0.0,0.0,0.0,0.0,0.0,0.0,0.0,0.0,0.0,0.0,0.0,0.0,0.0,0.0,0.0,0.0,0.0,0.0,0.0,0.0,0.0,0.0,0.0,0.0,0.0,0.0,0.0,0.0,0.0,0.0,0.0,0.0,0.0,0.0,0.0,0.0,0.0,0.0,0.0,0.0,0.0,0.0,0.0,0.0,0.0,0.0,0.0,0.0,0.0,0.0,0.0,0.0,0.0,0.0,0.0,0.0,0.0,0.0,0.0,0.0,0.0,0.0,0.0,0.0,0.0,0.0,0.0,0.0,0.0,0.0,0.0,0.0,0.0,0.0,0.0,0.0,0.0,0.0,0.0,0.0,0.0,0.0,0.0,0.0,0.0,0.0,0.0,0.0,0.0,0.0,0.0,0.0,-1.969,-2.0498,-2.0228,-1.8986,-1.7548,-1.5591,0.0,0.0,0.0,0.0,0.0,0.0,0.0,0.0,0.0,0.0,0.0,0.0,0.0,0.0,0.0,0.0,0.0,0.0,0.0,0.0,0.0,0.0,0.0,0.0,0.0,0.0,0.0,0.0,0.0,0.0,0.0,0.0,0.0,0.0,0.0,0.0,0.0,0.0,0.0,0.0,0.0,0.0,0.0,0.0,0.0,0.0,0.0,0.0,0.0,0.0,0.0,0.0,0.0,0.0,0.0,0.0,0.0,0.0,0.0,0.0,0.0,0.0,0.0,0.0,0.0,0.0,0.0,0.0,0.0,0.0,0.0,0.0,0.0,0.0,0.0,0.0,0.0,0.0,0.0,0.0,0.0,0.0,0.0,0.0,0.0,0.0,0.0,0.0,0.0,0.0,0.0,0.0,0.0,0.0,0.0,0.0,0.0,0.0,0.0,0.0,0.0,0.0,0.0,0.0,0.0,0.0,0.0,0.0,0.0,-2.0378,-2.2009,-2.2458,-2.162,-1.9405,-1.7191,0.0,0.0,0.0,0.0,0.0,0.0,0.0,0.0,0.0,0.0,0.0,0.0,0.0,0.0,0.0,0.0,0.0,0.0,0.0,0.0,0.0,0.0,0.0,0.0,0.0,0.0,0.0,0.0,0.0,0.0,0.0,0.0,0.0,0.0,0.0,0.0,0.0,0.0,0.0,0.0,0.0,0.0,0.0,0.0,0.0,0.0,0.0,0.0,0.0,0.0,0.0,0.0,0.0,0.0,0.0,0.0,0.0,0.0,0.0,0.0,0.0,0.0,0.0,0.0,0.0,0.0,0.0,0.0,0.0,0.0,0.0,0.0,0.0,0.0,0.0,0.0,0.0,0.0,0.0,0.0,0.0,0.0,0.0,0.0,0.0,0.0,0.0,0.0,0.0,0.0,0.0,0.0,0.0,0.0,0.0,0.0,0.0,0.0,0.0,0.0,0.0,0.0,0.0,0.0,0.0,0.0,0.0,0.0,-1.8986,-2.1874,-2.358,-2.4148,-2.3505,-2.1485,-1.9046,0.0,0.0,0.0,0.0,0.0,0.0,0.0,0.0,0.0,0.0,0.0,0.0,0.0,0.0,0.0,0.0,0.0,0.0,0.0,0.0,0.0,0.0,0.0,0.0,0.0,0.0,0.0,0.0,0.0,0.0,0.0,0.0,0.0,0.0,0.0,0.0,0.0,0.0,0.0,0.0,0.0,0.0,0.0,0.0,0.0,0.0,0.0,0.0,0.0,0.0,0.0,0.0,0.0,0.0,0.0,0.0,0.0,0.0,0.0,0.0,0.0,0.0,0.0,0.0,0.0,0.0,0.0,0.0,0.0,0.0,0.0,0.0,0.0,0.0,0.0,0.0,0.0,0.0,0.0,0.0,0.0,0.0,0.0,0.0,0.0,0.0,0.0,0.0,0.0,0.0,0.0,0.0,0.0,0.0,0.0,0.0,0.0,0.0,0.0,0.0,0.0,0.0,0.0,0.0,0.0,0.0,0.0,0.0,-2.0438,-2.3535,-2.4986,-2.5405,-2.4686,-2.34,-2.0842,0.0,0.0,0.0,0.0,0.0,0.0,0.0,0.0,0.0,0.0,0.0,0.0,0.0,0.0,0.0,0.0,0.0,0.0,0.0,0.0,0.0,0.0,0.0,0.0,0.0,0.0,0.0,0.0,0.0,0.0,0.0,0.0,0.0,0.0,0.0,0.0,0.0,0.0,0.0,0.0,0.0,0.0,0.0,0.0,0.0,0.0,0.0,0.0,0.0,0.0,0.0,0.0,0.0,0.0,0.0,0.0,0.0,0.0,0.0,0.0,0.0,0.0,0.0,0.0,0.0,0.0,0.0,0.0,0.0,0.0,0.0,0.0,0.0,0.0,0.0,0.0,0.0,0.0,0.0,0.0,0.0,0.0,0.0,0.0,0.0,0.0,0.0,0.0,0.0,0.0,0.0,0.0,0.0,0.0,0.0,0.0,0.0,0.0,0.0,0.0,0.0,0.0,0.0,0.0,0.0,0.0,0.0,0.0,-2.1365,-2.3565,-2.542,-2.6063,-2.5405,-2.364,-2.1051,0.0,0.0,0.0,0.0,0.0,0.0,0.0,0.0,0.0,0.0,0.0,0.0,0.0,0.0,0.0,0.0,0.0,0.0,0.0,0.0,0.0,0.0,0.0,0.0,0.0,0.0,0.0,0.0,0.0,0.0,0.0,0.0,0.0,0.0,0.0,0.0,0.0,0.0,0.0,0.0,0.0,0.0,0.0,0.0,0.0,0.0,0.0,0.0,-0.6684,0.0,0.0,0.0,0.0,0.0,0.0,0.0,0.0,0.0,0.0,0.0,0.0,0.0,0.0,0.0,0.0,0.0,0.0,0.0,0.0,0.0,0.0,0.0,0.0,0.0,0.0,0.0,0.0,0.0,0.0,0.0,0.0,0.0,0.0,0.0,0.0,0.0,0.0,0.0,0.0,0.0,0.0,0.0,0.0,0.0,0.0,0.0,0.0,0.0,0.0,0.0,0.0,0.0,0.0,0.0,0.0,0.0,0.0,0.0,-2.2113,-2.4044,-2.5734,-2.6273,-2.56,-2.4298,-2.1889,0.0,0.0,0.0,0.0,0.0,0.0,0.0,0.0,0.0,0.0,0.0,0.0,0.0,0.0,0.0,0.0,0.0,0.0,0.0,0.0,0.0,0.0,0.0,0.0,0.0,0.0,0.0,0.0,0.0,0.0,0.0,0.0,0.0,0.0,0.0,0.0,0.0,0.0,0.0,0.0,0.0,0.0,0.0,0.0,0.0,0.0,0.0,0.0,0.0,0.0,0.0,0.0,0.0,0.0,0.0,0.0,0.0,0.0,0.0,0.0,0.0,0.0,0.0,0.0,0.0,0.0,0.0,0.0,0.0,0.0,0.0,0.0,0.0,0.0,0.0,0.0,0.0,0.0,0.0,0.0,0.0,0.0,0.0,0.0,0.0,0.0,0.0,0.0,0.0,0.0,0.0,0.0,0.0,0.0,0.0,0.0,0.0,0.0,0.0,0.0,0.0,0.0,0.0,0.0,0.0,0.0,0.0,-1.9634,-2.2592,-2.4672,-2.5959,-2.6273,-2.563,-2.4971,-2.2817,-1.9001,0.0,0.0,0.0,0.0,0.0,0.0,0.0,0.0,0.0,0.0,0.0,0.0,0.0,0.0,0.0,0.0,0.0,0.0,0.0,0.0,0.0,0.0,0.0,0.0,0.0,0.0,0.0,0.0,0.0,0.0,0.0,0.0,0.0,0.0,0.0,0.0,0.0,0.0,-0.6695,-0.7587,0.0,0.0,0.0,0.0,0.0,0.0,0.0,0.0,-0.7326,0.0,0.0,0.0,0.0,0.0,0.0,0.0,0.0,0.0,0.0,0.0,0.0,0.0,0.0,0.0,0.0,0.0,0.0,0.0,0.0,0.0,0.0,0.0,0.0,0.0,0.0,0.0,0.0,0.0,0.0,0.0,0.0,0.0,0.0,0.0,0.0,0.0,0.0,0.0,0.0,0.0,0.0,0.0,0.0,0.0,0.0,0.0,0.0,0.0,0.0,0.0,0.0,0.0,0.0,0.0,0.0,-1.8483,-2.0079,-2.2353,-2.536,-2.6183,-2.6273,-2.563,-2.4971,-2.3026,-1.966,0.0,0.0,0.0,0.0,0.0,0.0,0.0,0.0,0.0,0.0,0.0,0.0,0.0,0.0,0.0,0.0,0.0,0.0,0.0,0.0,0.0,0.0,0.0,0.0,0.0,0.0,0.0,0.0,0.0,0.0,0.0,0.0,0.0,0.0,0.0,0.0,0.0,0.0,0.0,-0.8342,-0.8829,0.0,0.0,0.0,0.0,0.0,0.0,0.0,0.0,-0.8042,0.0,0.0,0.0,0.0,0.0,0.0,0.0,0.0,0.0,0.0,0.0,0.0,0.0,0.0,0.0,0.0,0.0,0.0,0.0,0.0,0.0,0.0,0.0,0.0,0.0,0.0,0.0,0.0,0.0,0.0,0.0,0.0,0.0,0.0,0.0,0.0,0.0,0.0,0.0,0.0,0.0,0.0,0.0,0.0,0.0,0.0,0.0,0.0,0.0,0.0,0.0,0.0,0.0,0.0,0.0,-1.7869,-2.0433,-2.2996,-2.551,-2.6258,-2.6273,-2.5615,-2.4328,-2.2218,0.0,0.0,0.0,0.0,0.0,0.0,0.0,0.0,0.0,0.0,0.0,0.0,0.0,0.0,0.0,0.0,0.0,0.0,0.0,0.0,0.0,0.0,0.0,0.0,0.0,0.0,0.0,0.0,0.0,0.0,0.0,0.0,0.0,0.0,0.0,0.0,0.0,0.0,0.0,0.0,-0.898,-0.9436,-1.0224,0.0,0.0,0.0,0.0,0.0,0.0,-0.9224,-0.8923,0.0,0.0,0.0,0.0,0.0,0.0,0.0,0.0,0.0,0.0,0.0,0.0,0.0,0.0,0.0,0.0,0.0,0.0,0.0,0.0,0.0,0.0,0.0,0.0,0.0,0.0,0.0,0.0,0.0,0.0,0.0,0.0,0.0,0.0,0.0,0.0,0.0,0.0,0.0,0.0,0.0,0.0,0.0,0.0,0.0,0.0,0.0,0.0,0.0,0.0,0.0,0.0,0.0,0.0,0.0,-1.6904,-2.0321,-2.3161,-2.5315,-2.5929,-2.5959,-2.539,-2.3625,-2.1386,0.0,0.0,0.0,0.0,0.0,0.0,0.0,0.0,0.0,0.0,0.0,0.0,0.0,0.0,0.0,0.0,0.0,0.0,0.0,0.0,0.0,0.0,0.0,0.0,0.0,0.0,0.0,0.0,0.0,0.0,0.0,0.0,0.0,0.0,0.0,0.0,0.0,0.0,0.0,0.0,0.0,-1.026,-1.0884,-1.0674,0.0,0.0,0.0,0.0,-1.0085,-1.0144,0.0,0.0,0.0,0.0,0.0,0.0,0.0,0.0,0.0,0.0,0.0,0.0,0.0,0.0,0.0,0.0,0.0,0.0,0.0,0.0,0.0,0.0,0.0,0.0,0.0,0.0,0.0,0.0,0.0,0.0,0.0,0.0,0.0,0.0,0.0,0.0,0.0,0.0,0.0,0.0,0.0,0.0,0.0,0.0,0.0,0.0,0.0,0.0,0.0,0.0,0.0,0.0,0.0,0.0,0.0,0.0,-1.7132,-1.9099,-2.156,-2.4552,-2.4822,-2.4776,-2.4672,-2.34,-2.1292,0.0,0.0,0.0,0.0,0.0,0.0,0.0,0.0,0.0,0.0,0.0,0.0,0.0,0.0,0.0,0.0,0.0,0.0,0.0,0.0,0.0,0.0,0.0,0.0,0.0,0.0,0.0,0.0,0.0,0.0,0.0,0.0,0.0,0.0,0.0,0.0,0.0,0.0,0.0,0.0,0.0,-1.1263,-1.0961,-1.0881,-1.082,0.0,0.0,-1.154,-1.1397,-1.1419,0.0,0.0,0.0,0.0,0.0,0.0,0.0,0.0,0.0,0.0,0.0,0.0,0.0,0.0,0.0,0.0,0.0,0.0,0.0,0.0,0.0,0.0,0.0,0.0,0.0,0.0,0.0,0.0,0.0,0.0,0.0,0.0,0.0,0.0,0.0,0.0,0.0,0.0,0.0,0.0,0.0,0.0,0.0,0.0,0.0,0.0,0.0,0.0,0.0,0.0,0.0,0.0,0.0,0.0,0.0,-1.3968,-1.7257,-1.9634,-2.2069,-2.4462,-2.4582,-2.4582,-2.4567,-2.2637,-2.0332,0.0,0.0,0.0,0.0,0.0,0.0,0.0,0.0,0.0,0.0,0.0,0.0,0.0,0.0,0.0,0.0,0.0,0.0,0.0,0.0,0.0,0.0,0.0,0.0,0.0,0.0,0.0,0.0,0.0,0.0,0.0,0.0,0.0,0.0,0.0,0.0,0.0,0.0,0.0,0.0,0.0,0.0,-1.1577,-1.1606,0.0,0.0,0.0,-1.2296,-1.1693,0.0,0.0,0.0,0.0,0.0,0.0,0.0,0.0,0.0,0.0,0.0,0.0,0.0,0.0,0.0,0.0,0.0,0.0,0.0,0.0,0.0,0.0,0.0,0.0,0.0,0.0,0.0,0.0,0.0,0.0,0.0,0.0,0.0,0.0,0.0,0.0,0.0,0.0,0.0,0.0,0.0,0.0,0.0,0.0,0.0,0.0,0.0,0.0,0.0,0.0,0.0,0.0,0.0,0.0,0.0,0.0,0.0,-1.7353,-2.0236,-2.2562,-2.4238,-2.4193,-2.4133,-2.4104,-2.1786,0.0,0.0,0.0,0.0,0.0,0.0,0.0,0.0,0.0,0.0,0.0,0.0,0.0,0.0,0.0,0.0,0.0,0.0,0.0,0.0,0.0,0.0,0.0,0.0,0.0,0.0,0.0,-0.6547,0.0,0.0,0.0,0.0,0.0,0.0,0.0,0.0,0.0,0.0,0.0,0.0,0.0,0.0,-1.0881,-1.2192,-1.2393,-1.2414,0.0,0.0,-1.2818,-1.2161,-1.262,-1.244,0.0,0.0,0.0,0.0,0.0,0.0,0.0,0.0,0.0,0.0,0.0,0.0,0.0,0.0,0.0,0.0,0.0,0.0,0.0,0.0,0.0,0.0,0.0,0.0,0.0,0.0,0.0,0.0,0.0,0.0,0.0,0.0,0.0,0.0,0.0,0.0,0.0,0.0,0.0,0.0,0.0,0.0,0.0,0.0,0.0,0.0,0.0,0.0,0.0,0.0,0.0,0.0,0.0,0.0,0.0,-1.7635,-2.0348,-2.2338,-2.3625,-2.3127,-2.2797,-2.2783,-2.098,-1.8686,0.0,0.0,0.0,0.0,0.0,0.0,0.0,0.0,0.0,0.0,0.0,0.0,0.0,0.0,0.0,0.0,0.0,0.0,0.0,0.0,0.0,0.0,0.0,0.0,0.0,0.0,0.0,0.0,0.0,0.0,0.0,0.0,0.0,0.0,0.0,0.0,0.0,0.0,0.0,0.0,0.0,-1.1705,-1.2715,-1.2832,-1.3115,0.0,0.0,-1.3008,-1.332,-1.3116,-1.2289,-1.0431,0.0,0.0,0.0,0.0,0.0,0.0,0.0,0.0,0.0,0.0,0.0,0.0,0.0,0.0,0.0,0.0,0.0,0.0,0.0,0.0,0.0,0.0,0.0,0.0,0.0,0.0,0.0,0.0,0.0,0.0,0.0,0.0,0.0,0.0,0.0,0.0,0.0,0.0,0.0,0.0,0.0,0.0,0.0,0.0,0.0,0.0,0.0,0.0,0.0,0.0,0.0,0.0,0.0,-1.5078,-1.8298,-2.0543,-2.2295,-2.346,-2.2987,-2.2698,-2.2642,-2.0893,-1.8918,0.0,0.0,0.0,0.0,0.0,0.0,0.0,0.0,0.0,0.0,0.0,0.0,0.0,0.0,0.0,0.0,0.0,0.0,0.0,0.0,0.0,0.0,0.0,0.0,0.0,0.0,0.0,0.0,-0.6554,-0.6683,-0.6242,0.0,0.0,0.0,0.0,0.0,0.0,0.0,0.0,0.0,0.0,-1.2113,-1.3153,-1.3486,0.0,0.0,-1.3867,-1.3711,-1.3867,-1.3535,-1.2949,-1.1958,-1.1323,0.0,0.0,0.0,0.0,0.0,0.0,0.0,0.0,0.0,0.0,0.0,0.0,0.0,0.0,0.0,0.0,0.0,0.0,0.0,0.0,0.0,0.0,0.0,0.0,0.0,0.0,0.0,0.0,0.0,0.0,0.0,0.0,0.0,0.0,0.0,0.0,0.0,0.0,0.0,0.0,0.0,0.0,0.0,0.0,0.0,0.0,0.0,0.0,0.0,0.0,0.0,0.0,-1.5728,-1.8797,-2.1117,-2.2759,-2.3794,-2.3065,-2.2558,-2.2247,-2.0583,-1.8861,0.0,0.0,0.0,0.0,0.0,0.0,0.0,0.0,0.0,0.0,0.0,0.0,0.0,0.0,0.0,0.0,0.0,0.0,0.0,0.0,0.0,0.0,0.0,0.0,0.0,0.0,0.0,0.0,-0.6307,-0.6373,-0.5763,0.0,0.0,0.0,0.0,0.0,0.0,0.0,0.0,0.0,0.0,-1.2637,-1.3704,-1.4033,-1.4165,-1.4428,-1.4243,-1.4087,-1.4087,-1.3896,-1.3464,-1.2763,0.0,0.0,0.0,0.0,0.0,0.0,0.0,0.0,0.0,0.0,0.0,0.0,0.0,0.0,0.0,0.0,0.0,0.0,0.0,0.0,0.0,0.0,0.0,0.0,0.0,0.0,0.0,-1.3765,0.0,0.0,-1.0937,0.0,0.0,0.0,0.0,0.0,0.0,0.0,0.0,0.0,0.0,0.0,0.0,0.0,0.0,0.0,0.0,0.0,0.0,0.0,0.0,0.0,0.0,-1.6838,-1.9072,-2.1957,-2.3806,-2.4396,-2.3287,-2.2351,-2.1653,-1.9913,-1.8216,-1.6547,0.0,0.0,0.0,0.0,0.0,0.0,0.0,0.0,0.0,0.0,0.0,0.0,0.0,0.0,0.0,0.0,0.0,0.0,0.0,0.0,0.0,0.0,0.0,0.0,0.0,0.0,-0.5264,-0.5324,-0.537,0.0,0.0,0.0,0.0,0.0,0.0,0.0,0.0,0.0,0.0,-1.223,-1.3212,-1.4574,-1.4414,-1.4482,-1.5264,-1.4697,-1.4116,-1.4145,-1.4097,-1.3619,0.0,0.0,0.0,0.0,0.0,0.0,0.0,0.0,0.0,0.0,0.0,0.0,0.0,0.0,0.0,0.0,0.0,0.0,0.0,0.0,0.0,0.0,0.0,0.0,0.0,0.0,0.0,-1.8747,-1.7685,0.0,0.0,0.0,0.0,0.0,0.0,0.0,0.0,0.0,0.0,0.0,-2.0589,-2.1022,0.0,0.0,0.0,0.0,0.0,0.0,0.0,0.0,0.0,0.0,0.0,0.0,-1.7049,-1.953,-2.1344,-2.2756,-2.3648,-2.2883,-2.2181,-2.1562,-2.0217,-1.8417,-1.6045,0.0,0.0,0.0,0.0,0.0,0.0,0.0,0.0,0.0,0.0,0.0,0.0,0.0,0.0,0.0,0.0,0.0,0.0,0.0,0.0,0.0,0.0,0.0,0.0,0.0,-0.6274,0.0,0.0,0.0,0.0,0.0,0.0,0.0,0.0,0.0,0.0,0.0,-1.0668,-1.2605,-1.3599,-1.4385,-1.5127,-1.5332,-1.5615,0.0,0.0,0.0,0.0,0.0,0.0,0.0,0.0,0.0,0.0,0.0,0.0,0.0,0.0,-1.259,-1.0271,-0.9689,-0.93,-0.8415,0.0,0.0,0.0,0.0,0.0,0.0,0.0,0.0,0.0,0.0,0.0,0.0,0.0,0.0,-2.2562,0.0,-2.0797,0.0,0.0,0.0,0.0,0.0,0.0,0.0,0.0,-2.3084,-2.4049,-2.4313,-2.4642,-2.3877,0.0,-2.1556,-1.9546,0.0,0.0,0.0,0.0,0.0,0.0,0.0,0.0,-1.7954,-2.0134,-2.178,-2.2904,-2.3593,-2.3076,-2.2354,-2.1536,-2.0225,-1.8681,-1.6911,-1.5944,-1.494,0.0,0.0,0.0,0.0,0.0,0.0,0.0,0.0,0.0,0.0,0.0,0.0,0.0,0.0,0.0,0.0,0.0,0.0,0.0,0.0,0.0,0.0,0.0,-0.6473,0.0,0.0,0.0,0.0,0.0,0.0,0.0,0.0,0.0,-1.0462,-1.1248,-1.248,-1.4382,-1.5107,-1.5615,-1.6035,0.0,0.0,0.0,0.0,0.0,0.0,0.0,-1.5605,-1.6056,-1.5488,-1.5166,-1.5566,-1.5562,-1.548,-1.5331,0.0,0.0,-1.2191,-1.1464,-1.0922,-0.9859,-0.9799,-0.989,-0.9589,-1.0031,-1.0528,0.0,0.0,0.0,0.0,0.0,0.0,0.0,0.0,-2.6198,-2.5869,0.0,-2.4433,0.0,0.0,0.0,0.0,0.0,-2.3137,0.0,0.0,-2.7841,-2.8469,-2.7264,-2.7237,-2.6412,-2.4971,-2.5335,-2.4317,-2.1998,-1.8275,0.0,0.0,0.0,0.0,0.0,0.0,-1.9512,-2.0944,-2.3092,-2.4258,-2.4239,-2.3655,-2.2812,-2.1536,-1.9949,-1.9083,-1.8908,-1.7451,-1.6082,-1.4991,-1.3358,0.0,0.0,0.0,0.0,0.0,0.0,0.0,0.0,0.0,0.0,0.0,0.0,0.0,0.0,0.0,0.0,0.0,0.0,0.0,0.0,-0.6254,0.0,0.0,0.0,0.0,0.0,0.0,0.0,0.0,0.0,0.0,-1.2591,-1.3385,-1.4711,-1.6427,0.0,0.0,0.0,0.0,-1.6807,-1.6846,-1.6816,-1.6689,-1.6279,-1.6514,-1.6631,-1.6331,0.0,0.0,-1.6272,-1.6484,-1.6587,-1.6221,-1.6471,-1.6166,-1.4467,-1.41,-1.3631,-1.2104,-1.1858,-1.1621,-1.0558,-1.0799,-1.1286,-3.1629,0.0,0.0,0.0,0.0,-2.8547,-2.9894,-3.2168,-3.1524,-3.0702,-2.9719,-2.8906,0.0,0.0,0.0,0.0,0.0,0.0,-2.77,-2.8421,-3.0046,-3.0444,-2.9748,-2.9775,-2.8824,-2.7155,-2.6515,-2.5652,-2.4545,-2.3111,-2.0369,-1.6518,0.0,0.0,0.0,0.0,-2.0468,-2.1332,-2.2339,-2.3071,-2.3412,-2.3259,-2.2655,-2.1506,-2.0652,-1.9836,-1.9008,-1.8507,-1.7601,-1.6107,-1.4839,0.0,0.0,0.0,0.0,0.0,0.0,0.0,0.0,0.0,0.0,0.0,0.0,0.0,0.0,0.0,0.0,0.0,0.0,0.0,-0.7063,-0.8087,-0.876,0.0,0.0,0.0,0.0,0.0,0.0,0.0,0.0,0.0,-1.6249,-1.566,-1.5692,0.0,0.0,-1.7686,-1.7822,-1.7978,-1.8203,-1.8506,-1.8555,0.0,-1.8379,-1.7959,-1.7803,-1.8281,-1.8213,-1.7949,-1.7519,-1.7559,-1.7598,-1.7471,-1.7559,-1.7226,-1.612,-1.5453,-1.4571,-1.3063,-1.2595,-1.2535,-1.2225,-1.2282,-1.2786,-3.5848,-3.2931,-3.1375,-3.139,-3.2452,-3.2362,-3.329,-3.4861,-3.4457,-3.3829,-3.3066,-3.2377,-3.0761,-2.8502,-2.7604,0.0,0.0,0.0,-3.0666,-3.1648,-3.2378,-3.246,-3.2086,-3.1471,-3.0414,-2.9019,-2.7746,-2.6816,-2.6251,-2.5741,-2.3728,-2.025,0.0,0.0,-1.9198,-2.0706,-2.1733,-2.2133,-2.2698,-2.3037,-2.3125,-2.2865,-2.2385,-2.1518,-2.1008,-2.025,-1.9359,-1.887,-1.8229,-1.7212,-1.5699,-1.4135,0.0,0.0,0.0,0.0,0.0,0.0,0.0,0.0,0.0,0.0,0.0,-0.7821,0.0,0.0,0.0,0.0,-0.7333,-0.828,-0.9623,-1.0542,0.0,0.0,0.0,0.0,0.0,0.0,0.0,-1.5586,-1.6664,-1.7637,-1.8398,-1.7839,-1.7646,-1.828,-1.8467,-1.8574,-1.874,0.0,-1.8994,-1.9258,-1.9277,-1.9277,-1.9277,-1.8857,-1.8701,-1.9199,-1.9072,-1.8828,-1.8574,-1.8379,-1.8262,-1.8242,-1.8125,-1.7794,-1.7285,-1.6805,-1.5876,-1.4069,-1.3632,-1.364,-1.364,-1.3632,-1.4028,-3.9185,-3.8392,-3.6626,-3.5789,-3.5714,-3.6297,-3.6207,-3.5669,-3.5654,-3.5639,-3.5519,-3.4921,-3.3589,-3.1721,-3.0597,0.0,-3.181,-3.2467,-3.338,-3.4547,-3.4562,-3.4381,-3.3901,-3.2581,-3.1443,-3.0415,-2.8997,-2.7981,-2.7406,-2.6924,-2.5799,-2.4268,-2.3832,-2.3199,-2.2422,-2.2949,-2.3263,-2.3215,-2.374,-2.3715,-2.3138,-2.2636,-2.2096,-2.1506,-2.1008,-2.0429,-1.9748,-1.8756,-1.8191,-1.8091,-1.6078,-1.4239,-1.2733,0.0,0.0,0.0,0.0,0.0,0.0,0.0,0.0,0.0,0.0,0.0,0.0,0.0,0.0,0.0,-0.9946,0.0,-1.2741,-1.3247,0.0,0.0,0.0,-1.458,-1.5088,-1.6533,-1.751,-1.7578,0.0,0.0,-1.9385,-1.9727,-1.9961,-1.9971,-1.9639,-1.9521,-1.9863,-1.96,-1.9385,-1.9434,-1.9404,-1.9394,-1.9473,-1.9424,-1.9385,-1.9375,-1.9336,-1.9316,-1.9228,-1.8955,-1.8701,-1.8621,-1.8369,-1.8135,-1.8125,-1.8027,-1.7444,-1.5471,-1.4959,-1.4865,-1.4865,-1.4865,-1.5138,-4.0516,-3.9888,-3.9439,-3.8362,-3.6985,-3.7135,-3.7105,-3.6971,-3.6956,-3.6686,-3.6237,-3.6088,-3.5474,-3.4547,-3.4233,-3.4262,-3.4577,-3.4726,-3.4951,-3.525,-3.525,-3.4838,-3.4013,-3.365,-3.2611,-3.1016,-3.021,-2.9374,-2.8511,-2.7971,-2.7306,-2.6527,-2.6418,-2.5228,-2.3062,-2.3916,-2.4418,-2.4418,-2.4142,-2.3715,-2.315,-2.3,-2.2472,-2.1506,-2.0953,-2.0213,-1.9233,-1.8555,-1.8003,-1.7601,-1.6596,-1.5492,-1.431,-1.2306,0.0,0.0,0.0,0.0,0.0,0.0,0.0,0.0,0.0,-0.9792,-0.7782,0.0,-1.0281,0.0,-1.1348,-1.2467,-1.2866,-1.4063,0.0,0.0,-1.6412,-1.7041,-1.8096,-1.8291,-1.8594,-1.9248,-1.958,-1.9893,-2.0291,-2.0352,-2.041,-2.041,-2.0322,-2.0185,-1.9971,-2.0127,-2.0264,-2.0244,-2.0234,-2.0264,-2.0234,-2.0264,-2.0137,-1.9814,-1.9766,-1.9658,-1.9336,-1.9209,-1.9131,-1.9131,-1.9062,-1.8984,-1.8955,-1.8721,-1.8327,-1.7745,-1.6857,-1.6147,-1.6138,-1.6138,-1.6423,-4.1429,-4.0816,-4.0531,-3.9753,-3.8721,-3.8422,-3.8138,-3.7838,-3.7853,-3.7494,-3.6881,-3.6611,-3.6118,-3.5504,-3.5489,-3.5489,-3.5489,-3.5489,-3.5489,-3.5489,-3.5489,-3.5213,-3.461,-3.3739,-3.2806,-3.1802,-3.0668,-2.9691,-2.8925,-2.8624,-2.8197,-2.7645,-2.7406,-2.6515,-2.5059,-2.536,-2.5423,-2.5159,-2.4393,-2.3853,-2.3527,-2.3263,-2.2611,-2.1531,-2.1192,-2.0401,-1.9021,-1.8493,-1.7834,-1.6987,-1.6124,-1.5165,-1.409,-1.274,-1.1817,0.0,0.0,0.0,0.0,0.0,0.0,0.0,0.0,0.0,0.0,0.0,-1.1924,-1.2256,-1.378,-1.5048,-1.569,-1.6714,-1.7583,-1.8354,-1.8686,-1.9004,-1.9521,-1.9883,-2.0185,-2.0469,-2.0674,-2.0879,-2.1113,-2.0986,-2.0869,-2.0859,-2.0684,-2.0478,-2.0283,-2.042,-2.0576,-2.0576,-2.0576,-2.0576,-2.0576,-2.0576,-2.0566,-2.0264,-2.0195,-2.0117,-1.9893,-1.9697,-1.957,-1.9551,-1.9414,-1.9287,-1.9268,-1.9111,-1.8926,-1.8825,-1.8366,-1.7708,-1.7292,-1.7217,-1.7423,-4.2102,-4.1459,-4.0876,-4.0561,-4.0367,-3.9798,-3.9155,-3.8512,-3.8527,-3.8153,-3.7494,-3.6791,-3.6163,-3.5639,-3.5549,-3.5489,-3.5489,-3.5489,-3.5489,-3.5489,-3.5489,-3.5489,-3.5424,-3.3616,-3.2735,-3.2522,-3.0771,-2.9681,-2.9038,-2.9038,-2.875,-2.821,-2.7657,-2.7344,-2.7268,-2.6728,-2.6176,-2.5598,-2.4669,-2.413,-2.4004,-2.3514,-2.2686,-2.1556,-2.1418,-2.0602,-1.8995,-1.8468,-1.7681,-1.6594,-1.5603,-1.4562,-1.3581,-1.314,-1.2721,0.0,-1.2457,0.0,0.0,0.0,0.0,0.0,0.0,0.0,0.0,-1.3154,-1.3975,-1.5029,-1.6536,-1.7968,-1.909,-1.9644,-2.0071,-2.0545,-2.0727,-2.0576,-2.0264,-2.1201,-2.1738,-2.1357,-2.165,-2.1894,-2.1846,-2.1553,-2.1318,-2.1299,-2.1035,-2.0781,-2.0654,-2.0596,-2.0576,-2.0576,-2.0576,-2.0576,-2.0576,-2.0576,-2.0566,-2.0566,-2.0537,-2.0576,-2.0527,-2.0234,-2.0,-1.9971,-1.9736,-1.9492,-1.9443,-1.9424,-1.9365,-1.9355,-1.9287,-1.8913,-1.8251,-1.8056,-1.8066,-4.2776,-4.2177,-4.2043,-4.1384,-4.0397,-4.0262,-3.9828,-3.923,-3.9215,-3.8841,-3.8123,-3.6985,-3.6432,-3.6252,-3.5744,-3.5489,-3.5489,-3.5489,-3.5489,-3.5489,-3.5489,-3.5489,-3.5424,-3.4259,-3.331,-3.2522,-3.1462,-3.0493,-2.9628,-2.9628,-2.934,-2.8762,-2.8222,-2.772,-2.7268,0.0,0.0,0.0,-2.5398,-2.487,-2.4042,-2.3891,-2.3088,-2.1556,-2.1054,0.0,-1.8468,-1.8254,-1.7906,-1.7231,-1.6954,0.0,0.0,0.0,0.0,0.0,0.0,0.0,0.0,0.0,0.0,0.0,-1.6591,-1.5667,-1.4459,-1.5977,-1.7002,-1.6934,-1.8114,-1.8834,-1.8735,-1.9752,-2.0453,-2.0639,-2.1263,-2.1602,-2.1533,-2.1748,-2.1846,-2.1787,-2.1846,-2.1894,-2.1914,-2.1807,-2.1758,-2.1758,-2.1689,-2.1494,-2.1152,-2.081,-2.0586,-2.0576,-2.0576,-2.0576,-2.0576,-2.0576,-2.0576,-2.0576,-2.0576,-2.0576,-2.0557,-2.0518,-2.0439,-2.043,-2.0371,-2.0303,-2.0293,-2.0049,-1.9795,-1.9795,-1.9541,-1.9131,-1.8633,-1.8516,-1.8418,-4.315,0.0,-4.2491,-4.1983,0.0,-4.0666,-4.0217,-3.9873,-3.9559,-3.9035,-3.8347,-3.7704,-3.7075,-3.6462,-3.6148,-3.5818,-3.5504,-3.5489,-3.5489,-3.5489,-3.5489,-3.5489,-3.5439,-3.4461,-3.3739,-3.3241,-3.1901,-3.097,-3.0482,-2.9998,-2.9641,-2.934,-2.8787,-2.8235,-2.7682,-2.6879,-2.6314,-2.6025,-2.5749,-2.5335,-2.4795,-2.4268,-2.3452,-2.2347,-2.1769,0.0,0.0,0.0,0.0,0.0,0.0,0.0,0.0,0.0,0.0,-1.6926,-1.7279,-1.7727,-1.8236,-1.8168,-1.8612,-1.9831,-1.961,-1.8526,-1.6517,-1.7578,-1.8408,-1.8643,-1.9424,-1.9922,-1.9951,-2.0703,-2.1221,-2.125,-2.1807,-2.2119,-2.1963,-2.2256,-2.2412,-2.2256,-2.2383,-2.251,-2.25,-2.2314,-2.2207,-2.2178,-2.2002,-2.1816,-2.1572,-2.1172,-2.083,-2.0615,-2.0576,-2.0576,-2.0576,-2.0576,-2.0576,-2.0576,-2.0576,-2.0576,-2.0576,-2.0576,-2.0576,-2.0576,-2.0576,-2.0576,-2.0547,-2.0371,-2.0234,-2.0225,-2.0068,-1.9775,-1.9346,-1.8945,-1.8584,-4.3344,-4.3299,-4.2761,-4.2476,-4.2267,-4.1085,-4.0442,-4.0187,0.0,0.0,0.0,-3.8437,-3.7749,-3.6656,-3.6537,-3.6133,-3.5519,-3.5489,-3.5489,-3.5489,-3.5489,-3.5489,-3.5424,-3.4461,-3.4013,-3.3876,-3.2092,-3.1167,-3.118,-3.0292,-2.9779,-2.9741,-2.9227,-2.8599,-2.7934,-2.6967,-2.6521,-2.6508,-2.5988,-2.5686,-2.5573,-2.4732,-2.3916,-2.3103,-2.2686,-2.1895,-2.0769,-2.03,-1.9629,-1.8624,-1.8222,-1.7984,-1.7827,-1.8374,-1.9032,-1.9849,-2.0469,-2.1054,-2.1594,-2.1194,-2.12,-2.2009,-2.1815,-2.0658,-1.8478,-1.873,-1.9307,-2.0078,-2.0469,-2.0859,-2.1309,-2.1728,-2.2002,-2.1992,-2.2373,-2.248,-2.2207,-2.2695,-2.2969,-2.2734,-2.29,-2.3135,-2.3086,-2.2832,-2.2617,-2.2578,-2.2373,-2.206,-2.1943,-2.1533,-2.1045,-2.0654,-2.0576,-2.0576,-2.0576,-2.0576,-2.0576,-2.0576,-2.0576,-2.0576,-2.0576,-2.0576,-2.0576,-2.0576,-2.0576,-2.0576,-2.0576,-2.0547,-2.0576,-2.0576,-2.0566,-2.0459,-2.0078,-1.9414,-1.8887,-4.3344,-4.3329,-4.324,-4.288,-4.2389,-4.1564,-4.0606,-3.9574,-3.9454,-3.9379,-3.923,-3.8646,-3.7973,-3.724,-3.6716,-3.6133,-3.5504,-3.5489,-3.5489,-3.5489,-3.5489,-3.5489,-3.5439,-3.4461,-3.4013,-3.3876,-3.2092,-3.1167,-3.1106,-3.0292,-2.9779,-2.9716,-2.9214,-2.8423,-2.7431,-2.6779,-2.6521,-2.6521,-2.6377,-2.6101,-2.5611,-2.5448,-2.4644,-2.3165,-2.3015,-2.2272,-2.0794,-2.1041,-2.0991,-2.0357,-2.0694,-2.0665,-2.025,-2.069,-2.0894,-2.0607,-2.1049,-2.1619,-2.2171,-2.2518,-2.2672,-2.2593,-2.2533,-2.1685,-1.9826,-2.0049,-2.0508,-2.0996,-2.1084,-2.1318,-2.1758,-2.2168,-2.2422,-2.2441,-2.2793,-2.2921,-2.292,-2.3037,-2.3115,-2.3037,-2.3086,-2.3144,-2.3125,-2.2979,-2.3018,-2.3027,-2.2891,-2.2803,-2.2353,-2.1738,-2.1103,-2.0693,-2.0576,-2.0576,-2.0615,-2.0576,-2.0576,-2.0576,-2.0576,-2.0576,-2.0576,-2.0576,-2.0576,-2.0576,-2.0576,-2.0576,-2.0576,-2.0576,-2.0576,-2.0576,-2.0576,-2.0518,-2.042,-2.0019,-1.959,-4.3344,-4.3344,-4.3344,-4.3165,-4.2806,-4.1818,-4.0846,-3.9948,-3.9574,-3.9424,-3.9394,-3.908,-3.8571,-3.7913,-3.727,-3.6641,-3.6028,-3.5654,-3.5489,-3.5489,-3.5489,-3.5489,-3.5439,-3.5067,-3.4839,-3.4691,-3.289,-3.1947,-3.1829,-3.0495,-2.9779,-2.9754,-2.9214,-2.8524,-2.7745,-2.718,-2.6766,-2.6533,-2.6521,-2.6408,-2.6076,-2.5749,-2.5234,-2.4469,-2.3929,-2.3263,-2.2498,-2.2133,-2.182,-2.1568,-2.1518,-2.1506,-2.1568,-2.1794,-2.1958,-2.202,-2.2535,-2.2962,-2.3213,-2.4004,-2.4173,-2.3595,-2.3259,-2.2524,-2.1135,-2.0738,-2.0762,-2.1191,-2.1435,-2.1758,-2.2187,-2.2607,-2.2852,-2.2842,-2.3037,-2.3135,-2.3144,-2.3144,-2.3144,-2.3144,-2.3144,-2.3144,-2.3144,-2.3144,-2.3144,-2.3144,-2.3144,-2.2978,-2.2578,-2.2187,-2.1768,-2.1367,-2.1094,-2.0947,-2.0918,-2.0713,-2.0596,-2.0576,-2.0576,-2.0576,-2.0576,-2.0576,-2.0576,-2.0576,-2.0576,-2.0576,-2.0576,-2.0576,-2.0576,-2.0576,-2.0576,-2.0576,-2.0527,-2.0391,-1.9971,-4.3344,-4.3344,-4.3344,-4.3254,-4.3,-4.1878,-4.101,-4.0352,-3.9709,-3.9424,-3.9424,-3.9424,-3.9035,-3.8362,-3.7689,-3.706,-3.6447,-3.5804,-3.5489,-3.5489,-3.5489,-3.5489,-3.5489,-3.5489,-3.5489,-3.5279,-3.3754,-3.282,-3.2464,-3.0921,-2.9998,-2.9729,-2.9214,-2.8712,-2.8285,-2.762,-2.7067,-2.6666,-2.6596,-2.6521,-2.6508,-2.6013,-2.5724,-2.5548,-2.4795,-2.4305,-2.4155,-2.3213,-2.2686,-2.2673,-2.2284,-2.2259,-2.2648,-2.2811,-2.3062,-2.3441,-2.3929,-2.423,-2.4393,-2.5121,-2.5167,-2.4108,-2.3663,-2.2999,-2.1811,-2.1001,-2.0801,-2.1318,-2.1689,-2.208,-2.2578,-2.292,-2.3144,-2.3144,-2.3144,-2.3144,-2.3144,-2.3144,-2.3144,-2.3144,-2.3144,-2.3144,-2.3144,-2.3144,-2.3144,-2.3144,-2.3144,-2.2998,-2.2725,-2.2656,-2.25,-2.2187,-2.1728,-2.1338,-2.125,-2.0967,-2.0723,-2.0615,-2.0576,-2.0576,-2.0576,-2.0576,-2.0576,-2.0576,-2.0576,-2.0576,-2.0576,-2.0576,-2.0576,-2.0576,-2.0576,-2.0576,-2.0566,-2.0557,-2.0234,-4.3344,-4.3344,-4.3344,-4.2985,-4.2432,-4.1698,-4.101,-4.0382,-3.9709,-3.9424,-3.9424,-3.9424,-3.905,-3.8362,-3.7704,-3.7075,-3.6477,-3.5818,-3.5489,-3.5489,-3.5489,-3.5489,-3.5489,-3.5489,-3.5489,-3.5359,-3.4327,-3.338,-3.2593,-3.1536,-3.062,-2.9793,-2.9214,-2.8913,-2.8725,-2.7821,-2.7268,-2.7193,-2.6716,-2.6521,-2.6521,-2.6471,-2.6126,-2.5598,-2.5498,-2.5222,-2.4757,-2.4167,-2.3841,-2.3841,-2.3778,-2.3766,-2.3866,-2.4293,-2.4607,-2.4632,-2.4707,-2.4946,-2.5385,-2.5523,-2.5042,-2.3754,-2.3554,-2.2713,-2.1011,-2.0722,-2.0928,-2.1602,-2.1855,-2.2227,-2.2969,-2.3115,-2.3144,-2.3144,-2.3144,-2.3144,-2.3144,-2.3144,-2.3144,-2.3144,-2.3144,-2.3144,-2.3144,-2.3144,-2.3144,-2.3144,-2.3144,-2.3028,-2.3037,-2.3018,-2.3018,-2.2852,-2.2363,-2.1728,-2.1387,-2.1221,-2.0967,-2.0664,-2.0576,-2.0576,-2.0576,-2.0576,-2.0576,-2.0576,-2.0576,-2.0576,-2.0576,-2.0576,-2.0576,-2.0576,-2.0576,-2.0576,-2.0576,-2.0576,-2.0303,-4.3344,-4.3344,-4.3344,-4.318,-4.2821,-4.1833,-4.1235,-4.0891,-3.9858,-3.9424,-3.9424,-3.9424,-3.926,-3.8931,-3.7883,-3.7255,-3.6971,-3.5968,-3.5489,-3.5489,-3.5489,-3.5489,-3.5489,-3.5489,-3.5489,-3.5424,-3.4476,-3.3533,-3.2451,-3.1132,-3.0126,-2.9844,-2.9541,-2.9277,-2.8925,-2.8473,-2.7946,-2.7293,-2.7055,-2.6791,-2.6502,-2.6521,-2.6408,-2.6101,-2.5774,-2.5511,-2.5259,-2.477,-2.4481,-2.4494,-2.4481,-2.4494,-2.4481,-2.4707,-2.4833,-2.4845,-2.5109,-2.5536,-2.6063,-2.6101,-2.5628,-2.4469,-2.3818,-2.2925,-2.1614,-2.1183,-2.123,-2.1758,-2.1894,-2.2227,-2.2998,-2.3144,-2.3144,-2.3144,-2.3144,-2.3144,-2.3144,-2.3144,-2.3144,-2.3144,-2.3144,-2.3144,-2.3144,-2.3144,-2.3144,-2.3144,-2.3144,-2.3144,-2.3144,-2.3144,-2.3144,-2.3105,-2.2822,-2.2363,-2.1768,-2.1377,-2.1064,-2.0713,-2.0576,-2.0576,-2.0576,-2.0576,-2.0576,-2.0576,-2.0576,-2.0576,-2.0576,-2.0576,-2.0576,-2.0576,-2.0576,-2.0576,-2.0576,-2.0576,-2.0469,-4.3344,-4.3344,-4.3344,-4.3344,-4.3225,-4.1938,-4.1384,-4.1205,-3.9978,-3.9424,-3.9424,-3.9424,-3.9424,-3.926,-3.8197,-3.7584,-3.7285,-3.6267,-3.5669,-3.5519,-3.5489,-3.5489,-3.5489,-3.5489,-3.5489,-3.5359,-3.4773,-3.3822,-3.2536,-3.0983,-3.0075,-2.9869,-2.9779,-2.9578,-2.9189,-2.9038,-2.8461,-2.7595,-2.7381,-2.7017,-2.6596,-2.6521,-2.6521,-2.6483,-2.605,-2.5837,-2.5824,-2.531,-2.5034,-2.5034,-2.5034,-2.5034,-2.5034,-2.5184,-2.5272,-2.5297,-2.5624,-2.6013,-2.6427,-2.6233,-2.5664,-2.4636,-2.3661,-2.2627,-2.1828,-2.1352,-2.1416,-2.1826,-2.1992,-2.2383,-2.2988,-2.3144,-2.3144,-2.3144,-2.3144,-2.3144,-2.3144,-2.3144,-2.3144,-2.3144,-2.3144,-2.3144,-2.3144,-2.3144,-2.3144,-2.3144,-2.3144,-2.3144,-2.3144,-2.3144,-2.3144,-2.3144,-2.3135,-2.2773,-2.2051,-2.166,-2.1211,-2.0742,-2.0576,-2.0576,-2.0576,-2.0576,-2.0576,-2.0576,-2.0576,-2.0576,-2.0576,-2.0576,-2.0576,-2.0576,-2.0576,-2.0576,-2.0576,-2.0576,-2.0576,-4.3344,-4.3344,-4.3344,-4.3344,-4.324,-4.1923,-4.1384,-4.1294,-3.9993,-3.9424,-3.9424,-3.9424,-3.9424,-3.9379,-3.8661,-3.8003,-3.7375,-3.6701,-3.6058,-3.5534,-3.5489,-3.5489,-3.5489,-3.5489,-3.5489,-3.5489,-3.5359,-3.4409,-3.2607,-3.1609,-3.0696,-2.9856,-2.9779,-2.9779,-2.9641,-2.9227,-2.8662,-2.8097,-2.7607,-2.7042,-2.6622,-2.6546,-2.6521,-2.6521,-2.6483,-2.6445,-2.6408,-2.5862,-2.5561,-2.5561,-2.5561,-2.5573,-2.5611,-2.6063,-2.6382,-2.6327,-2.6377,-2.6414,-2.6302,-2.5581,-2.4636,-2.3661,-2.2702,-2.1756,-2.1023,-2.1115,-2.1484,-2.1865,-2.2275,-2.2685,-2.3057,-2.3144,-2.3144,-2.3144,-2.3144,-2.3144,-2.3144,-2.3144,-2.3144,-2.3144,-2.3144,-2.3144,-2.3144,-2.3144,-2.3144,-2.3144,-2.3144,-2.3144,-2.3144,-2.3144,-2.3047,-2.296,-2.2902,-2.2765,-2.2006,-2.1797,-2.1416,-2.0937,-2.0674,-2.0576,-2.0576,-2.0576,-2.0576,-2.0576,-2.0576,-2.0576,-2.0576,-2.0576,-2.0576,-2.0576,-2.0576,-2.0576,-2.0576,-2.0576,-2.0576,-4.3344,-4.3344,-4.3344,-4.3344,-4.3195,-4.1923,-4.1384,-4.125,-3.9993,-3.9424,-3.9424,-3.9424,-3.9424,-3.9409,-3.917,-3.8437,-3.7404,-3.6761,-3.6133,-3.5549,-3.5489,-3.5489,-3.5489,-3.5489,-3.5489,-3.5489,-3.5489,-3.4491,-3.2678,-3.1669,-3.0696,-2.9921,-2.9779,-2.9779,-2.9754,-2.9578,-2.9202,-2.8637,-2.8097,-2.7544,-2.6992,-2.671,-2.6521,-2.6521,-2.6521,-2.6521,-2.6521,-2.6251,-2.6138,-2.6151,-2.6138,-2.6151,-2.6163,-2.6339,-2.6521,-2.6452,-2.5873,-2.5523,-2.5441,-2.4636,-2.3588,-2.2627,-2.2253,-2.1737,-2.1224,-2.1396,-2.1836,-2.2246,-2.2666,-2.2911,-2.3086,-2.3144,-2.3144,-2.3144,-2.3144,-2.3144,-2.3144,-2.3144,-2.3144,-2.3144,-2.3144,-2.3144,-2.3144,-2.3144,-2.3144,-2.3144,-2.3144,-2.3144,-2.3144,-2.3144,-2.2862,-2.2129,-2.1924,-2.1484,-2.0018,-2.1156,-2.166,-2.1182,-2.085,-2.0644,-2.0576,-2.0576,-2.0576,-2.0566,-2.0566,-2.0323,-2.0167,-2.0079,-2.0167,-2.0401,-2.0479,-2.0411,-2.0576,-2.0576,-2.0576,-4.3344,-4.3344,-4.3344,-4.3344,-4.318,-4.1938,-4.1384,-4.122,-3.9993,-3.9424,-3.9424,-3.9424,-3.9424,-3.9424,-3.9424,-3.8676,-3.7449,-3.6956,-3.6327,-3.5549,-3.5489,-3.5489,-3.5489,-3.5489,-3.5489,-3.5489,-3.5489,-3.4476,-3.2749,-3.1947,-3.0983,-2.9869,-2.9779,-2.9779,-2.9779,-2.9779,-2.9503,-2.895,-2.8549,-2.8034,-2.7344,-2.6929,-2.6697,-2.649,-2.6521,-2.6521,-2.6521,-2.6521,-2.6521,-2.6521,-2.6521,-2.6521,-2.6521,-2.6521,-2.6521,-2.6383,-2.5594,-2.5004,-2.485,-2.3745,-2.2702,-2.2048,-2.1814,-2.1595,-2.124,-2.1758,-2.2197,-2.2529,-2.2891,-2.3144,-2.3144,-2.3144,-2.3144,-2.3144,-2.3144,-2.3144,-2.3144,-2.3144,-2.3144,-2.3144,-2.3144,-2.3144,-2.3144,-2.3144,-2.3144,-2.3144,-2.3144,-2.3144,-2.3144,-2.3047,-2.2677,-2.1569,-2.1382,-2.0748,-1.9749,-2.0192,-2.0643,-2.0326,-2.0866,-2.0722,-2.0576,-2.0576,-2.0566,-2.0489,-2.0245,-1.9913,-1.9756,-1.959,-1.9756,-1.9991,-2.0001,-1.9844,-2.0167,-2.0576,-2.0576,-4.3344,-4.3344,-4.3344,-4.3344,-4.315,-4.1938,-4.1384,-4.1175,-3.9993,-3.9424,-3.9424,-3.9424,-3.9424,-3.9424,-3.9424,-3.8691,-3.7659,-3.7375,-3.6656,-3.5579,-3.5489,-3.5489,-3.5489,-3.5504,-3.5424,-3.5344,-3.5424,-3.4409,-3.2522,-3.2321,-3.1476,-3.0062,-2.9779,-2.9779,-2.9779,-2.9767,-2.9528,-2.9101,-2.8913,-2.8386,-2.7444,-2.7318,-2.7055,-2.659,-2.6596,-2.6571,-2.6533,-2.6521,-2.6521,-2.6521,-2.6521,-2.6521,-2.6521,-2.6521,-2.6465,-2.6233,-2.5453,-2.5004,-2.4636,-2.2999,-2.1962,-2.1776,-2.1459,-2.1213,-2.1387,-2.1963,-2.2441,-2.2627,-2.29,-2.3144,-2.3144,-2.3144,-2.3144,-2.3144,-2.3144,-2.3144,-2.3144,-2.3144,-2.3144,-2.3144,-2.3144,-2.3144,-2.3144,-2.3144,-2.3144,-2.3144,-2.3144,-2.3144,-2.3047,-2.296,-2.2492,-2.1569,-2.0657,-1.9793,-1.9414,-1.9158,-1.9212,-1.9388,-2.027,-2.0707,-2.0605,-2.0566,-2.0323,-2.0235,-1.9274,-1.8868,-1.847,-1.839,-1.8709,-1.8948,-1.9036,-1.9608,-2.0167,-2.0576,-2.0576,-4.3344,-4.3344,-4.3344,-4.3344,-4.3165,-4.1938,-4.1384,-4.125,-3.9978,-3.9439,-3.9424,-3.9424,-3.9424,-3.9424,-3.9409,-3.8931,-3.8078,-3.7614,-3.6731,-3.5684,-3.5504,-3.5489,-3.5489,-3.5489,-3.5133,-3.4528,-3.4461,-3.3533,-3.196,-3.1683,-3.0983,-2.9998,-2.9779,-2.9779,-2.9779,-2.9779,-2.9666,-2.9515,-2.9126,-2.8725,-2.8386,-2.8034,-2.7582,-2.7105,-2.703,-2.6866,-2.649,-2.6521,-2.6521,-2.6521,-2.6521,-2.6521,-2.6452,-2.6521,-2.6164,-2.5441,-2.4552,-2.3599,-2.2925,-2.1821,-2.1078,-2.1031,-2.0869,-2.1094,-2.1582,-2.1924,-2.2363,-2.2803,-2.3066,-2.3144,-2.3144,-2.3144,-2.3144,-2.3144,-2.3144,-2.3144,-2.3144,-2.3144,-2.3144,-2.3144,-2.3144,-2.3144,-2.3047,-2.3047,-2.3047,-2.3057,-2.3047,-2.3047,-2.296,-2.2394,-2.14,-2.0305,-1.9579,-1.8756,-1.7949,-1.7773,-1.8092,-1.8465,-1.9358,-2.0051,-2.0127,-2.0079,-1.9913,-1.9344,-1.839,-1.7747,-1.7342,-1.7261,-1.7496,-1.831,-1.8877,-1.952,-2.0333,-2.0576,-2.0576,-4.3344,-4.3344,-4.3344,-4.3344,-4.318,-4.1938,-4.1384,-4.119,-3.9993,-3.9424,-3.9424,-3.9424,-3.9424,-3.9424,-3.9424,-3.9035,-3.8362,-3.7704,-3.6851,-3.5938,-3.5579,-3.5504,-3.5489,-3.5489,-3.4986,-3.4163,-3.4013,-3.3031,-3.1241,-3.118,-3.0709,-2.9934,-2.9779,-2.9779,-2.9779,-2.9779,-2.9779,-2.9729,-2.9428,-2.9139,-2.89,-2.8586,-2.8147,-2.7657,-2.7394,-2.7118,-2.6779,-2.6647,-2.6521,-2.6521,-2.6521,-2.6314,-2.6025,-2.5886,-2.5511,-2.4492,-2.3526,-2.2627,-2.1962,-2.1231,-2.0576,-2.0586,-2.0723,-2.1113,-2.1748,-2.1992,-2.2451,-2.2998,-2.3144,-2.3144,-2.3144,-2.3144,-2.3144,-2.3144,-2.3144,-2.3144,-2.3144,-2.3144,-2.3144,-2.3144,-2.3144,-2.3144,-2.3047,-2.258,-2.2677,-2.2872,-2.2687,-2.2413,-2.2315,-2.1747,-2.0576,-1.9405,-1.8503,-1.749,-1.6285,-1.6404,-1.6965,-1.755,-1.8337,-1.8834,-1.9137,-1.8914,-1.8709,-1.7811,-1.6919,-1.6363,-1.5876,-1.5794,-1.6041,-1.718,-1.8559,-1.9195,-1.9844,-2.0489,-2.0576,-4.3344,-4.3344,-4.3344,-4.3284,-4.3075,-4.1908,-4.1339,-4.1085,-3.9978,-3.9424,-3.9424,-3.9424,-3.9424,-3.9424,-3.9424,-3.908,-3.8422,-3.7719,-3.7135,-3.6462,-3.5893,-3.5489,-3.5489,-3.5489,-3.492,-3.3959,-3.3808,-3.282,-3.1031,-3.0957,-3.0696,-2.9856,-2.9779,-2.9779,-2.9779,-2.9779,-2.9779,-2.9779,-2.9754,-2.9478,-2.9051,-2.8988,-2.8712,-2.8172,-2.7657,-2.7331,-2.7143,-2.6728,-2.6521,-2.6521,-2.6521,-2.6164,-2.537,-2.5087,-2.4636,-2.3672,-2.2627,-2.2113,-2.1735,-2.1088,-2.0576,-2.0596,-2.0957,-2.1416,-2.1826,-2.2227,-2.2617,-2.3076,-2.3144,-2.3144,-2.3144,-2.3144,-2.3144,-2.3144,-2.3144,-2.3144,-2.3144,-2.3144,-2.3144,-2.3144,-2.3144,-2.3144,-2.3047,-2.2217,-2.2306,-2.2589,-2.2325,-2.205,-2.1676,-2.1302,-2.0124,-1.9039,-1.8048,-1.6943,-1.592,-1.5906,-1.6469,-1.6636,-1.7255,-1.7586,-1.7987,-1.7868,-1.7496,-1.6593,-1.5516,-1.4963,-1.4727,-1.4643,-1.5462,-1.7009,-1.798,-1.863,-1.9441,-2.0245,-2.0576,-4.3344,-4.3344,-4.3344,-4.306,-4.2551,-4.1713,-4.11,-4.0591,-3.9798,-3.9424,-3.9424,-3.9424,-3.9424,-3.9424,-3.9424,-3.9305,-3.8841,-3.7913,-3.736,-3.7015,-3.5998,-3.5534,-3.5489,-3.5504,-3.4639,-3.3241,-3.3017,-3.1974,-3.0279,-3.019,-3.0075,-2.9779,-2.9779,-2.9779,-2.9779,-2.9779,-2.9779,-2.9779,-2.9779,-2.9729,-2.9591,-2.9541,-2.9289,-2.8737,-2.8185,-2.7708,-2.7293,-2.6823,-2.6521,-2.6521,-2.6521,-2.6383,-2.5955,-2.537,-2.4564,-2.3514,-2.2553,-2.1659,-2.1155,-2.0789,-2.0644,-2.0605,-2.0947,-2.1426,-2.1855,-2.2266,-2.2685,-2.3037,-2.3144,-2.3144,-2.3144,-2.3144,-2.3144,-2.3144,-2.3144,-2.3144,-2.3144,-2.3144,-2.3144,-2.3144,-2.3144,-2.3144,-2.3047,-2.2677,-2.2589,-2.2862,-2.2599,-2.2236,-2.1676,-2.0854,-1.9588,-1.8764,-1.7855,-1.6662,-1.592,-1.5825,-1.5873,-1.596,-1.6196,-1.6351,-1.6707,-1.6889,-1.6417,-1.5771,-1.4337,-1.3522,-1.362,-1.3711,-1.5191,-1.6667,-1.7415,-1.8069,-1.9599,-2.0576,-2.0576,-4.3344,-4.3344,-4.3344,-4.2955,-4.2312,-4.1669,-4.101,-4.0352,-3.9723,-3.9424,-3.9424,-3.9424,-3.9424,-3.9424,-3.9424,-3.9245,-3.8871,-3.7898,-3.7285,-3.6851,-3.5968,-3.5534,-3.5489,-3.5504,-3.4476,-3.2749,-3.2593,-3.1549,-3.0139,-2.9779,-2.9779,-2.9779,-2.9779,-2.9779,-2.9779,-2.9779,-2.9779,-2.9779,-2.9779,-2.9779,-2.9779,-2.9779,-2.9641,-2.9227,-2.875,-2.8197,-2.7657,-2.7105,-2.6716,-2.6596,-2.6452,-2.6314,-2.5886,-2.537,-2.4564,-2.3514,-2.2553,-2.1745,-2.1221,-2.0857,-2.0566,-2.0596,-2.085,-2.1269,-2.1748,-2.2129,-2.2451,-2.3037,-2.3125,-2.3144,-2.3144,-2.3144,-2.3144,-2.3144,-2.3144,-2.3144,-2.3144,-2.3144,-2.3144,-2.3144,-2.3144,-2.3135,-2.3047,-2.2315,-2.2315,-2.2492,-2.1952,-2.1587,-2.1132,-2.0133,-1.9039,-1.8126,-1.739,-1.6379,-1.5752,-1.5718,-1.5578,-1.5591,-1.5379,-1.5514,-1.5562,-1.5769,-1.546,-1.4706,-1.3262,-1.2498,-1.3118,-1.3626,-1.4511,-1.5749,-1.6667,-1.8069,-1.9678,-2.0576,-2.0576,-4.3344,-4.3344,-4.3269,-4.2851,-4.2177,-4.1549,-4.0831,-4.0247,-3.9664,-3.9424,-3.9424,-3.9424,-3.9424,-3.9424,-3.9409,-3.9065,-3.8407,-3.7734,-3.7015,-3.6417,-3.5789,-3.5489,-3.5489,-3.5213,-3.4192,-3.2749,-3.2536,-3.1415,-3.0139,-2.9779,-2.9779,-2.9779,-2.9779,-2.9779,-2.9779,-2.9779,-2.9779,-2.9779,-2.9779,-2.9779,-2.9779,-2.9779,-2.9729,-2.9628,-2.9126,-2.8574,-2.8084,-2.7607,-2.718,-2.6678,-2.6578,-2.6193,-2.5431,-2.5146,-2.4636,-2.3818,-2.2925,-2.2188,-2.1886,-2.1231,-2.0712,-2.0664,-2.0684,-2.1006,-2.1748,-2.209,-2.249,-2.3086,-2.3135,-2.3144,-2.3144,-2.3144,-2.3144,-2.3144,-2.3144,-2.3144,-2.3144,-2.3144,-2.3047,-2.295,-2.2862,-2.2862,-2.2227,-2.1221,-2.0314,-2.1498,-2.0953,-2.0584,-2.0133,-1.9413,-1.8218,-1.7124,-1.6473,-1.6008,-1.5718,-1.5598,-1.5404,-1.5224,-1.4903,-1.4797,-1.4644,-1.4614,-1.4439,-1.373,-1.2595,-1.2687,-1.3646,-1.4139,-1.4176,-1.5666,-1.709,-1.855,-1.9923,-2.0411,-2.0576,-4.3344,-4.3284,-4.2776,-4.2192,-4.1549,-4.0891,-4.0247,-3.9649,-3.9499,-3.9424,-3.9424,-3.9424,-3.9424,-3.9424,-3.9394,-3.905,-3.8302,-3.7599,-3.6836,-3.5774,-3.5609,-3.5504,-3.5279,-3.4773,-3.3685,-3.2664,-3.1815,-3.0908,-2.9998,-2.9779,-2.9779,-2.9779,-2.9779,-2.9779,-2.9779,-2.9779,-2.9779,-2.9779,-2.9779,-2.9779,-2.9779,-2.9779,-2.9779,-2.9729,-2.9227,-2.8699,-2.8222,-2.7996,-2.7871,-2.7682,-2.7356,-2.6864,-2.6186,-2.5465,-2.5004,-2.4564,-2.3745,-2.285,-2.2178,-2.1811,-2.1385,-2.0878,-2.1203,-2.168,-2.1855,-2.248,-2.2852,-2.3144,-2.3144,-2.3144,-2.3144,-2.3144,-2.3144,-2.3144,-2.3047,-2.296,-2.3047,-2.3047,-2.2677,-2.2031,-2.1667,-2.1302,-2.0494,-2.0133,-1.977,-2.0232,-1.9951,-1.9588,-1.9139,-1.8688,-1.7677,-1.6574,-1.6204,-1.5805,-1.5618,-1.5411,-1.5084,-1.4903,-1.4609,-1.4416,-1.4182,-1.4088,-1.4088,-1.33,-1.2169,-1.2693,-1.3652,-1.2687,-1.2298,-1.4899,-1.7423,-1.863,-1.9678,-2.0167,-2.0576,-4.315,-4.2851,-4.2506,-4.1803,-4.095,-4.0546,-4.0023,-3.9499,-3.9424,-3.9424,-3.9424,-3.9424,-3.9424,-3.9424,-3.9379,-3.8901,-3.7853,-3.6926,-3.6178,-3.5594,-3.5504,-3.5504,-3.5133,-3.4109,-3.3031,-3.2464,-3.1669,-3.0696,-2.9985,-2.9779,-2.9779,-2.9779,-2.9779,-2.9779,-2.9779,-2.9779,-2.9779,-2.9779,-2.9779,-2.9779,-2.9779,-2.9779,-2.9779,-2.9679,-2.9264,-2.885,-2.8925,-2.8624,-2.8524,-2.8423,-2.8185,-2.7657,-2.6929,-2.6161,-2.5746,-2.5511,-2.4779,-2.4036,-2.3441,-2.2563,-2.1838,-2.1602,-2.165,-2.183,-2.209,-2.2637,-2.291,-2.3086,-2.3144,-2.3144,-2.3144,-2.3144,-2.3144,-2.296,-2.2589,-2.2315,-2.2315,-2.2217,-2.2031,-2.1293,-2.0836,-2.0305,-1.967,-1.8948,-1.9231,-1.9596,-1.8864,-1.8503,-1.8503,-1.7956,-1.7404,-1.6574,-1.6109,-1.5752,-1.5538,-1.5211,-1.475,-1.4543,-1.4342,-1.4235,-1.4128,-1.4088,-1.4088,-1.3215,-1.2345,-1.2516,-1.3039,-1.1815,-1.1958,-1.5231,-1.7658,-1.8621,-1.9511,-2.0245,-2.0566,-4.2865,-4.2404,-4.2224,-4.1399,-4.0487,-4.0277,-3.9918,-3.9469,-3.9424,-3.9265,-3.9192,-3.925,-3.9265,-3.9177,-3.9337,-3.8631,-3.7404,-3.6207,-3.5564,-3.5519,-3.5489,-3.5489,-3.5067,-3.3754,-3.2664,-3.2464,-3.1402,-3.0495,-2.9998,-2.9779,-2.9779,-2.9779,-2.9779,-2.9779,-2.9779,-2.9779,-2.9779,-2.9779,-2.9779,-2.9779,-2.9779,-2.9779,-2.9779,-2.9691,-2.9428,-2.9315,-2.9465,-2.9289,-2.9063,-2.9051,-2.8976,-2.8436,-2.7695,-2.6929,-2.6584,-2.6502,-2.5664,-2.5075,-2.4492,-2.3548,-2.2735,-2.291,-2.2168,-2.2026,-2.2611,-2.2788,-2.2861,-2.3027,-2.3144,-2.3144,-2.3144,-2.3144,-2.3144,-2.296,-2.212,-2.1658,-2.156,-2.1471,-2.1203,-2.0395,-1.967,-1.9039,-1.8495,-1.7855,-1.8403,-1.8772,-1.8048,-1.7591,-1.7684,-1.7404,-1.6842,-1.648,-1.6015,-1.5585,-1.5344,-1.5037,-1.4569,-1.4342,-1.4142,-1.4122,-1.4095,-1.4088,-1.3997,-1.3476,-1.2954,-1.2778,-1.2431,-1.1643,-1.2893,-1.5988,-1.7496,-1.8221,-1.9195,-2.0323,-2.0566,-4.2447,-4.2267,-4.1175,-4.0591,-4.0322,-3.9828,-3.9544,-3.9439,-3.9352,-3.887,-3.8308,-3.8929,-3.8855,-3.8531,-3.9104,-3.8575,-3.7285,-3.6103,-3.5489,-3.5489,-3.5489,-3.5489,-3.5133,-3.3685,-3.2735,-3.2119,-3.1132,-3.0139,-2.9856,-2.9779,-2.9779,-2.9779,-2.9779,-2.9779,-2.9779,-2.9779,-2.9779,-2.9779,-2.9779,-2.9779,-2.9779,-2.9779,-2.9779,-2.9779,-2.9616,-2.9654,-2.9716,-2.9704,-2.9654,-2.9603,-2.9176,-2.8875,-2.8436,-2.7657,-2.7042,-2.6628,-2.627,-2.5804,-2.5158,-2.4754,-2.4311,-2.3971,-2.3402,-2.3275,-2.3577,-2.3383,-2.3162,-2.3076,-2.3144,-2.3144,-2.3144,-2.3144,-2.3144,-2.3047,-2.2765,-2.2492,-2.2394,-2.1667,-2.0486,-1.9314,-1.8503,-1.8048,-1.7948,-1.7762,-1.8133,-1.8495,-1.8041,-1.7863,-1.8048,-1.7304,-1.6365,-1.6096,-1.5825,-1.5484,-1.513,-1.4796,-1.4436,-1.4255,-1.4108,-1.4108,-1.4088,-1.4088,-1.3913,-1.3561,-1.2687,-1.1906,-1.1472,-1.1386,-1.2808,-1.5321,-1.6577,-1.7747,-1.9116,-2.0323,-2.0566,-4.1953,-4.1309,-4.0651,-4.0187,-3.9858,-3.9574,-3.9424,-3.9337,-3.887,-3.862,-3.862,-3.862,-3.862,-3.8605,-3.8674,-3.8153,-3.6956,-3.5998,-3.5519,-3.5489,-3.5489,-3.5489,-3.5359,-3.3905,-3.3101,-3.2393,-3.1193,-3.0139,-2.9869,-2.9779,-2.9779,-2.9779,-2.9779,-2.9779,-2.9779,-2.9779,-2.9779,-2.9779,-2.9779,-2.9779,-2.9779,-2.9779,-2.9779,-2.9779,-2.9779,-2.9779,-2.9779,-2.9779,-2.9779,-2.9729,-2.9528,-2.9239,-2.8863,-2.8423,-2.7745,-2.7055,-2.6666,-2.6339,-2.5819,-2.5587,-2.5354,-2.5396,-2.4926,-2.453,-2.444,-2.4163,-2.3704,-2.3309,-2.3144,-2.3144,-2.3144,-2.3144,-2.3144,-2.296,-2.2677,-2.2306,-2.1943,-2.1123,-2.0042,-1.8956,-1.8956,-1.8956,-1.8488,-1.8303,-1.8218,-1.8041,-1.7933,-1.8103,-1.8464,-1.7572,-1.66,-1.6095,-1.5841,-1.517,-1.4836,-1.4583,-1.4355,-1.4182,-1.4088,-1.4088,-1.4088,-1.4088,-1.4088,-1.3997,-1.2863,-1.1472,-1.1821,-1.2169,-1.3412,-1.465,-1.6242,-1.7819,-1.9274,-2.0245,-2.0489,-4.1369,-4.0397,-4.0247,-3.9903,-3.9469,-3.9424,-3.9424,-3.9177,-3.8546,-3.8472,-3.8943,-3.8546,-3.8546,-3.8736,-3.8355,-3.7554,-3.6462,-3.5804,-3.5519,-3.5489,-3.5489,-3.5489,-3.5213,-3.4259,-3.3241,-3.2464,-3.118,-3.0558,-2.9921,-2.9779,-2.9779,-2.9779,-2.9779,-2.9779,-2.9779,-2.9779,-2.9779,-2.9779,-2.9779,-2.9779,-2.9779,-2.9779,-2.9779,-2.9779,-2.9779,-2.9779,-2.9779,-2.9779,-2.9779,-2.9779,-2.9716,-2.9578,-2.9176,-2.8988,-2.8511,-2.7708,-2.7105,-2.6816,-2.6627,-2.6549,-2.6602,-2.692,-2.6364,-2.5934,-2.5622,-2.5325,-2.4713,-2.3724,-2.3474,-2.3299,-2.3222,-2.3144,-2.3144,-2.296,-2.2315,-2.1667,-2.1756,-2.14,-2.1132,-2.0494,-2.0223,-1.977,-1.9306,-1.9031,-1.8948,-1.9216,-1.9018,-1.8986,-1.9142,-1.8308,-1.7296,-1.6526,-1.5892,-1.4933,-1.4522,-1.4376,-1.4222,-1.4135,-1.4088,-1.4088,-1.4088,-1.4088,-1.4088,-1.4082,-1.2687,-1.1643,-1.2254,-1.2772,-1.3334,-1.449,-1.625,-1.7819,-1.9116,-2.0079,-2.0566,-4.0546,-4.0337,-3.9768,-3.9484,-3.9439,-3.9424,-3.9424,-3.9352,-3.9104,-3.8708,-3.8308,-3.8767,-3.862,-3.8077,-3.7708,-3.715,-3.6432,-3.5833,-3.5504,-3.5489,-3.5489,-3.5489,-3.5198,-3.3533,-3.3031,-3.2393,-3.0921,-3.0075,-2.9779,-2.9779,-2.9779,-2.9779,-2.9779,-2.9779,-2.9779,-2.9779,-2.9779,-2.9779,-2.9779,-2.9779,-2.9779,-2.9779,-2.9779,-2.9779,-2.9779,-2.9779,-2.9779,-2.9779,-2.9779,-2.9779,-2.9779,-2.9754,-2.9616,-2.9189,-2.8963,-2.8624,-2.8222,-2.7695,-2.7381,-2.7466,-2.7767,-2.8075,-2.7645,-2.7439,-2.7094,-2.6449,-2.563,-2.4713,-2.4628,-2.4125,-2.3551,-2.3222,-2.3135,-2.3047,-2.2862,-2.2677,-2.2589,-2.2129,-2.1863,-2.1952,-2.1686,-2.0863,-2.0124,-1.9943,-1.9753,-1.9996,-2.0145,-2.0095,-1.9834,-1.8971,-1.7881,-1.7033,-1.6443,-1.5562,-1.5284,-1.5021,-1.4628,-1.4412,-1.4328,-1.4334,-1.4088,-1.4088,-1.425,-1.3815,-1.2674,-1.248,-1.3334,-1.3587,-1.3322,-1.4483,-1.6659,-1.7891,-1.8789,-1.9678,-2.0557,-3.9843,-3.9813,-3.9544,-3.9424,-3.9424,-3.9424,-3.9424,-3.9265,-3.8708,-3.8634,-3.8634,-3.8457,-3.8091,-3.7546,-3.7103,-3.6537,-3.5968,-3.5639,-3.5504,-3.5489,-3.5489,-3.5489,-3.5213,-3.4109,-3.3241,-3.2321,-3.1328,-3.0355,-2.9998,-2.9779,-2.9779,-2.9779,-2.9779,-2.9779,-2.9779,-2.9779,-2.9779,-2.9779,-2.9779,-2.9779,-2.9779,-2.9779,-2.9779,-2.9779,-2.9779,-2.9779,-2.9779,-2.9779,-2.9779,-2.9779,-2.9779,-2.9779,-2.9754,-2.9528,-2.9302,-2.8925,-2.9063,-2.8637,-2.7984,-2.831,-2.8662,-2.885,-2.8706,-2.856,-2.806,-2.7197,-2.6472,-2.5808,-2.5714,-2.5221,-2.4382,-2.4039,-2.3637,-2.3387,-2.3222,-2.3144,-2.3144,-2.3144,-2.2862,-2.3047,-2.3038,-2.2013,-2.1257,-2.1239,-2.1148,-2.1153,-2.125,-2.1161,-2.0704,-1.9889,-1.8744,-1.7531,-1.7007,-1.6391,-1.6428,-1.6252,-1.5748,-1.5462,-1.522,-1.4977,-1.425,-1.4166,-1.4573,-1.4901,-1.4525,-1.4511,-1.4754,-1.4497,-1.4239,-1.5569,-1.7147,-1.8292,-1.9353,-1.9806,-2.0459,-3.9424,-3.9424,-3.9424,-3.9424,-3.9424,-3.9424,-3.9424,-3.9265,-3.8634,-3.8708,-3.8972,-3.84,-3.7723,-3.7193,-3.6716,-3.6193,-3.5534,-3.5489,-3.5489,-3.5489,-3.5489,-3.5489,-3.5052,-3.4245,-3.3171,-3.2522,-3.1193,-3.0432,-2.9998,-2.9779,-2.9779,-2.9779,-2.9779,-2.9779,-2.9779,-2.9779,-2.9779,-2.9779,-2.9779,-2.9779,-2.9779,-2.9779,-2.9779,-2.9779,-2.9779,-2.9779,-2.9779,-2.9779,-2.9779,-2.9779,-2.9779,-2.9779,-2.9767,-2.9716,-2.9566,-2.934,-2.9465,-2.9352,-2.89,-2.8938,-2.9114,-2.9277,-2.9428,-2.9303,-2.8755,-2.7706,-2.7046,-2.6964,-2.6883,-2.6295,-2.5462,-2.4957,-2.4382,-2.38,-2.3309,-2.3222,-2.3125,-2.3086,-2.3105,-2.3144,-2.3105,-2.3008,-2.2524,-2.2679,-2.264,-2.2493,-2.2353,-2.21,-2.1288,-2.037,-1.9434,-1.8103,-1.7482,-1.7008,-1.7066,-1.7025,-1.6683,-1.6511,-1.6191,-1.5951,-1.5387,-1.5311,-1.5636,-1.5869,-1.6108,-1.6101,-1.6003,-1.5576,-1.5403,-1.6887,-1.8212,-1.9186,-1.9991,-2.0343,-2.0166,-3.9424,-3.9424,-3.9424,-3.9424,-3.9424,-3.9424,-3.9424,-3.9424,-3.925,-3.9235,-3.9158,-3.8534,-3.7535,-3.6791,-3.6447,-3.6058,-3.5504,-3.5489,-3.5489,-3.5489,-3.5489,-3.5489,-3.492,-3.3905,-3.2749,-3.2321,-3.0983,-3.0062,-2.9779,-2.9779,-2.9779,-2.9779,-2.9779,-2.9779,-2.9779,-2.9779,-2.9779,-2.9779,-2.9779,-2.9779,-2.9779,-2.9779,-2.9779,-2.9779,-2.9779,-2.9779,-2.9779,-2.9779,-2.9779,-2.9779,-2.9779,-2.9779,-2.9779,-2.9779,-2.9679,-2.9666,-2.9666,-2.9616,-2.9503,-2.949,-2.9641,-2.9729,-2.9754,-2.9702,-2.9365,-2.9534,-2.9028,-2.8108,-2.8028,-2.7452,-2.6461,-2.5557,-2.5294,-2.4638,-2.4145,-2.3724,-2.3424,-2.2978,-2.3008,-2.3105,-2.2998,-2.2754,-2.2646,-2.2568,-2.2402,-2.2158,-2.1797,-2.1533,-2.1021,-2.0178,-1.9626,-1.8754,-1.8002,-1.7594,-1.7521,-1.7496,-1.773,-1.7568,-1.7253,-1.709,-1.6854,-1.6854,-1.6527,-1.7009,-1.7253,-1.7253,-1.7415,-1.7309,-1.7535,-1.8372,-1.9274,-1.9806,-2.0072,-2.0168,-1.9707,-3.9424,-3.9424,-3.9424,-3.9424,-3.9424,-3.9424,-3.9424,-3.9424,-3.9424,-3.9155,-3.8706,-3.7704,-3.6956,-3.6492,-3.6013,-3.5774,-3.5519,-3.5489,-3.5489,-3.5489,-3.5489,-3.5504,-3.4839,-3.3754,-3.2593,-3.2177,-3.0771,-2.9779,-2.9779,-2.9779,-2.9779,-2.9779,-2.9779,-2.9779,-2.9779,-2.9779,-2.9779,-2.9779,-2.9779,-2.9779,-2.9779,-2.9779,-2.9779,-2.9779,-2.9779,-2.9779,-2.9779,-2.9779,-2.9779,-2.9779,-2.9779,-2.9779,-2.9779,-2.9779,-2.9779,-2.9779,-2.9779,-2.9779,-2.9779,-2.9779,-2.9779,-2.9779,-2.9779,-2.9779,-2.9779,-2.9779,-2.9624,-2.9275,-2.9015,-2.853,-2.7602,-2.7105,-2.6685,-2.588,-2.5115,-2.4351,-2.3629,-2.3041,-2.2793,-2.2832,-2.2539,-2.2227,-2.2168,-2.2129,-2.1934,-2.1709,-2.1328,-2.0986,-2.0575,-2.0245,-1.9923,-1.9687,-1.9036,-1.8948,-1.8877,-1.8948,-1.9027,-1.863,-1.831,-1.8149,-1.7908,-1.7342,-1.7172,-1.7747,-1.839,-1.863,-1.8868,-1.9186,-1.9353,-1.9353,-1.9631,-2.0042,-2.0101,-1.999,-1.9375,-3.9424,-3.9424,-3.9424,-3.9424,-3.9424,-3.9424,-3.9424,-3.9379,-3.9185,-3.8601,-3.7778,-3.6851,-3.6357,-3.6103,-3.5774,-3.5519,-3.5504,-3.5489,-3.5489,-3.5489,-3.5504,-3.5359,-3.4558,-3.3547,-3.2393,-3.1901,-3.0771,-2.9779,-2.9779,-2.9779,-2.9779,-2.9779,-2.9779,-2.9779,-2.9779,-2.9779,-2.9779,-2.9779,-2.9779,-2.9779,-2.9779,-2.9779,-2.9779,-2.9779,-2.9779,-2.9779,-2.9779,-2.9779,-2.9779,-2.9779,-2.9779,-2.9779,-2.9779,-2.9779,-2.9779,-2.9779,-2.9779,-2.9779,-2.9779,-2.9779,-2.9779,-2.9779,-2.9779,-2.9779,-2.9779,-2.9779,-2.9702,-2.9702,-2.9702,-2.9443,-2.8505,-2.8096,-2.7186,-2.6144,-2.5078,-2.4284,-2.3301,-2.2626,-2.2546,-2.2519,-2.2197,-2.1943,-2.1758,-2.1719,-2.1514,-2.1318,-2.1074,-2.082,-2.0684,-2.0489,-2.0489,-2.0333,-2.0245,-2.0323,-2.0489,-2.0079,-1.9678,-1.9678,-1.9353,-1.9195,-1.8868,-1.823,-1.823,-1.9027,-1.9599,-1.9923,-2.0001,-2.0001,-1.9835,-1.9678,-1.9946,-2.0081,-1.973,-1.9492,-1.9082,-3.9424,-3.9424,-3.9424,-3.9409,-3.9349,-3.9394,-3.9379,-3.92,-3.8601,-3.7734,-3.6776,-3.6447,-3.6103,-3.5699,-3.5534,-3.5504,-3.5489,-3.5489,-3.5489,-3.5489,-3.5489,-3.4986,-3.4124,-3.3101,-3.2177,-3.1193,-3.0355,-2.9779,-2.9779,-2.9779,-2.9779,-2.9779,-2.9779,-2.9779,-2.9779,-2.9779,-2.9779,-2.9779,-2.9779,-2.9779,-2.9779,-2.9779,-2.9779,-2.9779,-2.9779,-2.9779,-2.9779,-2.9779,-2.9779,-2.9779,-2.9779,-2.9779,-2.9779,-2.9779,-2.9779,-2.9779,-2.9779,-2.9779,-2.9779,-2.9779,-2.9779,-2.9779,-2.9779,-2.9779,-2.9779,-2.9779,-2.9779,-2.9779,-2.9779,-2.9767,-2.9263,-2.8743,-2.7584,-2.6257,-2.519,-2.4114,-2.3217,-2.2043,-2.1918,-2.1963,-2.1934,-2.1797,-2.1523,-2.1299,-2.1103,-2.0918,-2.0752,-2.0644,-2.0586,-2.0576,-2.0576,-2.0576,-2.0576,-2.0576,-2.0576,-2.0576,-2.0489,-2.0489,-2.0323,-2.0001,-1.9923,-1.9756,-1.9923,-2.0401,-2.0401,-2.0323,-2.0411,-2.0566,-2.0265,-1.9927,-1.9851,-1.9817,-1.9434,-1.9043,-1.8721,-3.9424,-3.9424,-3.9424,-3.9155,-3.8781,-3.8721,-3.8736,-3.8542,-3.7644,-3.6881,-3.6462,-3.6073,-3.5774,-3.5549,-3.5489,-3.5489,-3.5489,-3.5489,-3.5489,-3.5489,-3.5489,-3.4839,-3.3973,-3.3031,-3.2092,-3.1193,-3.0279,-2.9779,-2.9779,-2.9779,-2.9779,-2.9779,-2.9779,-2.9779,-2.9779,-2.9779,-2.9779,-2.9779,-2.9779,-2.9779,-2.9779,-2.9779,-2.9779,-2.9779,-2.9779,-2.9779,-2.9779,-2.9779,-2.9779,-2.9779,-2.9779,-2.9779,-2.9779,-2.9779,-2.9779,-2.9779,-2.9779,-2.9779,-2.9779,-2.9779,-2.9779,-2.9767,-2.9779,-2.9779,-2.9779,-2.9779,-2.9779,-2.9754,-2.9704,-2.9591,-2.9073,-2.9282,-2.8312,-2.6457,-2.5284,-2.4068,-2.3047,-2.169,-2.1035,-2.124,-2.1309,-2.1172,-2.0957,-2.0996,-2.085,-2.0771,-2.0654,-2.0615,-2.0576,-2.0576,-2.0576,-2.0576,-2.0576,-2.0576,-2.0576,-2.0576,-2.0576,-2.0566,-2.0566,-2.0411,-2.0489,-2.0576,-2.0566,-2.0489,-2.0566,-2.0566,-2.0498,-2.042,-2.0342,-2.0195,-1.9883,-1.9629,-1.9297,-1.8916,-1.8574,-3.8736,-3.8721,-3.8721,-3.8482,-3.8123,-3.8287,-3.8167,-3.7659,-3.6851,-3.6387,-3.6088,-3.5684,-3.5504,-3.5504,-3.5489,-3.5489,-3.5489,-3.5489,-3.5489,-3.5489,-3.5489,-3.4624,-3.3602,-3.2876,-3.1829,-3.0921,-3.0203,-2.9779,-2.9779,-2.9779,-2.9779,-2.9779,-2.9779,-2.9779,-2.9779,-2.9779,-2.9779,-2.9779,-2.9779,-2.9779,-2.9779,-2.9779,-2.9779,-2.9779,-2.9779,-2.9779,-2.9779,-2.9779,-2.9779,-2.9779,-2.9779,-2.9779,-2.9779,-2.9779,-2.9779,-2.9779,-2.9779,-2.9779,-2.9779,-2.9779,-2.9704,-2.9453,-2.9654,-2.9779,-2.9779,-2.9779,-2.9616,-2.9553,-2.9515,-2.9075,-2.8775,-2.9138,-2.7843,-2.592,-2.4668,-2.3559,-2.2313,-2.0909,-2.0781,-2.0937,-2.0889,-2.0693,-2.0576,-2.0605,-2.0635,-2.0605,-2.0576,-2.0576,-2.0576,-2.0576,-2.0576,-2.0576,-2.0576,-2.0576,-2.0576,-2.0576,-2.0576,-2.0576,-2.0576,-2.0576,-2.0576,-2.0576,-2.0576,-2.0576,-2.0576,-2.0527,-2.0361,-2.0244,-2.0107,-1.9834,-1.9482,-1.9258,-1.9102,-1.876,-1.8369,-3.7419,-3.7404,-3.7404,-3.7434,-3.7494,-3.7883,-3.7494,-3.6507,-3.6447,-3.6088,-3.5454,-3.5469,-3.5359,-3.5439,-3.5424,-3.5489,-3.5489,-3.5489,-3.5489,-3.5489,-3.5489,-3.4259,-3.3241,-3.2593,-3.1549,-3.0419,-2.9779,-2.9779,-2.9779,-2.9779,-2.9779,-2.9779,-2.9779,-2.9779,-2.9779,-2.9779,-2.9779,-2.9779,-2.9779,-2.9779,-2.9779,-2.9779,-2.9779,-2.9779,-2.9779,-2.9779,-2.9779,-2.9779,-2.9779,-2.9779,-2.9779,-2.9779,-2.9779,-2.9779,-2.9779,-2.9779,-2.9779,-2.9779,-2.9779,-2.9779,-2.949,-2.9252,-2.944,-2.9654,-2.9591,-2.9415,-2.9214,-2.9026,-2.89,-2.8449,-2.8113,-2.7223,-2.624,-2.4861,-2.3645,-2.2439,-2.1231,-2.0654,-2.0791,-2.083,-2.0723,-2.0605,-2.0576,-2.0576,-2.0576,-2.0576,-2.0576,-2.0576,-2.0576,-2.0576,-2.0576,-2.0576,-2.0576,-2.0576,-2.0576,-2.0576,-2.0576,-2.0576,-2.0576,-2.0576,-2.0576,-2.0576,-2.0576,-2.0576,-2.0576,-2.0508,-2.0391,-2.0127,-1.9814,-1.9502,-1.9199,-1.8984,-1.8848,-1.8467,-1.8115,-3.7404,-3.7404,-3.7404,-3.715,-3.6731,-3.6447,-3.6088,-3.5804,-3.5789,-3.5266,-3.4461,-3.5198,-3.5133,-3.4543,-3.5118,-3.5424,-3.5489,-3.5489,-3.5489,-3.5489,-3.5489,-3.4192,-3.3241,-3.2451,-3.1402,-3.0419,-2.9779,-2.9779,-2.9779,-2.9779,-2.9779,-2.9779,-2.9779,-2.9779,-2.9779,-2.9779,-2.9779,-2.9779,-2.9779,-2.9779,-2.9779,-2.9779,-2.9779,-2.9779,-2.9779,-2.9779,-2.9779,-2.9779,-2.9779,-2.9779,-2.9779,-2.9779,-2.9779,-2.9779,-2.9779,-2.9779,-2.9779,-2.9779,-2.9779,-2.9779,-2.9503,-2.9001,-2.9051,-2.8837,-2.875,-2.8624,-2.8561,-2.8448,-2.8089,-2.7631,-2.6907,-2.5977,-2.4871,-2.3579,-2.2632,-2.1963,-2.0878,-2.0605,-2.0732,-2.0713,-2.0605,-2.0605,-2.0576,-2.0576,-2.0576,-2.0576,-2.0576,-2.0576,-2.0576,-2.0576,-2.0576,-2.0576,-2.0576,-2.0576,-2.0576,-2.0576,-2.0576,-2.0576,-2.0576,-2.0576,-2.0576,-2.0576,-2.0576,-2.0576,-2.0576,-2.0537,-2.0478,-2.0117,-1.9639,-1.9316,-1.9014,-1.8799,-1.8484,-1.8232,-1.8008,-3.6656,-3.6656,-3.6656,-3.6432,-3.6073,-3.5669,-3.5279,-3.4986,-3.4905,-3.4691,-3.4624,-3.4758,-3.4758,-3.4839,-3.5279,-3.5489,-3.5489,-3.5489,-3.5489,-3.5489,-3.5489,-3.4192,-3.3185,-3.2451,-3.1402,-3.0419,-2.9779,-2.9779,-2.9779,-2.9779,-2.9779,-2.9779,-2.9779,-2.9779,-2.9779,-2.9779,-2.9779,-2.9779,-2.9779,-2.9779,-2.9779,-2.9779,-2.9779,-2.9779,-2.9779,-2.9779,-2.9779,-2.9779,-2.9779,-2.9779,-2.9779,-2.9779,-2.9779,-2.9779,-2.9779,-2.9779,-2.9779,-2.9779,-2.9754,-2.9515,-2.9151,-2.8725,-2.8411,-2.7959,-2.7921,-2.7883,-2.7896,-2.7858,-2.7358,-2.6761,-2.5849,-2.4939,-2.3552,-2.2273,-2.1921,-2.1572,-2.1083,-2.0664,-2.0586,-2.0586,-2.0576,-2.0576,-2.0576,-2.0576,-2.0576,-2.0576,-2.0576,-2.0576,-2.0576,-2.0576,-2.0576,-2.0576,-2.0576,-2.0576,-2.0576,-2.0576,-2.0576,-2.0576,-2.0576,-2.0576,-2.0576,-2.0576,-2.0576,-2.0576,-2.0576,-2.0439,-2.0225,-1.9873,-1.9443,-1.9092,-1.874,-1.8486,-1.8311,-1.8184,-1.8027,-3.5519,-3.5549,-3.5489,-3.5579,-3.5504,-3.5504,-3.5067,-3.4163,-3.4163,-3.4394,-3.4854,-3.4476,-3.4677,-3.4986,-3.5359,-3.5489,-3.5489,-3.5489,-3.5489,-3.5489,-3.5489,-3.4409,-3.3101,-3.2451,-3.1476,-3.0355,-2.9779,-2.9779,-2.9779,-2.9779,-2.9779,-2.9779,-2.9779,-2.9779,-2.9779,-2.9779,-2.9779,-2.9779,-2.9779,-2.9779,-2.9779,-2.9779,-2.9779,-2.9779,-2.9779,-2.9779,-2.9779,-2.9779,-2.9779,-2.9779,-2.9779,-2.9779,-2.9779,-2.9641,-2.9654,-2.9553,-2.9465,-2.939,-2.9289,-2.9063,-2.8599,-2.8084,-2.757,-2.7231,-2.7218,-2.7306,-2.7344,-2.684,-2.6274,-2.5429,-2.4487,-2.3668,-2.2531,-2.17,-2.1312,-2.1063,-2.0868,-2.0576,-2.0576,-2.0576,-2.0576,-2.0576,-2.0576,-2.0576,-2.0576,-2.0576,-2.0576,-2.0576,-2.0576,-2.0576,-2.0576,-2.0576,-2.0576,-2.0576,-2.0576,-2.0576,-2.0576,-2.0576,-2.0576,-2.0576,-2.0576,-2.0576,-2.0576,-2.0576,-2.0547,-2.0127,-1.9824,-1.9561,-1.9228,-1.8682,-1.835,-1.8125,-1.8018,-1.8027,-1.8027,-3.5489,-3.5489,-3.5489,-3.5489,-3.5489,-3.5489,-3.5344,-3.5052,-3.4327,-3.3739,-3.3616,-3.4476,-3.4824,-3.4624,-3.5279,-3.5489,-3.5489,-3.5489,-3.5489,-3.5489,-3.5489,-3.4409,-3.2961,-3.2522,-3.1476,-3.0355,-2.9779,-2.9779,-2.9779,-2.9779,-2.9779,-2.9779,-2.9779,-2.9779,-2.9779,-2.9779,-2.9779,-2.9779,-2.9779,-2.9779,-2.9779,-2.9779,-2.9779,-2.9779,-2.9779,-2.9779,-2.9779,-2.9779,-2.9779,-2.9779,-2.9779,-2.9779,-2.9779,-2.9377,-2.9176,-2.9076,-2.8837,-2.8737,-2.8612,-2.8448,-2.8072,-2.7708,-2.7293,-2.6942,-2.6779,-2.6829,-2.6594,-2.592,-2.5171,-2.42,-2.3338,-2.2499,-2.1745,-2.1231,-2.0867,-2.0789,-2.0644,-2.0644,-2.0644,-2.0576,-2.0576,-2.0576,-2.0576,-2.0576,-2.0576,-2.0576,-2.0576,-2.0576,-2.0576,-2.0576,-2.0576,-2.0576,-2.0576,-2.0576,-2.0576,-2.0576,-2.0576,-2.0576,-2.0576,-2.0576,-2.0576,-2.0576,-2.0576,-2.0576,-2.0469,-2.0098,-1.9766,-1.9502,-1.9092,-1.8467,-1.8174,-1.8037,-1.8008,-1.8018,-1.8018,-3.5489,-3.5489,-3.5489,-3.5213,-3.4905,-3.4839,-3.4624,-3.4177,-3.4027,-3.3725,-3.3394,-3.4259,-3.4691,-3.461,-3.5279,-3.5489,-3.5489,-3.5489,-3.5489,-3.5489,-3.5279,-3.4177,-3.331,-3.2522,-3.1341,-3.0216,-2.9856,-2.9779,-2.9779,-2.9779,-2.9779,-2.9779,-2.9779,-2.9779,-2.9779,-2.9779,-2.9779,-2.9779,-2.9779,-2.9779,-2.9779,-2.9779,-2.9779,-2.9779,-2.9779,-2.9779,-2.9779,-2.9779,-2.9779,-2.9779,-2.9779,-2.9541,-2.9415,-2.9114,-2.8825,-2.8586,-2.8335,-2.8109,-2.8021,-2.7833,-2.7607,-2.7331,-2.6979,-2.6697,-2.6647,-2.6628,-2.6628,-2.6042,-2.5313,-2.4432,-2.3463,-2.2563,-2.1669,-2.1011,-2.1231,-2.1451,-2.1155,-2.0934,-2.0789,-2.0576,-2.0576,-2.0576,-2.0576,-2.0576,-2.0576,-2.0576,-2.0576,-2.0576,-2.0576,-2.0576,-2.0576,-2.0576,-2.0576,-2.0576,-2.0576,-2.0576,-2.0576,-2.0576,-2.0576,-2.0576,-2.0576,-2.0576,-2.0576,-2.0576,-2.0459,-2.0156,-1.9844,-1.9482,-1.8945,-1.832,-1.8125,-1.8008,-1.8008,-1.8008,-1.8008,-3.5489,-3.5489,-3.5489,-3.492,-3.4109,-3.4163,-3.3754,-3.3171,-3.3822,-3.4245,-3.4177,-3.4245,-3.4758,-3.5213,-3.5504,-3.5504,-3.5489,-3.5489,-3.5489,-3.5489,-3.5489,-3.4259,-3.3241,-3.2451,-3.1267,-3.0355,-2.9856,-2.9779,-2.9779,-2.9779,-2.9779,-2.9779,-2.9779,-2.9779,-2.9779,-2.9779,-2.9779,-2.9779,-2.9779,-2.9779,-2.9779,-2.9779,-2.9779,-2.9779,-2.9779,-2.9779,-2.9779,-2.9779,-2.9779,-2.9704,-2.9628,-2.9252,-2.8888,-2.8586,-2.8335,-2.8047,-2.777,-2.7695,-2.767,-2.7356,-2.7231,-2.703,-2.6735,-2.6559,-2.6533,-2.6452,-2.6452,-2.6164,-2.5511,-2.4492,-2.3526,-2.2638,-2.1669,-2.1298,-2.1745,-2.2178,-2.1811,-2.1375,-2.1078,-2.0789,-2.0722,-2.0722,-2.0576,-2.0576,-2.0576,-2.0576,-2.0576,-2.0576,-2.0576,-2.0576,-2.0576,-2.0576,-2.0576,-2.0576,-2.0576,-2.0576,-2.0576,-2.0576,-2.0576,-2.0576,-2.0576,-2.0576,-2.0576,-2.0576,-2.041,-2.0176,-1.9775,-1.9365,-1.8789,-1.8223,-1.8086,-1.8008,-1.8008,-1.8008,-1.8008,-3.5489,-3.5489,-3.5489,-3.4905,-3.4177,-3.4758,-3.4624,-3.3959,-3.4706,-3.5213,-3.5133,-3.5213,-3.5359,-3.5489,-3.5489,-3.5489,-3.5489,-3.5489,-3.5489,-3.5489,-3.5489,-3.4274,-3.3115,-3.2451,-3.1415,-3.0508,-2.9856,-2.9869,-3.0139,-2.9998,-2.9856,-2.9998,-2.9934,-2.9934,-2.9869,-2.9856,-2.9934,-2.9856,-2.9779,-2.9779,-2.9779,-2.9779,-2.9779,-2.9779,-2.9779,-2.9779,-2.9779,-2.9779,-2.9779,-2.9666,-2.9352,-2.8863,-2.8373,-2.7971,-2.7695,-2.7469,-2.7193,-2.7042,-2.6929,-2.6854,-2.6766,-2.6728,-2.6546,-2.6533,-2.6521,-2.6521,-2.6452,-2.6383,-2.5581,-2.4337,-2.3368,-2.285,-2.2113,-2.2264,-2.2627,-2.2999,-2.2999,-2.2328,-2.1811,-2.1451,-2.1078,-2.0867,-2.0576,-2.0576,-2.0576,-2.0576,-2.0576,-2.0576,-2.0576,-2.0576,-2.0576,-2.0576,-2.0576,-2.0576,-2.0576,-2.0576,-2.0576,-2.0576,-2.0576,-2.0576,-2.0576,-2.0576,-2.0576,-2.0576,-2.0439,-2.0225,-1.9795,-1.9277,-1.8779,-1.8291,-1.8105,-1.8008,-1.8008,-1.8008,-1.8008]},{"header":{"parameterUnit":"m.s-1","parameterCategory":1,"la1":31.0,"la2":29.5877,"lo1":-88.7671,"lo2":-86.6584,"dy":0.0162,"dx":0.0185,"nx":115,"ny":88,"refTime":"2024-07-29T18:00:00:Z","depth":0,"parameterNumber":3,"parameterNumberName":"V-component_of_WINDS"},"data":[0.0,0.0,0.0,0.0,0.0,0.0,0.0,0.0,0.0,0.0,0.0,0.0,0.0,0.0,0.0,0.0,0.0,0.0,0.0,0.0,0.0,0.0,0.0,0.0,0.0,0.0,0.0,0.0,0.0,0.0,0.0,0.0,0.0,0.0,0.0,0.0,0.0,0.0,0.0,0.0,0.0,0.0,0.0,0.0,0.0,0.0,0.0,0.0,0.0,0.0,0.0,0.0,0.0,0.0,0.0,0.0,0.0,0.0,0.0,0.0,0.0,0.0,0.0,0.0,0.0,0.0,0.0,0.0,0.0,0.0,0.0,0.0,0.0,0.0,0.0,0.0,0.0,0.0,0.0,0.0,0.0,0.0,0.0,0.0,0.0,0.0,0.0,0.0,0.0,0.0,0.0,0.0,0.0,0.0,0.0,0.0,0.0,0.0,0.0,0.0,0.0,0.0,0.0,0.0,0.0,0.0,0.0,0.0,0.0,0.0,0.0,0.0,0.0,0.0,0.0,0.0,0.0,0.0,0.0,0.0,0.0,0.0,0.0,0.0,0.0,0.0,0.0,0.0,0.0,0.0,0.0,0.0,0.0,0.0,0.0,0.0,0.0,0.0,0.0,0.0,0.0,0.0,0.0,0.0,0.0,0.0,0.0,0.0,0.0,0.0,0.0,0.0,0.0,0.0,0.0,0.0,0.0,0.0,0.0,0.0,0.0,0.0,0.0,0.0,0.0,0.0,0.0,0.0,0.0,0.0,0.0,0.0,0.0,0.0,0.0,0.0,0.0,0.0,0.0,0.0,0.0,0.0,0.0,0.0,0.0,0.0,0.0,0.0,0.0,0.0,0.0,0.0,0.0,0.0,0.0,0.0,0.0,0.0,0.0,0.0,0.0,0.0,0.0,0.0,0.0,0.0,0.0,0.0,0.0,0.0,0.0,0.0,0.0,0.0,0.0,0.0,0.0,0.0,0.0,0.0,0.0,0.0,0.0,0.0,0.0,0.0,0.0,0.0,0.0,0.0,0.0,0.0,0.0,0.0,0.0,0.0,0.0,0.0,0.0,0.0,0.0,0.0,0.0,0.0,0.0,0.0,0.0,0.0,0.0,0.0,0.0,0.0,0.0,0.0,0.0,0.0,0.0,0.0,0.0,0.0,0.0,0.0,0.0,0.0,0.0,0.0,0.0,0.0,0.0,0.0,0.0,0.0,0.0,0.0,0.0,0.0,0.0,0.0,0.0,0.0,0.0,0.0,0.0,0.0,0.0,0.0,0.0,0.0,0.0,0.0,0.0,0.0,0.0,0.0,0.0,0.0,0.0,0.0,0.0,0.0,0.0,0.0,0.0,0.0,0.0,0.0,0.0,0.0,0.0,0.0,0.0,0.0,0.0,0.0,0.0,0.0,0.0,0.0,0.0,0.0,0.0,0.0,0.0,0.0,0.0,0.0,0.0,0.0,0.0,0.0,0.0,0.0,0.0,0.0,0.0,0.0,0.0,0.0,0.0,0.0,0.0,0.0,0.0,0.0,0.0,0.0,0.0,0.0,0.0,0.0,0.0,0.0,0.0,0.0,0.0,0.0,0.0,0.0,0.0,0.0,0.0,0.0,0.0,0.0,0.0,0.0,0.0,0.0,0.0,0.0,0.0,0.0,0.0,0.0,0.0,0.0,0.0,0.0,0.0,0.0,0.0,0.0,0.0,0.0,0.0,0.0,0.0,0.0,0.0,0.0,0.0,0.0,0.0,0.0,0.0,0.0,0.0,0.0,0.0,0.0,0.0,0.0,0.0,0.0,0.0,0.0,0.0,0.0,0.0,0.0,0.0,0.0,0.0,0.0,0.0,0.0,0.0,0.0,0.0,0.0,0.0,0.0,0.0,0.0,0.0,0.0,0.0,0.0,0.0,0.0,0.0,0.0,0.0,0.0,0.0,0.0,0.0,0.0,0.0,0.0,0.0,0.0,0.0,0.0,0.0,0.0,0.0,0.0,0.0,0.0,0.0,0.0,0.0,0.0,0.0,0.0,0.0,0.0,0.0,0.0,0.0,0.0,0.0,0.0,0.0,0.0,0.0,0.0,0.0,0.0,0.0,0.0,0.0,0.0,0.0,0.0,0.0,0.0,0.0,0.0,0.0,0.0,0.0,0.0,0.0,0.0,0.0,0.0,0.0,0.0,0.0,0.0,0.0,0.0,0.0,0.0,0.0,0.0,0.0,0.0,0.0,0.0,0.0,0.0,0.0,0.0,0.0,0.0,0.0,0.0,0.0,0.0,0.0,0.0,0.0,0.0,0.0,0.0,0.0,0.0,0.0,0.0,0.0,0.0,0.0,0.0,0.0,0.0,0.0,0.0,0.0,0.0,0.0,0.0,0.0,0.0,0.0,0.0,0.0,0.0,0.0,0.0,0.0,0.0,0.0,0.0,0.0,0.0,0.0,0.0,0.0,0.0,0.0,0.0,0.0,0.0,0.0,0.0,0.0,0.0,0.0,0.0,0.0,0.0,0.0,0.0,0.0,0.0,0.0,0.0,0.0,0.0,0.0,0.0,0.0,0.0,0.0,0.0,0.0,0.0,0.0,0.0,0.0,0.0,0.0,0.0,0.0,0.0,0.0,0.0,0.0,0.0,0.0,0.0,0.0,0.0,0.0,0.0,0.0,0.0,0.0,0.0,0.0,0.0,0.0,0.0,0.0,0.0,0.0,0.0,0.0,0.0,0.0,0.0,0.0,0.0,0.0,0.0,0.0,0.0,0.0,0.0,0.0,0.0,0.0,0.0,0.0,0.0,0.0,0.0,0.0,0.0,0.0,0.0,0.0,0.0,0.0,0.0,0.0,0.0,0.0,0.0,0.0,0.0,0.0,0.0,0.0,0.0,0.0,0.0,0.0,0.0,0.0,0.0,0.0,0.0,0.0,0.0,0.0,0.0,0.0,0.0,0.0,0.0,0.0,0.0,0.0,0.0,0.0,0.0,0.0,0.0,0.0,0.0,0.0,0.0,0.0,0.0,0.0,0.0,0.0,0.0,0.0,0.0,0.0,0.0,0.0,0.0,0.0,0.0,0.0,0.0,0.0,0.0,0.0,0.0,0.0,0.0,0.0,0.0,0.0,0.0,0.0,0.0,0.0,0.0,0.0,0.0,0.0,0.0,0.0,0.0,0.0,0.0,0.0,0.0,0.0,0.0,0.0,0.0,0.0,0.0,0.0,0.0,0.0,0.0,0.0,0.0,0.0,0.0,0.0,0.0,0.0,0.0,0.0,0.0,0.0,0.0,0.0,0.0,0.0,0.0,0.0,0.0,0.0,0.0,0.0,0.0,0.0,0.0,0.0,0.0,0.0,0.0,0.0,0.0,0.0,0.0,0.0,0.0,0.0,0.0,0.0,0.0,0.0,0.0,0.0,0.0,0.0,0.0,0.0,0.0,0.0,0.0,0.0,0.0,0.0,0.0,0.0,0.0,0.0,0.0,0.0,0.0,0.0,0.0,0.0,0.0,0.0,0.0,0.0,0.0,0.0,0.0,0.0,0.0,0.0,0.0,0.0,0.0,0.0,0.0,0.0,0.0,0.0,0.0,0.0,0.0,0.0,0.0,0.0,0.0,0.0,0.0,0.0,0.0,0.0,0.0,0.0,0.0,0.0,0.0,0.0,0.0,0.0,0.0,0.0,0.0,0.0,0.0,0.0,0.0,0.0,0.0,0.0,0.0,0.0,0.0,0.0,0.0,0.0,0.0,0.0,0.0,0.0,0.0,0.0,0.0,0.0,0.0,0.0,0.0,0.0,0.0,0.0,0.0,0.0,0.0,0.0,0.0,0.0,0.0,0.0,0.0,0.0,0.0,0.0,0.0,0.0,0.0,0.0,0.0,0.0,0.0,0.0,0.0,0.0,0.0,0.0,0.0,0.0,0.0,0.0,0.0,0.0,0.0,0.0,0.0,0.0,0.0,0.0,0.0,0.0,0.0,0.0,0.0,0.0,0.0,0.0,0.0,0.0,0.0,0.0,0.0,0.0,0.0,0.0,0.0,0.0,0.0,0.0,0.0,0.0,0.0,0.0,0.0,0.0,0.0,0.0,0.0,0.0,0.0,0.0,0.0,0.0,0.0,0.0,0.0,0.0,0.0,0.0,0.0,0.0,0.0,0.0,0.0,0.0,0.0,0.0,0.0,0.0,0.0,0.0,0.0,0.0,0.0,0.0,0.0,0.0,0.0,0.0,0.0,0.0,0.0,0.0,0.0,0.0,0.0,0.0,0.0,0.0,0.0,0.0,0.0,0.0,0.0,-0.5156,0.0,0.0,0.0,0.0,0.0,0.0,0.0,0.0,0.0,0.0,0.0,0.0,0.0,0.0,0.0,0.0,0.0,0.0,0.0,0.0,0.0,0.0,0.0,0.0,0.0,0.0,0.0,0.0,0.0,0.0,0.0,0.0,0.0,0.0,0.0,0.0,0.0,0.0,0.0,0.0,0.0,0.0,0.0,0.0,0.0,0.0,0.0,0.0,0.0,0.0,0.0,0.0,0.0,0.0,0.0,0.0,0.0,0.0,0.0,0.0,0.0,0.0,0.0,0.0,0.0,0.0,0.0,0.0,0.0,0.0,0.0,0.0,0.0,0.0,0.0,0.0,0.0,0.0,0.0,0.0,0.0,0.0,0.0,0.0,0.0,0.0,0.0,0.0,0.0,0.0,0.0,0.0,0.0,0.0,0.0,0.0,0.0,0.0,0.0,0.0,0.0,0.0,0.0,0.0,0.0,0.0,0.0,0.0,0.0,0.0,-0.6709,-0.6117,-0.6064,-0.5771,-0.5146,0.0,0.0,0.0,0.0,0.0,0.0,0.0,0.0,0.0,0.0,0.0,0.0,0.0,0.0,0.0,0.0,0.0,0.0,0.0,0.0,0.0,0.0,0.0,0.0,0.0,0.0,0.0,0.0,0.0,0.0,0.0,0.0,0.0,0.0,0.0,0.0,0.0,0.0,0.0,0.0,0.0,0.0,0.0,0.0,0.0,0.0,0.0,0.0,0.0,0.0,0.0,0.0,0.0,0.0,0.0,0.0,0.0,0.0,0.0,0.0,0.0,0.0,0.0,0.0,0.0,0.0,0.0,0.0,0.0,0.0,0.0,0.0,0.0,0.0,0.0,0.0,0.0,0.0,0.0,0.0,0.0,0.0,0.0,0.0,0.0,0.0,0.0,0.0,0.0,0.0,0.0,0.0,0.0,0.0,0.0,0.0,0.0,0.0,0.0,0.0,0.0,0.0,0.0,0.0,0.0,0.0,0.0,0.0,0.0,0.0,0.0,0.0,-0.6244,-0.6025,-0.5605,0.0,0.0,0.0,0.0,0.0,0.0,0.0,0.0,0.0,0.0,0.0,0.0,0.0,0.0,0.0,0.0,0.0,0.0,0.0,0.0,0.0,0.0,0.0,0.0,0.0,0.0,0.0,0.0,0.0,0.0,0.0,0.0,0.0,0.0,0.0,0.0,0.0,0.0,0.0,0.0,0.0,0.0,0.0,0.0,0.0,0.0,0.0,0.0,0.0,0.0,0.0,0.0,0.0,0.0,0.0,0.0,0.0,0.0,0.0,0.0,0.0,0.0,0.0,0.0,0.0,0.0,0.0,0.0,0.0,0.0,0.0,0.0,0.0,0.0,0.0,0.0,0.0,0.0,0.0,0.0,0.0,0.0,0.0,0.0,0.0,0.0,0.0,0.0,0.0,0.0,0.0,0.0,0.0,0.0,0.0,0.0,0.0,0.0,0.0,0.0,0.0,0.0,0.0,0.0,0.0,0.0,0.0,0.0,0.0,0.0,-0.6768,-0.7491,-0.7511,0.0,-0.7009,0.0,0.0,0.0,0.0,0.0,0.0,0.0,0.0,0.0,0.0,0.0,0.0,0.0,0.0,0.0,0.0,0.0,0.0,0.0,0.0,0.0,0.0,0.0,0.0,0.0,0.0,0.0,0.0,0.0,0.0,0.0,0.0,0.0,0.0,0.0,0.0,0.0,0.0,0.0,0.0,0.0,0.0,0.0,0.0,0.0,0.0,0.0,0.0,0.0,0.0,0.0,0.0,0.0,0.0,0.0,0.0,0.0,0.0,0.0,0.0,0.0,0.0,0.0,0.0,0.0,0.0,0.0,0.0,0.0,0.0,0.0,0.0,0.0,0.0,0.0,0.0,0.0,0.0,0.0,0.0,0.0,0.0,0.0,0.0,0.0,0.0,0.0,0.0,0.0,0.0,0.0,0.0,0.0,0.0,0.0,0.0,0.0,0.0,0.0,0.0,0.0,0.0,0.0,0.0,0.0,0.0,0.0,0.0,0.0,0.0,0.0,-0.7353,-0.7335,-0.7248,0.0,0.0,0.0,0.0,0.0,0.0,0.0,0.0,0.0,0.0,0.0,0.0,0.0,0.0,0.0,0.0,0.0,0.0,0.0,0.0,0.0,0.0,0.0,0.0,0.0,0.0,0.0,0.0,0.0,0.0,0.0,0.0,0.0,0.0,0.0,0.0,0.0,0.0,0.0,0.0,0.0,0.0,0.0,0.0,0.0,0.0,0.0,0.0,0.0,0.0,0.0,0.0,0.0,0.0,0.0,0.0,0.0,0.0,0.0,0.0,0.0,0.0,0.0,0.0,0.0,0.0,0.0,0.0,0.0,0.0,0.0,0.0,0.0,0.0,0.0,0.0,0.0,0.0,0.0,0.0,0.0,0.0,0.0,0.0,0.0,0.0,0.0,0.0,0.0,0.0,0.0,0.0,0.0,0.0,0.0,0.0,0.0,0.0,0.0,0.0,0.0,0.0,0.0,0.0,0.0,0.0,0.0,0.0,0.0,0.0,-0.6797,0.0,-0.7607,-0.7617,-0.7461,-0.7119,0.0,0.0,0.0,0.0,0.0,0.0,0.0,0.0,0.0,0.0,0.0,0.0,0.0,0.0,0.0,0.0,0.0,0.0,0.0,0.0,0.0,0.0,0.0,0.0,0.0,0.0,0.0,0.0,0.0,0.0,0.0,0.0,0.0,0.0,0.0,0.0,0.0,0.0,0.0,0.0,0.0,0.0,0.0,0.0,0.0,0.0,0.0,0.0,0.0,0.0,0.0,0.0,0.0,0.0,0.0,0.0,0.0,0.0,0.0,0.0,0.0,0.0,0.0,0.0,0.0,0.0,0.0,0.0,0.0,0.0,0.0,0.0,0.0,0.0,0.0,0.0,0.0,0.0,0.0,0.0,0.0,0.0,0.0,0.0,0.0,0.0,0.0,0.0,0.0,0.0,0.0,0.0,0.0,0.0,0.0,0.0,0.0,0.0,0.0,0.0,0.0,0.0,0.0,0.0,0.0,0.0,0.0,0.0,0.0,-0.7676,-0.7686,-0.8877,-0.8926,-0.835,0.0,0.0,0.0,0.0,0.0,0.0,0.0,0.0,0.0,0.0,0.0,0.0,0.0,0.0,0.0,0.0,0.0,0.0,0.0,0.0,0.0,0.0,0.0,0.0,0.0,0.0,0.0,0.0,0.0,0.0,0.0,0.0,0.0,0.0,0.0,0.0,0.0,0.0,0.0,0.0,0.0,0.0,0.0,0.0,0.0,0.0,0.0,0.0,0.0,0.0,0.0,0.0,0.0,0.0,0.0,0.0,0.0,0.0,0.0,0.0,0.0,0.0,0.0,0.0,0.0,0.0,0.0,0.0,0.0,0.0,0.0,0.0,0.0,0.0,0.0,0.0,0.0,0.0,0.0,0.0,0.0,0.0,0.0,0.0,0.0,0.0,0.0,0.0,0.0,0.0,0.0,0.0,0.0,0.0,0.0,0.0,0.0,0.0,0.0,0.0,0.0,0.0,0.0,0.0,0.0,0.0,0.0,0.0,0.0,-0.6484,-0.6895,-0.8319,0.0,-0.8989,-0.8276,0.0,0.0,0.0,0.0,0.0,0.0,0.0,0.0,0.0,0.0,0.0,0.0,0.0,0.0,0.0,0.0,0.0,0.0,0.0,0.0,0.0,0.0,0.0,0.0,0.0,0.0,0.0,0.0,0.0,0.0,0.0,0.0,0.0,0.0,0.0,0.0,0.0,0.0,0.0,0.0,0.0,0.0,0.0,0.0,0.0,0.0,0.0,0.0,0.0,0.0,0.0,0.0,0.0,0.0,0.0,0.0,0.0,0.0,0.0,0.0,0.0,0.0,0.0,0.0,0.0,0.0,0.0,0.0,0.0,0.0,0.0,0.0,0.0,0.0,0.0,0.0,0.0,0.0,0.0,0.0,0.0,0.0,0.0,0.0,0.0,0.0,0.0,0.0,0.0,0.0,0.0,0.0,0.0,0.0,0.0,0.0,0.0,0.0,0.0,0.0,0.0,0.0,0.0,0.0,0.0,0.0,0.0,0.0,0.0,-0.6795,0.0,-0.9829,0.0,-0.9499,-0.8531,0.0,0.0,0.0,0.0,0.0,0.0,0.0,0.0,0.0,0.0,0.0,0.0,0.0,0.0,0.0,0.0,0.0,0.0,0.0,0.0,0.0,0.0,0.0,0.0,0.0,0.0,0.0,0.0,0.0,0.0,0.0,0.0,0.0,0.0,0.0,0.0,0.0,0.0,0.0,0.0,0.0,0.0,0.0,0.0,0.0,0.0,0.0,0.0,0.0,0.0,0.0,0.0,0.0,0.0,0.0,0.0,0.0,0.0,0.0,0.0,0.0,0.0,0.0,0.0,0.0,0.0,0.0,0.0,0.0,0.0,0.0,0.0,0.0,0.0,0.0,0.0,0.0,0.0,0.0,0.0,0.0,0.0,0.0,0.0,0.0,0.0,0.0,0.0,0.0,0.0,0.0,0.0,0.0,0.0,0.0,0.0,0.0,0.0,0.0,0.0,0.0,0.0,0.0,0.0,0.0,0.0,0.0,0.0,-0.7383,-1.0127,-1.1788,-1.2096,-1.1171,-1.0552,-0.9159,0.0,0.0,0.0,0.0,0.0,0.0,0.0,0.0,0.0,0.0,0.0,0.0,0.0,0.0,0.0,0.0,0.0,0.0,0.0,0.0,0.0,0.0,0.0,0.0,0.0,0.0,0.0,0.0,0.0,0.0,0.0,0.0,0.0,0.0,0.0,0.0,0.0,0.0,0.0,0.0,0.0,0.0,0.0,0.0,0.0,0.0,0.0,0.0,0.0,0.0,0.0,0.0,0.0,0.0,0.0,0.0,0.0,0.0,0.0,0.0,0.0,0.0,0.0,0.0,0.0,0.0,0.0,0.0,0.0,0.0,0.0,0.0,0.0,0.0,0.0,0.0,0.0,0.0,0.0,0.0,0.0,0.0,0.0,0.0,0.0,0.0,0.0,0.0,0.0,0.0,0.0,0.0,0.0,0.0,0.0,0.0,0.0,0.0,0.0,0.0,0.0,0.0,0.0,0.0,0.0,0.0,0.0,0.0,0.0,-0.9574,-1.0758,-1.2071,-1.331,-1.1069,-0.9987,0.0,0.0,0.0,0.0,0.0,0.0,0.0,0.0,0.0,0.0,0.0,0.0,0.0,0.0,0.0,0.0,0.0,0.0,0.0,0.0,0.0,0.0,0.0,0.0,0.0,0.0,0.0,0.0,0.0,0.0,0.0,0.0,0.0,0.0,0.0,0.0,0.0,0.0,0.0,0.0,0.0,0.0,0.0,0.0,0.0,0.0,0.0,0.0,0.0,0.0,0.0,0.0,0.0,0.0,0.0,0.0,0.0,0.0,0.0,0.0,0.0,0.0,0.0,0.0,0.0,0.0,0.0,0.0,0.0,0.0,0.0,0.0,0.0,0.0,0.0,0.0,0.0,0.0,0.0,0.0,0.0,0.0,0.0,0.0,0.0,0.0,0.0,0.0,0.0,0.0,0.0,0.0,0.0,0.0,0.0,0.0,0.0,0.0,0.0,0.0,0.0,0.0,0.0,0.0,0.0,0.0,0.0,0.0,0.0,-1.2,-1.2815,-1.3778,-1.4943,-1.2555,-1.1326,-1.1462,0.0,0.0,0.0,0.0,0.0,0.0,0.0,0.0,0.0,0.0,0.0,0.0,0.0,0.0,0.0,0.0,0.0,0.0,0.0,0.0,0.0,0.0,0.0,0.0,0.0,0.0,0.0,0.0,0.0,0.0,0.0,0.0,0.0,0.0,0.0,0.0,0.0,0.0,0.0,0.0,0.0,0.0,0.0,0.0,0.0,0.0,0.0,0.0,0.0,0.0,0.0,0.0,0.0,0.0,0.0,0.0,0.0,0.0,0.0,0.0,0.0,0.0,0.0,0.0,0.0,0.0,0.0,0.0,0.0,0.0,0.0,0.0,0.0,0.0,0.0,0.0,0.0,0.0,0.0,0.0,0.0,0.0,0.0,0.0,0.0,0.0,0.0,0.0,0.0,0.0,0.0,0.0,0.0,0.0,0.0,0.0,0.0,0.0,0.0,0.0,0.0,0.0,0.0,0.0,0.0,0.0,0.0,0.0,-1.6522,-1.72,-1.6974,-1.5932,-1.479,-1.3141,0.0,0.0,0.0,0.0,0.0,0.0,0.0,0.0,0.0,0.0,0.0,0.0,0.0,0.0,0.0,0.0,0.0,0.0,0.0,0.0,0.0,0.0,0.0,0.0,0.0,0.0,0.0,0.0,0.0,0.0,0.0,0.0,0.0,0.0,0.0,0.0,0.0,0.0,0.0,0.0,0.0,0.0,0.0,0.0,0.0,0.0,0.0,0.0,0.0,0.0,0.0,0.0,0.0,0.0,0.0,0.0,0.0,0.0,0.0,0.0,0.0,0.0,0.0,0.0,0.0,0.0,0.0,0.0,0.0,0.0,0.0,0.0,0.0,0.0,0.0,0.0,0.0,0.0,0.0,0.0,0.0,0.0,0.0,0.0,0.0,0.0,0.0,0.0,0.0,0.0,0.0,0.0,0.0,0.0,0.0,0.0,0.0,0.0,0.0,0.0,0.0,0.0,0.0,0.0,0.0,0.0,0.0,0.0,0.0,-1.7099,-1.8468,-1.8844,-1.8141,-1.6283,-1.4425,0.0,0.0,0.0,0.0,0.0,0.0,0.0,0.0,0.0,0.0,0.0,0.0,0.0,0.0,0.0,0.0,0.0,0.0,0.0,0.0,0.0,0.0,0.0,0.0,0.0,0.0,0.0,0.0,0.0,0.0,0.0,0.0,0.0,0.0,0.0,0.0,0.0,0.0,0.0,0.0,0.0,0.0,0.0,0.0,0.0,0.0,0.0,0.0,0.0,0.0,0.0,0.0,0.0,0.0,0.0,0.0,0.0,0.0,0.0,0.0,0.0,0.0,0.0,0.0,0.0,0.0,0.0,0.0,0.0,0.0,0.0,0.0,0.0,0.0,0.0,0.0,0.0,0.0,0.0,0.0,0.0,0.0,0.0,0.0,0.0,0.0,0.0,0.0,0.0,0.0,0.0,0.0,0.0,0.0,0.0,0.0,0.0,0.0,0.0,0.0,0.0,0.0,0.0,0.0,0.0,0.0,0.0,0.0,-1.5932,-1.8355,-1.9786,-2.0263,-1.9723,-1.8028,-1.5982,0.0,0.0,0.0,0.0,0.0,0.0,0.0,0.0,0.0,0.0,0.0,0.0,0.0,0.0,0.0,0.0,0.0,0.0,0.0,0.0,0.0,0.0,0.0,0.0,0.0,0.0,0.0,0.0,0.0,0.0,0.0,0.0,0.0,0.0,0.0,0.0,0.0,0.0,0.0,0.0,0.0,0.0,0.0,0.0,0.0,0.0,0.0,0.0,0.0,0.0,0.0,0.0,0.0,0.0,0.0,0.0,0.0,0.0,0.0,0.0,0.0,0.0,0.0,0.0,0.0,0.0,0.0,0.0,0.0,0.0,0.0,0.0,0.0,0.0,0.0,0.0,0.0,0.0,0.0,0.0,0.0,0.0,0.0,0.0,0.0,0.0,0.0,0.0,0.0,0.0,0.0,0.0,0.0,0.0,0.0,0.0,0.0,0.0,0.0,0.0,0.0,0.0,0.0,0.0,0.0,0.0,0.0,0.0,-1.7149,-1.9748,-2.0966,-2.1317,-2.0806,-1.9635,-1.7488,0.0,0.0,0.0,0.0,0.0,0.0,0.0,0.0,0.0,0.0,0.0,0.0,0.0,0.0,0.0,0.0,0.0,0.0,0.0,0.0,0.0,0.0,0.0,0.0,0.0,0.0,0.0,0.0,0.0,0.0,0.0,0.0,0.0,0.0,0.0,0.0,0.0,0.0,0.0,0.0,0.0,0.0,0.0,0.0,0.0,0.0,0.0,0.0,0.0,0.0,0.0,0.0,0.0,0.0,0.0,0.0,0.0,0.0,0.0,0.0,0.0,0.0,0.0,0.0,0.0,0.0,0.0,0.0,0.0,0.0,0.0,0.0,0.0,0.0,0.0,0.0,0.0,0.0,0.0,0.0,0.0,0.0,0.0,0.0,0.0,0.0,0.0,0.0,0.0,0.0,0.0,0.0,0.0,0.0,0.0,0.0,0.0,0.0,0.0,0.0,0.0,0.0,0.0,0.0,0.0,0.0,0.0,0.0,-1.7928,-1.9773,-2.133,-2.187,-2.1317,-1.9836,-1.7664,0.0,0.0,0.0,0.0,0.0,0.0,0.0,0.0,0.0,0.0,0.0,0.0,0.0,0.0,0.0,0.0,0.0,0.0,0.0,0.0,0.0,0.0,0.0,0.0,0.0,0.0,0.0,0.0,0.0,0.0,0.0,0.0,0.0,0.0,0.0,0.0,0.0,0.0,0.0,0.0,0.0,0.0,0.0,0.0,0.0,0.0,0.0,0.0,-1.0098,0.0,0.0,0.0,0.0,0.0,0.0,0.0,0.0,0.0,0.0,0.0,0.0,0.0,0.0,0.0,0.0,0.0,0.0,0.0,0.0,0.0,0.0,0.0,0.0,0.0,0.0,0.0,0.0,0.0,0.0,0.0,0.0,0.0,0.0,0.0,0.0,0.0,0.0,0.0,0.0,0.0,0.0,0.0,0.0,0.0,0.0,0.0,0.0,0.0,0.0,0.0,0.0,0.0,0.0,0.0,0.0,0.0,0.0,0.0,-1.8555,-2.0175,-2.1594,-2.2046,-2.1481,-2.0388,-1.8367,0.0,0.0,0.0,0.0,0.0,0.0,0.0,0.0,0.0,0.0,0.0,0.0,0.0,0.0,0.0,0.0,0.0,0.0,0.0,0.0,0.0,0.0,0.0,0.0,0.0,0.0,0.0,0.0,0.0,0.0,0.0,0.0,0.0,0.0,0.0,0.0,0.0,0.0,0.0,0.0,0.0,0.0,0.0,0.0,0.0,0.0,0.0,0.0,0.0,0.0,0.0,0.0,0.0,0.0,0.0,0.0,0.0,0.0,0.0,0.0,0.0,0.0,0.0,0.0,0.0,0.0,0.0,0.0,0.0,0.0,0.0,0.0,0.0,0.0,0.0,0.0,0.0,0.0,0.0,0.0,0.0,0.0,0.0,0.0,0.0,0.0,0.0,0.0,0.0,0.0,0.0,0.0,0.0,0.0,0.0,0.0,0.0,0.0,0.0,0.0,0.0,0.0,0.0,0.0,0.0,0.0,0.0,-1.6769,-1.8957,-2.0794,-2.1782,-2.2046,-2.1506,-2.0953,-1.9145,-1.5944,0.0,0.0,0.0,0.0,0.0,0.0,0.0,0.0,0.0,0.0,0.0,0.0,0.0,0.0,0.0,0.0,0.0,0.0,0.0,0.0,0.0,0.0,0.0,0.0,0.0,0.0,0.0,0.0,0.0,0.0,0.0,0.0,0.0,0.0,0.0,0.0,0.0,0.0,-0.9926,-1.191,0.0,0.0,0.0,0.0,0.0,0.0,0.0,0.0,-1.2436,0.0,0.0,0.0,0.0,0.0,0.0,0.0,0.0,0.0,0.0,0.0,0.0,0.0,0.0,0.0,0.0,0.0,0.0,0.0,0.0,0.0,0.0,0.0,0.0,0.0,0.0,0.0,0.0,0.0,0.0,0.0,0.0,0.0,0.0,0.0,0.0,0.0,0.0,0.0,0.0,0.0,0.0,0.0,0.0,0.0,0.0,0.0,0.0,0.0,0.0,0.0,0.0,0.0,0.0,0.0,0.0,-1.6425,-1.7149,-1.8756,-2.128,-2.197,-2.2046,-2.1506,-2.0953,-1.9321,-1.6497,0.0,0.0,0.0,0.0,0.0,0.0,0.0,0.0,0.0,0.0,0.0,0.0,0.0,0.0,0.0,0.0,0.0,0.0,0.0,0.0,0.0,0.0,0.0,0.0,0.0,0.0,0.0,0.0,0.0,0.0,0.0,0.0,0.0,0.0,0.0,0.0,0.0,0.0,0.0,-1.335,-1.4198,0.0,0.0,0.0,0.0,0.0,0.0,0.0,0.0,-1.2383,0.0,0.0,0.0,0.0,0.0,0.0,0.0,0.0,0.0,0.0,0.0,0.0,0.0,0.0,0.0,0.0,0.0,0.0,0.0,0.0,0.0,0.0,0.0,0.0,0.0,0.0,0.0,0.0,0.0,0.0,0.0,0.0,0.0,0.0,0.0,0.0,0.0,0.0,0.0,0.0,0.0,0.0,0.0,0.0,0.0,0.0,0.0,0.0,0.0,0.0,0.0,0.0,0.0,0.0,0.0,-1.6231,-1.7607,-1.9296,-2.1405,-2.2033,-2.2046,-2.1493,-2.0413,-1.8643,0.0,0.0,0.0,0.0,0.0,0.0,0.0,0.0,0.0,0.0,0.0,0.0,0.0,0.0,0.0,0.0,0.0,0.0,0.0,0.0,0.0,0.0,0.0,0.0,0.0,0.0,0.0,0.0,0.0,0.0,0.0,0.0,0.0,0.0,0.0,0.0,0.0,0.0,0.0,0.0,-1.4655,-1.5704,-1.6204,0.0,0.0,0.0,0.0,0.0,0.0,-1.4479,-1.3674,0.0,0.0,0.0,0.0,0.0,0.0,0.0,0.0,0.0,0.0,0.0,0.0,0.0,0.0,0.0,0.0,0.0,0.0,0.0,0.0,0.0,0.0,0.0,0.0,0.0,0.0,0.0,0.0,0.0,0.0,0.0,0.0,0.0,0.0,0.0,0.0,0.0,0.0,0.0,0.0,0.0,0.0,0.0,0.0,0.0,0.0,0.0,0.0,0.0,0.0,0.0,0.0,0.0,0.0,0.0,-1.5694,-1.7587,-1.9434,-2.1242,-2.1757,-2.1782,-2.1305,-1.9823,-1.8025,0.0,0.0,0.0,0.0,0.0,0.0,0.0,0.0,0.0,0.0,0.0,0.0,0.0,0.0,0.0,0.0,0.0,0.0,0.0,0.0,0.0,0.0,0.0,0.0,0.0,0.0,0.0,0.0,0.0,0.0,0.0,0.0,0.0,0.0,0.0,0.0,0.0,0.0,0.0,0.0,0.0,-1.7418,-1.7588,-1.7853,0.0,0.0,0.0,0.0,-1.7294,-1.6392,0.0,0.0,0.0,0.0,0.0,0.0,0.0,0.0,0.0,0.0,0.0,0.0,0.0,0.0,0.0,0.0,0.0,0.0,0.0,0.0,0.0,0.0,0.0,0.0,0.0,0.0,0.0,0.0,0.0,0.0,0.0,0.0,0.0,0.0,0.0,0.0,0.0,0.0,0.0,0.0,0.0,0.0,0.0,0.0,0.0,0.0,0.0,0.0,0.0,0.0,0.0,0.0,0.0,0.0,0.0,0.0,-1.5358,-1.6312,-1.8091,-2.0602,-2.0828,-2.0882,-2.0794,-1.9635,-1.8105,0.0,0.0,0.0,0.0,0.0,0.0,0.0,0.0,0.0,0.0,0.0,0.0,0.0,0.0,0.0,0.0,0.0,0.0,0.0,0.0,0.0,0.0,0.0,0.0,0.0,0.0,0.0,0.0,0.0,0.0,0.0,0.0,0.0,0.0,0.0,0.0,0.0,0.0,0.0,0.0,0.0,-1.941,-1.8795,-1.8751,-1.8741,0.0,0.0,-1.8468,-1.9445,-1.8726,0.0,0.0,0.0,0.0,0.0,0.0,0.0,0.0,0.0,0.0,0.0,0.0,0.0,0.0,0.0,0.0,0.0,0.0,0.0,0.0,0.0,0.0,0.0,0.0,0.0,0.0,0.0,0.0,0.0,0.0,0.0,0.0,0.0,0.0,0.0,0.0,0.0,0.0,0.0,0.0,0.0,0.0,0.0,0.0,0.0,0.0,0.0,0.0,0.0,0.0,0.0,0.0,0.0,0.0,0.0,-1.2799,-1.5335,-1.6769,-1.8518,-2.0618,-2.0718,-2.0718,-2.0706,-1.8995,-1.7365,0.0,0.0,0.0,0.0,0.0,0.0,0.0,0.0,0.0,0.0,0.0,0.0,0.0,0.0,0.0,0.0,0.0,0.0,0.0,0.0,0.0,0.0,0.0,0.0,0.0,0.0,0.0,0.0,0.0,0.0,0.0,0.0,0.0,0.0,0.0,0.0,0.0,0.0,0.0,0.0,0.0,0.0,-2.0154,-2.0204,0.0,0.0,0.0,-1.9677,-1.9951,0.0,0.0,0.0,0.0,0.0,0.0,0.0,0.0,0.0,0.0,0.0,0.0,0.0,0.0,0.0,0.0,0.0,0.0,0.0,0.0,0.0,0.0,0.0,0.0,0.0,0.0,0.0,0.0,0.0,0.0,0.0,0.0,0.0,0.0,0.0,0.0,0.0,0.0,0.0,0.0,0.0,0.0,0.0,0.0,0.0,0.0,0.0,0.0,0.0,0.0,0.0,0.0,0.0,0.0,0.0,0.0,0.0,-1.5285,-1.7207,-1.8932,-2.0429,-2.0663,-2.0703,-2.0678,-1.8939,0.0,0.0,0.0,0.0,0.0,0.0,0.0,0.0,0.0,0.0,0.0,0.0,0.0,0.0,0.0,0.0,0.0,0.0,0.0,0.0,0.0,0.0,0.0,0.0,0.0,0.0,0.0,-0.8194,0.0,0.0,0.0,0.0,0.0,0.0,0.0,0.0,0.0,0.0,0.0,0.0,0.0,0.0,-2.025,-2.1332,-2.1465,-2.161,0.0,0.0,-2.0916,-2.0853,-2.0899,-2.03,0.0,0.0,0.0,0.0,0.0,0.0,0.0,0.0,0.0,0.0,0.0,0.0,0.0,0.0,0.0,0.0,0.0,0.0,0.0,0.0,0.0,0.0,0.0,0.0,0.0,0.0,0.0,0.0,0.0,0.0,0.0,0.0,0.0,0.0,0.0,0.0,0.0,0.0,0.0,0.0,0.0,0.0,0.0,0.0,0.0,0.0,0.0,0.0,0.0,0.0,0.0,0.0,0.0,0.0,0.0,-1.4929,-1.7074,-1.8744,-1.9823,-2.0461,-2.0799,-2.0785,-2.0084,-1.8768,0.0,0.0,0.0,0.0,0.0,0.0,0.0,0.0,0.0,0.0,0.0,0.0,0.0,0.0,0.0,0.0,0.0,0.0,0.0,0.0,0.0,0.0,0.0,0.0,0.0,0.0,0.0,0.0,0.0,0.0,0.0,0.0,0.0,0.0,0.0,0.0,0.0,0.0,0.0,0.0,0.0,-2.1558,-2.2135,-2.2226,-2.2716,0.0,0.0,-2.2417,-2.3071,-2.2603,-2.1501,-1.9516,0.0,0.0,0.0,0.0,0.0,0.0,0.0,0.0,0.0,0.0,0.0,0.0,0.0,0.0,0.0,0.0,0.0,0.0,0.0,0.0,0.0,0.0,0.0,0.0,0.0,0.0,0.0,0.0,0.0,0.0,0.0,0.0,0.0,0.0,0.0,0.0,0.0,0.0,0.0,0.0,0.0,0.0,0.0,0.0,0.0,0.0,0.0,0.0,0.0,0.0,0.0,0.0,0.0,-1.305,-1.5354,-1.7237,-1.9126,-2.0939,-2.088,-2.1166,-2.1961,-2.0621,-1.9335,0.0,0.0,0.0,0.0,0.0,0.0,0.0,0.0,0.0,0.0,0.0,0.0,0.0,0.0,0.0,0.0,0.0,0.0,0.0,0.0,0.0,0.0,0.0,0.0,0.0,0.0,0.0,0.0,-1.0437,-1.1068,-1.0649,0.0,0.0,0.0,0.0,0.0,0.0,0.0,0.0,0.0,0.0,-2.2426,-2.2897,-2.3359,0.0,0.0,-2.4019,-2.3748,-2.4019,-2.3444,-2.2542,-2.1352,-2.0855,0.0,0.0,0.0,0.0,0.0,0.0,0.0,0.0,0.0,0.0,0.0,0.0,0.0,0.0,0.0,0.0,0.0,0.0,0.0,0.0,0.0,0.0,0.0,0.0,0.0,0.0,0.0,0.0,0.0,0.0,0.0,0.0,0.0,0.0,0.0,0.0,0.0,0.0,0.0,0.0,0.0,0.0,0.0,0.0,0.0,0.0,0.0,0.0,0.0,0.0,0.0,0.0,-1.3552,-1.6125,-1.7798,-1.9784,-2.1995,-2.1603,-2.1879,-2.2937,-2.1502,-2.0226,0.0,0.0,0.0,0.0,0.0,0.0,0.0,0.0,0.0,0.0,0.0,0.0,0.0,0.0,0.0,0.0,0.0,0.0,0.0,0.0,0.0,0.0,0.0,0.0,0.0,0.0,0.0,0.0,-1.0815,-1.1496,-1.107,0.0,0.0,0.0,0.0,0.0,0.0,0.0,0.0,0.0,0.0,-2.3275,-2.3977,-2.4306,-2.4659,-2.5116,-2.4794,-2.4523,-2.4523,-2.4069,-2.3439,-2.2558,0.0,0.0,0.0,0.0,0.0,0.0,0.0,0.0,0.0,0.0,0.0,0.0,0.0,0.0,0.0,0.0,0.0,0.0,0.0,0.0,0.0,0.0,0.0,0.0,0.0,0.0,0.0,-1.155,0.0,0.0,-0.9177,0.0,0.0,0.0,0.0,0.0,0.0,0.0,0.0,0.0,0.0,0.0,0.0,0.0,0.0,0.0,0.0,0.0,0.0,0.0,0.0,0.0,0.0,-1.4509,-1.7173,-1.892,-2.0694,-2.2552,-2.2586,-2.2944,-2.363,-2.3009,-2.171,-1.972,0.0,0.0,0.0,0.0,0.0,0.0,0.0,0.0,0.0,0.0,0.0,0.0,0.0,0.0,0.0,0.0,0.0,0.0,0.0,0.0,0.0,0.0,0.0,0.0,0.0,0.0,-0.9072,-0.9755,-1.0372,0.0,0.0,0.0,0.0,0.0,0.0,0.0,0.0,0.0,0.0,-2.2762,-2.4207,-2.537,-2.4966,-2.5084,-2.6437,-2.5456,-2.4574,-2.4625,-2.454,-2.4071,0.0,0.0,0.0,0.0,0.0,0.0,0.0,0.0,0.0,0.0,0.0,0.0,0.0,0.0,0.0,0.0,0.0,0.0,0.0,0.0,0.0,0.0,0.0,0.0,0.0,0.0,0.0,-1.5731,-1.4839,0.0,0.0,0.0,0.0,0.0,0.0,0.0,0.0,0.0,0.0,0.0,-2.2273,-2.3043,0.0,0.0,0.0,0.0,0.0,0.0,0.0,0.0,0.0,0.0,0.0,0.0,-1.5968,-1.9026,-2.0522,-2.2264,-2.4488,-2.422,-2.4312,-2.4914,-2.3881,-2.1949,-1.9121,0.0,0.0,0.0,0.0,0.0,0.0,0.0,0.0,0.0,0.0,0.0,0.0,0.0,0.0,0.0,0.0,0.0,0.0,0.0,0.0,0.0,0.0,0.0,0.0,0.0,-1.0812,0.0,0.0,0.0,0.0,0.0,0.0,0.0,0.0,0.0,0.0,0.0,-2.1634,-2.2624,-2.4037,-2.5297,-2.6201,-2.6556,-2.7046,0.0,0.0,0.0,0.0,0.0,0.0,0.0,0.0,0.0,0.0,0.0,0.0,0.0,0.0,-2.539,-2.1176,-2.0199,-2.0058,-2.0192,0.0,0.0,0.0,0.0,0.0,0.0,0.0,0.0,0.0,0.0,0.0,0.0,0.0,0.0,-1.8932,0.0,-1.7451,0.0,0.0,0.0,0.0,0.0,0.0,0.0,0.0,-2.2487,-2.426,-2.5959,-2.6426,-2.6518,0.0,-2.5689,-2.2784,0.0,0.0,0.0,0.0,0.0,0.0,0.0,0.0,-1.7954,-2.085,-2.2164,-2.3822,-2.5747,-2.5293,-2.5155,-2.5553,-2.4103,-2.2263,-2.0154,-1.9001,-1.7805,0.0,0.0,0.0,0.0,0.0,0.0,0.0,0.0,0.0,0.0,0.0,0.0,0.0,0.0,0.0,0.0,0.0,0.0,0.0,0.0,0.0,0.0,0.0,-1.144,0.0,0.0,0.0,0.0,0.0,0.0,0.0,0.0,0.0,-2.0645,-2.2195,-2.3846,-2.5164,-2.6167,-2.7046,-2.7774,0.0,0.0,0.0,0.0,0.0,0.0,0.0,-2.7029,-2.7671,-2.6826,-2.6268,-2.6962,-2.793,-2.851,-2.8235,0.0,0.0,-2.4585,-2.3506,-2.3289,-2.3801,-2.4563,-2.4947,-2.4499,-2.5143,-2.5574,0.0,0.0,0.0,0.0,0.0,0.0,0.0,0.0,-2.1983,-2.1707,0.0,-2.0501,0.0,0.0,0.0,0.0,0.0,-2.1295,0.0,0.0,-2.7121,-2.8844,-2.9109,-2.908,-2.9334,-2.9759,-3.0193,-2.8598,-2.4974,-1.9598,0.0,0.0,0.0,0.0,0.0,0.0,-2.0472,-2.2558,-2.3912,-2.523,-2.6453,-2.5928,-2.5558,-2.5553,-2.3774,-2.2742,-2.2634,-2.0797,-1.9166,-1.7787,-1.5919,0.0,0.0,0.0,0.0,0.0,0.0,0.0,0.0,0.0,0.0,0.0,0.0,0.0,0.0,0.0,0.0,0.0,0.0,0.0,0.0,-1.0778,0.0,0.0,0.0,0.0,0.0,0.0,0.0,0.0,0.0,0.0,-2.3189,-2.478,-2.6815,-2.8742,0.0,0.0,0.0,0.0,-2.911,-2.9178,-2.9127,-2.8907,-2.8197,-2.8602,-2.8805,-2.8144,0.0,0.0,-2.8043,-2.8552,-2.8876,-2.8095,-2.8672,-2.9315,-2.9994,-2.8434,-2.749,-2.8174,-2.76,-2.7212,-2.7684,-2.7591,-2.7416,-2.654,0.0,0.0,0.0,0.0,-2.3954,-2.5084,-2.6992,-2.6452,-2.5762,-2.5048,-2.4255,0.0,0.0,0.0,0.0,0.0,0.0,-2.44,-2.5703,-2.67,-2.8266,-3.0271,-3.0299,-3.1045,-3.2362,-3.1599,-3.0436,-2.8866,-2.5893,-2.2131,-1.7791,0.0,0.0,0.0,0.0,-2.2832,-2.4648,-2.5585,-2.6423,-2.7291,-2.7113,-2.6525,-2.563,-2.4612,-2.364,-2.2753,-2.2154,-2.0976,-1.9196,-1.7685,0.0,0.0,0.0,0.0,0.0,0.0,0.0,0.0,0.0,0.0,0.0,0.0,0.0,0.0,0.0,0.0,0.0,0.0,0.0,-1.2295,-1.3392,-1.4651,0.0,0.0,0.0,0.0,0.0,0.0,0.0,0.0,0.0,-2.8574,-2.8545,-2.875,0.0,0.0,-3.0632,-3.0869,-3.114,-3.1529,-3.2053,-3.2138,0.0,-3.1833,-3.1106,-3.0835,-3.1664,-3.1546,-3.1089,-3.0345,-3.0412,-3.048,-3.026,-3.0412,-3.0759,-3.1133,-3.0004,-2.9225,-2.9866,-2.9854,-2.971,-2.9881,-2.9836,-2.9582,-3.008,-2.7632,-2.6327,-2.6339,-2.7231,-2.7155,-2.7934,-2.9252,-2.8913,-2.8386,-2.7745,-2.7168,-2.5812,-2.3916,-2.3163,0.0,0.0,0.0,-2.6076,-2.7391,-2.741,-2.8718,-3.085,-3.1062,-3.191,-3.3235,-3.263,-3.1958,-3.1285,-2.9873,-2.6938,-2.2688,0.0,0.0,-2.2182,-2.3925,-2.5334,-2.6378,-2.7051,-2.7455,-2.756,-2.737,-2.6677,-2.5644,-2.4925,-2.4133,-2.3071,-2.2589,-2.1724,-2.0513,-1.9129,-1.7455,0.0,0.0,0.0,0.0,0.0,0.0,0.0,0.0,0.0,0.0,0.0,-1.138,0.0,0.0,0.0,0.0,-1.1793,-1.3251,-1.5475,-1.6627,0.0,0.0,0.0,0.0,0.0,0.0,0.0,-2.8118,-2.9304,-3.0548,-3.1867,-3.1691,-3.1509,-3.1822,-3.1985,-3.2171,-3.2459,0.0,-3.2899,-3.3355,-3.3389,-3.3389,-3.3389,-3.2662,-3.2391,-3.3254,-3.3034,-3.2611,-3.2171,-3.1833,-3.163,-3.1596,-3.1393,-3.1291,-3.1507,-3.0791,-3.0335,-3.0871,-3.0981,-3.0999,-3.0999,-3.0981,-3.0782,-3.288,-3.2215,-3.0733,-3.003,-2.9967,-3.0457,-3.0382,-2.993,-2.9917,-2.9905,-2.9804,-2.9302,-2.8185,-2.6735,-2.5674,0.0,-2.681,-2.7243,-2.8009,-2.8988,-2.9001,-2.9755,-3.1201,-3.1463,-3.2137,-3.3192,-3.3357,-3.3199,-3.2662,-3.1945,-3.0746,-2.8921,-2.7055,-2.6337,-2.6722,-2.735,-2.7724,-2.779,-2.8293,-2.8263,-2.7575,-2.6976,-2.6333,-2.563,-2.4925,-2.4238,-2.3535,-2.2353,-2.168,-2.156,-2.0303,-1.8641,-1.667,0.0,0.0,0.0,0.0,0.0,0.0,0.0,0.0,0.0,0.0,0.0,0.0,0.0,0.0,0.0,-1.5687,0.0,-1.9158,-2.0205,0.0,0.0,0.0,-2.5253,-2.6133,-2.8636,-3.0328,-3.0446,0.0,0.0,-3.3575,-3.4167,-3.4573,-3.459,-3.4015,-3.3812,-3.4404,-3.3947,-3.3575,-3.366,-3.3609,-3.3592,-3.3728,-3.3643,-3.3575,-3.3558,-3.3491,-3.3457,-3.3305,-3.2831,-3.2391,-3.2415,-3.1816,-3.141,-3.1393,-3.1382,-3.1308,-3.1373,-3.1361,-3.1341,-3.1341,-3.1341,-3.121,-3.3997,-3.347,-3.3093,-3.219,-3.1035,-3.116,-3.1135,-3.1022,-3.1009,-3.0783,-3.0407,-3.0281,-2.9767,-2.8988,-2.8725,-2.875,-2.9013,-2.9139,-2.9327,-2.9578,-2.9578,-3.0151,-3.1167,-3.1243,-3.2187,-3.37,-3.3405,-3.3495,-3.3978,-3.3335,-3.2542,-3.1614,-3.1068,-2.9669,-2.7485,-2.8502,-2.9101,-2.9101,-2.8771,-2.8263,-2.759,-2.741,-2.6782,-2.563,-2.4971,-2.4088,-2.2921,-2.2113,-2.1455,-2.0976,-2.0864,-2.019,-1.8734,-1.7252,0.0,0.0,0.0,0.0,0.0,0.0,0.0,0.0,0.0,-1.6058,-1.3278,0.0,-1.7541,0.0,-1.861,-2.0146,-2.1412,-2.3062,0.0,0.0,-2.8142,-2.9516,-3.1343,-3.1681,-3.2205,-3.3339,-3.3914,-3.4455,-3.4969,-3.525,-3.5351,-3.5351,-3.5199,-3.4962,-3.459,-3.4861,-3.5098,-3.5064,-3.5047,-3.5098,-3.5047,-3.5098,-3.4878,-3.432,-3.4235,-3.4049,-3.3491,-3.3271,-3.3136,-3.3136,-3.3017,-3.2882,-3.2831,-3.2425,-3.2066,-3.2012,-3.1871,-3.169,-3.1672,-3.1672,-3.1548,-3.4763,-3.4248,-3.401,-3.3357,-3.2491,-3.224,-3.2001,-3.175,-3.1763,-3.1461,-3.0947,-3.0721,-3.0306,-2.9792,-2.9779,-2.9779,-2.9779,-2.9779,-2.9779,-2.9779,-2.9779,-3.0075,-3.062,-3.1462,-3.2379,-3.3366,-3.3912,-3.4307,-3.4472,-3.4113,-3.3604,-3.2946,-3.2662,-3.1599,-2.9864,-3.0223,-3.0298,-2.9983,-2.9071,-2.8427,-2.8038,-2.7724,-2.6946,-2.5659,-2.5255,-2.4313,-2.2768,-2.2039,-2.1443,-2.0977,-2.1109,-2.0777,-1.9937,-1.8711,-1.7685,0.0,0.0,0.0,0.0,0.0,0.0,0.0,0.0,0.0,0.0,0.0,-2.0653,-2.1228,-2.2709,-2.4199,-2.573,-2.7141,-2.8693,-3.0396,-3.1722,-3.2916,-3.3812,-3.4438,-3.4962,-3.5453,-3.5808,-3.6163,-3.6569,-3.6349,-3.6146,-3.6129,-3.5825,-3.547,-3.5131,-3.5368,-3.5639,-3.5639,-3.5639,-3.5639,-3.5639,-3.5639,-3.5442,-3.5098,-3.4979,-3.4844,-3.4455,-3.4117,-3.3897,-3.3863,-3.3626,-3.3406,-3.3372,-3.3102,-3.278,-3.2771,-3.2627,-3.2278,-3.1682,-3.1545,-3.1432,-3.5328,-3.4788,-3.4299,-3.4035,-3.3872,-3.3395,-3.2855,-3.2315,-3.2328,-3.2014,-3.1461,-3.0871,-3.0344,-2.9905,-2.9829,-2.9779,-2.9779,-2.9779,-2.9779,-2.9779,-2.9779,-2.9779,-2.9856,-3.1623,-3.2451,-3.2664,-3.4476,-3.5061,-3.4607,-3.4607,-3.4262,-3.3619,-3.2961,-3.2587,-3.2497,-3.1854,-3.1195,-3.0507,-2.94,-2.8757,-2.8607,-2.8023,-2.7036,-2.5689,-2.5525,-2.4552,-2.2637,-2.2009,-2.1545,-2.1239,-2.1182,-2.099,-2.0616,-2.0041,-1.9311,0.0,-1.7384,0.0,0.0,0.0,0.0,0.0,0.0,0.0,0.0,-2.2784,-2.4205,-2.6031,-2.725,-2.8616,-3.0402,-3.1437,-3.2276,-3.2878,-3.4667,-3.5639,-3.5098,-3.6721,-3.7652,-3.6992,-3.7499,-3.7922,-3.7838,-3.733,-3.6924,-3.6891,-3.6434,-3.5994,-3.5774,-3.5673,-3.5639,-3.5639,-3.5639,-3.5639,-3.5639,-3.5639,-3.5622,-3.5622,-3.5571,-3.5639,-3.5554,-3.5047,-3.4641,-3.459,-3.4184,-3.3761,-3.3677,-3.3643,-3.3541,-3.3525,-3.3406,-3.2923,-3.1772,-3.1433,-3.1292,-3.5893,-3.5391,-3.5278,-3.4726,-3.3897,-3.3784,-3.342,-3.2918,-3.2905,-3.2591,-3.1989,-3.1035,-3.057,-3.0419,-2.9993,-2.9779,-2.9779,-2.9779,-2.9779,-2.9779,-2.9779,-2.9779,-2.9856,-3.0983,-3.1888,-3.2664,-3.3739,-3.4618,-3.531,-3.531,-3.4966,-3.4277,-3.3634,-3.3036,-3.2497,0.0,0.0,0.0,-3.0268,-2.9639,-2.8652,-2.8472,-2.7515,-2.5689,-2.5091,0.0,-2.2009,-2.1754,-2.1434,-2.0903,-2.1603,0.0,0.0,0.0,0.0,0.0,0.0,0.0,0.0,0.0,0.0,0.0,-2.4948,-2.5194,-2.4917,-2.7672,-2.9448,-2.933,-3.1061,-3.2133,-3.1965,-3.37,-3.4897,-3.5037,-3.646,-3.7415,-3.7297,-3.7669,-3.7838,-3.7736,-3.7838,-3.7922,-3.7956,-3.777,-3.7686,-3.7686,-3.7567,-3.7229,-3.6637,-3.6045,-3.5656,-3.5639,-3.5639,-3.5639,-3.5639,-3.5639,-3.5639,-3.5639,-3.5639,-3.5639,-3.5605,-3.5537,-3.5402,-3.5385,-3.5284,-3.5165,-3.5148,-3.4726,-3.4286,-3.4286,-3.3846,-3.3136,-3.2273,-3.207,-3.1901,-3.6207,0.0,-3.5655,-3.5228,0.0,-3.4123,-3.3746,-3.3458,-3.3194,-3.2754,-3.2177,-3.1637,-3.111,-3.0595,-3.0331,-3.0055,-2.9792,-2.9779,-2.9779,-2.9779,-2.9779,-2.9779,-2.9869,-3.0758,-3.1462,-3.196,-3.3325,-3.4245,-3.4758,-3.5279,-3.5325,-3.4966,-3.4307,-3.3649,-3.2991,-3.2033,-3.136,-3.1016,-3.0687,-3.0193,-2.9549,-2.8921,-2.7949,-2.6632,-2.5944,0.0,0.0,0.0,0.0,0.0,0.0,0.0,0.0,0.0,0.0,-2.2462,-2.2216,-2.2386,-2.3029,-2.3677,-2.4811,-2.6557,-2.8801,-2.9648,-2.8465,-3.0446,-3.1884,-3.229,-3.3643,-3.4506,-3.4556,-3.5859,-3.6755,-3.6806,-3.777,-3.8311,-3.8041,-3.8548,-3.8819,-3.8548,-3.8768,-3.8988,-3.8971,-3.865,-3.8464,-3.8413,-3.8108,-3.7787,-3.7364,-3.6671,-3.6079,-3.5707,-3.5639,-3.5639,-3.5639,-3.5639,-3.5639,-3.5639,-3.5639,-3.5639,-3.5639,-3.5639,-3.5639,-3.5639,-3.5639,-3.5639,-3.5588,-3.5284,-3.5047,-3.503,-3.4759,-3.4252,-3.3508,-3.2814,-3.2188,-3.637,-3.6332,-3.5881,-3.5642,-3.5466,-3.4474,-3.3935,-3.3721,0.0,0.0,0.0,-3.2252,-3.1675,-3.0758,-3.0658,-3.0319,-2.9804,-2.9779,-2.9779,-2.9779,-2.9779,-2.9779,-2.9856,-3.0758,-3.1167,-3.1315,-3.3087,-3.4013,-3.4027,-3.5001,-3.5489,-3.5444,-3.4831,-3.4083,-3.329,-3.2138,-3.1467,-3.1452,-3.0971,-3.0612,-3.0477,-2.9475,-2.8502,-2.7655,-2.7036,-2.6093,-2.4642,-2.4193,-2.3812,-2.3519,-2.3115,-2.3226,-2.3983,-2.3838,-2.4142,-2.5065,-2.4942,-2.5091,-2.5734,-2.629,-2.7381,-2.9074,-3.1742,-3.29,-3.1844,-3.2442,-3.344,-3.4776,-3.5453,-3.6129,-3.6907,-3.7635,-3.8108,-3.8091,-3.8751,-3.8937,-3.8464,-3.9309,-3.9783,-3.9377,-3.9665,-4.007,-3.9986,-3.9546,-3.9174,-3.9106,-3.8751,-3.821,-3.8007,-3.7297,-3.6451,-3.5774,-3.5639,-3.5639,-3.5639,-3.5639,-3.5639,-3.5639,-3.5639,-3.5639,-3.5639,-3.5639,-3.5639,-3.5639,-3.5639,-3.5639,-3.5639,-3.5588,-3.5639,-3.5639,-3.5622,-3.5436,-3.4776,-3.3626,-3.2713,-3.637,-3.6358,-3.6282,-3.5981,-3.5411,-3.4876,-3.4073,-3.3206,-3.3106,-3.3043,-3.2918,-3.2428,-3.1863,-3.1248,-3.0809,-3.0319,-2.9792,-2.9779,-2.9779,-2.9779,-2.9779,-2.9779,-2.9869,-3.0758,-3.1167,-3.1315,-3.3087,-3.4013,-3.4095,-3.5001,-3.5489,-3.5415,-3.4816,-3.3873,-3.2691,-3.1913,-3.1467,-3.1467,-3.1435,-3.1106,-3.0522,-3.0328,-2.937,-2.773,-2.755,-2.6542,-2.4672,-2.5076,-2.5016,-2.4477,-2.4882,-2.4957,-2.4565,-2.4987,-2.5122,-2.4777,-2.5197,-2.5764,-2.6422,-2.7075,-2.8759,-3.1674,-3.2481,-3.3076,-3.3997,-3.4726,-3.552,-3.6366,-3.6518,-3.6924,-3.7686,-3.8396,-3.8836,-3.887,-3.9478,-3.9901,-3.9698,-3.9901,-4.0037,-3.9901,-3.9986,-4.0087,-4.0054,-4.0002,-3.9868,-3.9884,-3.9648,-3.9495,-3.8717,-3.7652,-3.6552,-3.5842,-3.5639,-3.5639,-3.5707,-3.5639,-3.5639,-3.5639,-3.5639,-3.5639,-3.5639,-3.5639,-3.5639,-3.5639,-3.5639,-3.5639,-3.5639,-3.5639,-3.5639,-3.5639,-3.5639,-3.5537,-3.5368,-3.4675,-3.3931,-3.637,-3.637,-3.637,-3.6219,-3.5918,-3.509,-3.4274,-3.352,-3.3206,-3.3081,-3.3056,-3.2792,-3.2365,-3.1813,-3.1273,-3.0746,-3.0231,-2.9917,-2.9779,-2.9779,-2.9779,-2.9779,-2.9869,-3.0216,-3.0419,-3.0558,-3.2321,-3.3227,-3.3394,-3.4773,-3.5489,-3.5459,-3.4816,-3.3993,-3.3066,-3.2392,-3.1898,-3.1482,-3.1467,-3.1332,-3.1076,-3.0687,-3.0073,-2.916,-2.8517,-2.7724,-2.6811,-2.6378,-2.6004,-2.5704,-2.5644,-2.563,-2.5704,-2.5974,-2.6168,-2.6243,-2.6856,-2.7365,-2.7664,-2.8607,-2.9985,-3.1887,-3.2758,-3.3551,-3.4489,-3.5206,-3.596,-3.6705,-3.7127,-3.7686,-3.843,-3.9157,-3.958,-3.9563,-3.9901,-4.007,-4.0087,-4.0087,-4.0087,-4.0087,-4.0087,-4.0087,-4.0087,-4.0087,-4.0087,-4.0087,-4.0087,-3.98,-3.9106,-3.843,-3.7702,-3.7009,-3.6535,-3.6282,-3.6231,-3.5876,-3.5673,-3.5639,-3.5639,-3.5639,-3.5639,-3.5639,-3.5639,-3.5639,-3.5639,-3.5639,-3.5639,-3.5639,-3.5639,-3.5639,-3.5639,-3.5639,-3.5554,-3.5318,-3.459,-3.637,-3.637,-3.637,-3.6295,-3.6081,-3.514,-3.4412,-3.3859,-3.3319,-3.3081,-3.3081,-3.3081,-3.2754,-3.219,-3.1625,-3.1097,-3.0583,-3.0043,-2.9779,-2.9779,-2.9779,-2.9779,-2.9779,-2.9779,-2.9779,-2.9998,-3.1476,-3.2393,-3.2749,-3.4341,-3.5279,-3.5429,-3.4816,-3.4218,-3.3709,-3.2916,-3.2258,-3.1779,-3.1556,-3.1467,-3.1452,-3.1001,-3.0657,-3.0447,-2.9549,-2.8966,-2.8786,-2.7664,-2.7036,-2.7021,-2.6557,-2.6527,-2.6991,-2.7186,-2.7485,-2.806,-2.8517,-2.8876,-2.9071,-2.9939,-3.094,-3.1992,-3.3022,-3.3937,-3.4736,-3.5299,-3.6028,-3.6924,-3.7567,-3.8244,-3.9106,-3.9698,-4.0087,-4.0087,-4.0087,-4.0087,-4.0087,-4.0087,-4.0087,-4.0087,-4.0087,-4.0087,-4.0087,-4.0087,-4.0087,-4.0087,-4.0087,-3.9834,-3.936,-3.9242,-3.8971,-3.843,-3.7635,-3.6958,-3.6806,-3.6315,-3.5893,-3.5707,-3.5639,-3.5639,-3.5639,-3.5639,-3.5639,-3.5639,-3.5639,-3.5639,-3.5639,-3.5639,-3.5639,-3.5639,-3.5639,-3.5639,-3.5622,-3.5605,-3.5047,-3.637,-3.637,-3.637,-3.6069,-3.5604,-3.4989,-3.4412,-3.3884,-3.3319,-3.3081,-3.3081,-3.3081,-3.2767,-3.219,-3.1637,-3.111,-3.0608,-3.0055,-2.9779,-2.9779,-2.9779,-2.9779,-2.9779,-2.9779,-2.9779,-2.9934,-3.0908,-3.1815,-3.2593,-3.3671,-3.461,-3.535,-3.4816,-3.4457,-3.4233,-3.3155,-3.2497,-3.2407,-3.1839,-3.1467,-3.1467,-3.1407,-3.1135,-3.0507,-3.0387,-3.0058,-2.9505,-2.8801,-2.8412,-2.8412,-2.8338,-2.8323,-2.8442,-2.8951,-2.9325,-2.9355,-2.9445,-2.9729,-3.0253,-3.0417,-3.1341,-3.3149,-3.3483,-3.4153,-3.5316,-3.5532,-3.6248,-3.7415,-3.7855,-3.8497,-3.9783,-4.0037,-4.0087,-4.0087,-4.0087,-4.0087,-4.0087,-4.0087,-4.0087,-4.0087,-4.0087,-4.0087,-4.0087,-4.0087,-4.0087,-4.0087,-4.0087,-4.0087,-3.9901,-3.9868,-3.9868,-3.958,-3.8734,-3.7635,-3.7043,-3.6755,-3.6315,-3.5791,-3.5639,-3.5639,-3.5639,-3.5639,-3.5639,-3.5639,-3.5639,-3.5639,-3.5639,-3.5639,-3.5639,-3.5639,-3.5639,-3.5639,-3.5639,-3.5639,-3.5165,-3.637,-3.637,-3.637,-3.6232,-3.5931,-3.5102,-3.46,-3.4311,-3.3445,-3.3081,-3.3081,-3.3081,-3.2943,-3.2667,-3.1788,-3.126,-3.1022,-3.0181,-2.9779,-2.9779,-2.9779,-2.9779,-2.9779,-2.9779,-2.9779,-2.9856,-3.0771,-3.1683,-3.2735,-3.4124,-3.5118,-3.5409,-3.5205,-3.4891,-3.4472,-3.3933,-3.3305,-3.2527,-3.2243,-3.1928,-3.1584,-3.1467,-3.1332,-3.1106,-3.0717,-3.0402,-3.0103,-2.952,-2.9175,-2.919,-2.9175,-2.919,-2.9175,-2.9445,-2.9594,-2.9609,-2.9924,-3.0432,-3.1061,-3.1106,-3.1647,-3.2917,-3.3391,-3.3987,-3.4927,-3.5782,-3.6772,-3.7686,-3.7922,-3.8497,-3.9834,-4.0087,-4.0087,-4.0087,-4.0087,-4.0087,-4.0087,-4.0087,-4.0087,-4.0087,-4.0087,-4.0087,-4.0087,-4.0087,-4.0087,-4.0087,-4.0087,-4.0087,-4.0087,-4.0087,-4.0087,-4.002,-3.9529,-3.8734,-3.7702,-3.7026,-3.6485,-3.5876,-3.5639,-3.5639,-3.5639,-3.5639,-3.5639,-3.5639,-3.5639,-3.5639,-3.5639,-3.5639,-3.5639,-3.5639,-3.5639,-3.5639,-3.5639,-3.5639,-3.5453,-3.637,-3.637,-3.637,-3.637,-3.627,-3.519,-3.4726,-3.4575,-3.3545,-3.3081,-3.3081,-3.3081,-3.3081,-3.2943,-3.2051,-3.1537,-3.1286,-3.0432,-2.993,-2.9804,-2.9779,-2.9779,-2.9779,-2.9779,-2.9779,-2.9934,-3.0495,-3.1402,-3.2678,-3.4259,-3.5213,-3.5439,-3.5489,-3.525,-3.4786,-3.4607,-3.3918,-3.2886,-3.2632,-3.2198,-3.1556,-3.1467,-3.1467,-3.1422,-3.1046,-3.0791,-3.0776,-3.0163,-2.9834,-2.9834,-2.9834,-2.9834,-2.9834,-3.0013,-3.0118,-3.0148,-3.0537,-3.1001,-3.1495,-3.1682,-3.212,-3.2841,-3.3479,-3.4186,-3.4932,-3.6068,-3.7094,-3.7804,-3.8091,-3.8768,-3.9817,-4.0087,-4.0087,-4.0087,-4.0087,-4.0087,-4.0087,-4.0087,-4.0087,-4.0087,-4.0087,-4.0087,-4.0087,-4.0087,-4.0087,-4.0087,-4.0087,-4.0087,-4.0087,-4.0087,-4.0087,-4.0087,-4.007,-3.9445,-3.8193,-3.7516,-3.6738,-3.5926,-3.5639,-3.5639,-3.5639,-3.5639,-3.5639,-3.5639,-3.5639,-3.5639,-3.5639,-3.5639,-3.5639,-3.5639,-3.5639,-3.5639,-3.5639,-3.5639,-3.5639,-3.637,-3.637,-3.637,-3.637,-3.6282,-3.5177,-3.4726,-3.465,-3.3558,-3.3081,-3.3081,-3.3081,-3.3081,-3.3043,-3.2441,-3.1888,-3.1361,-3.0796,-3.0256,-2.9817,-2.9779,-2.9779,-2.9779,-2.9779,-2.9779,-2.9779,-2.9934,-3.0846,-3.2607,-3.3602,-3.4543,-3.5424,-3.5489,-3.5489,-3.5325,-3.4831,-3.4158,-3.3484,-3.2901,-3.2228,-3.1586,-3.1497,-3.1467,-3.1467,-3.1422,-3.1377,-3.1332,-3.0821,-3.0462,-3.0462,-3.0462,-3.0477,-3.0522,-3.1061,-3.1302,-3.1375,-3.1435,-3.148,-3.1625,-3.216,-3.2841,-3.3479,-3.4137,-3.4816,-3.5513,-3.6388,-3.7212,-3.7872,-3.8582,-3.9292,-3.9935,-4.0087,-4.0087,-4.0087,-4.0087,-4.0087,-4.0087,-4.0087,-4.0087,-4.0087,-4.0087,-4.0087,-4.0087,-4.0087,-4.0087,-4.0087,-4.0087,-4.0087,-4.0087,-4.0087,-4.0121,-4.0171,-4.0069,-3.963,-3.8309,-3.7753,-3.7094,-3.6265,-3.5808,-3.5639,-3.5639,-3.5639,-3.5639,-3.5639,-3.5639,-3.5639,-3.5639,-3.5639,-3.5639,-3.5639,-3.5639,-3.5639,-3.5639,-3.5639,-3.5639,-3.637,-3.637,-3.637,-3.637,-3.6245,-3.5177,-3.4726,-3.4613,-3.3558,-3.3081,-3.3081,-3.3081,-3.3081,-3.3068,-3.2867,-3.2252,-3.1386,-3.0846,-3.0319,-2.9829,-2.9779,-2.9779,-2.9779,-2.9779,-2.9779,-2.9779,-2.9779,-3.0784,-3.2536,-3.3518,-3.4543,-3.5344,-3.5489,-3.5489,-3.5459,-3.525,-3.4801,-3.4128,-3.3484,-3.2826,-3.2168,-3.1691,-3.1467,-3.1467,-3.1467,-3.1467,-3.1467,-3.1285,-3.115,-3.1165,-3.115,-3.1165,-3.118,-3.139,-3.1467,-3.1524,-3.1951,-3.2231,-3.2272,-3.2841,-3.3531,-3.4186,-3.4431,-3.5127,-3.6211,-3.706,-3.7821,-3.8531,-3.9259,-3.9884,-3.9986,-4.0087,-4.0087,-4.0087,-4.0087,-4.0087,-4.0087,-4.0087,-4.0087,-4.0087,-4.0087,-4.0087,-4.0087,-4.0087,-4.0087,-4.0087,-4.0087,-4.0087,-4.0087,-4.0087,-4.0204,-4.0546,-4.059,-4.0405,-3.9931,-3.8562,-3.7516,-3.6688,-3.6113,-3.5757,-3.5639,-3.5639,-3.5639,-3.5622,-3.5622,-3.5739,-3.5827,-3.5854,-3.5827,-3.5694,-3.565,-3.5711,-3.5639,-3.5639,-3.5639,-3.637,-3.637,-3.637,-3.637,-3.6232,-3.519,-3.4726,-3.4587,-3.3558,-3.3081,-3.3081,-3.3081,-3.3081,-3.3081,-3.3081,-3.2453,-3.1424,-3.1009,-3.0482,-2.9829,-2.9779,-2.9779,-2.9779,-2.9779,-2.9779,-2.9779,-2.9779,-3.0771,-3.2464,-3.3227,-3.4259,-3.5439,-3.5489,-3.5489,-3.5489,-3.5489,-3.516,-3.4502,-3.4023,-3.341,-3.2587,-3.2093,-3.1676,-3.1569,-3.1467,-3.1467,-3.1467,-3.1467,-3.1467,-3.1467,-3.1467,-3.1467,-3.1467,-3.1467,-3.1467,-3.1582,-3.2176,-3.2586,-3.268,-3.3443,-3.4137,-3.4609,-3.5079,-3.5763,-3.6789,-3.7686,-3.8447,-3.9022,-3.9648,-4.0087,-4.0087,-4.0087,-4.0087,-4.0087,-4.0087,-4.0087,-4.0087,-4.0087,-4.0087,-4.0087,-4.0087,-4.0087,-4.0087,-4.0087,-4.0087,-4.0087,-4.0087,-4.0087,-4.0087,-4.0121,-4.0286,-4.078,-4.0856,-4.0941,-4.0717,-3.9844,-3.8418,-3.7435,-3.6508,-3.6073,-3.5639,-3.5639,-3.5622,-3.5667,-3.5783,-3.5924,-3.6011,-3.6079,-3.6011,-3.5881,-3.5898,-3.5985,-3.5827,-3.5639,-3.5639,-3.637,-3.637,-3.637,-3.637,-3.6207,-3.519,-3.4726,-3.455,-3.3558,-3.3081,-3.3081,-3.3081,-3.3081,-3.3081,-3.3081,-3.2466,-3.1599,-3.1361,-3.0758,-2.9854,-2.9779,-2.9779,-2.9779,-2.9792,-2.9856,-2.9921,-2.9856,-3.0846,-3.2664,-3.289,-3.3754,-3.5198,-3.5489,-3.5489,-3.5489,-3.5474,-3.519,-3.4681,-3.4457,-3.3829,-3.2706,-3.2557,-3.2243,-3.1689,-3.1556,-3.1526,-3.1482,-3.1467,-3.1467,-3.1467,-3.1467,-3.1467,-3.1467,-3.1467,-3.1539,-3.1682,-3.2287,-3.2586,-3.2841,-3.3937,-3.464,-3.4849,-3.589,-3.6557,-3.7043,-3.8041,-3.887,-3.9191,-3.9665,-4.0087,-4.0087,-4.0087,-4.0087,-4.0087,-4.0087,-4.0087,-4.0087,-4.0087,-4.0087,-4.0087,-4.0087,-4.0087,-4.0087,-4.0087,-4.0087,-4.0087,-4.0087,-4.0087,-4.0121,-4.0171,-4.0368,-4.078,-4.1206,-4.1498,-4.1396,-4.1085,-3.961,-3.8258,-3.7332,-3.6599,-3.587,-3.5622,-3.5739,-3.5766,-3.6249,-3.644,-3.6643,-3.6684,-3.6522,-3.6399,-3.6374,-3.6114,-3.5827,-3.5639,-3.5639,-3.637,-3.637,-3.637,-3.637,-3.6219,-3.519,-3.4726,-3.4613,-3.3545,-3.3093,-3.3081,-3.3081,-3.3081,-3.3081,-3.3068,-3.2667,-3.1951,-3.1562,-3.0821,-2.9942,-2.9792,-2.9779,-2.9779,-2.9779,-3.0139,-3.0683,-3.0758,-3.1683,-3.3241,-3.3533,-3.4259,-3.5279,-3.5489,-3.5489,-3.5489,-3.5489,-3.5355,-3.5175,-3.4711,-3.4233,-3.3829,-3.341,-3.2871,-3.2302,-3.2213,-3.2018,-3.1569,-3.1467,-3.1467,-3.1467,-3.1467,-3.1467,-3.1524,-3.1467,-3.1739,-3.2272,-3.2879,-3.3547,-3.3987,-3.4752,-3.5253,-3.535,-3.5785,-3.6535,-3.7381,-3.7973,-3.8734,-3.9495,-3.9952,-4.0087,-4.0087,-4.0087,-4.0087,-4.0087,-4.0087,-4.0087,-4.0087,-4.0087,-4.0087,-4.0087,-4.0087,-4.0087,-4.0121,-4.0121,-4.0121,-4.0138,-4.0121,-4.0121,-4.0171,-4.04,-4.0891,-4.1402,-4.175,-4.2126,-4.2286,-4.2127,-4.1117,-3.9598,-3.8405,-3.7317,-3.6498,-3.5854,-3.5924,-3.619,-3.6684,-3.6999,-3.719,-3.7228,-3.7097,-3.6724,-3.6457,-3.6139,-3.5756,-3.5639,-3.5639,-3.637,-3.637,-3.637,-3.637,-3.6232,-3.519,-3.4726,-3.4562,-3.3558,-3.3081,-3.3081,-3.3081,-3.3081,-3.3081,-3.3081,-3.2754,-3.219,-3.1637,-3.0922,-3.0156,-2.9854,-2.9792,-2.9779,-2.9779,-3.0279,-3.1031,-3.1167,-3.2177,-3.3945,-3.4027,-3.4558,-3.5359,-3.5489,-3.5489,-3.5489,-3.5489,-3.5489,-3.5429,-3.507,-3.4726,-3.4442,-3.4068,-3.3544,-3.2961,-3.2647,-3.2317,-3.1913,-3.1616,-3.1467,-3.1467,-3.1467,-3.164,-3.1853,-3.1966,-3.2216,-3.2949,-3.3598,-3.4186,-3.464,-3.5161,-3.5639,-3.5656,-3.5893,-3.6569,-3.7669,-3.8091,-3.8886,-3.9834,-4.0087,-4.0087,-4.0087,-4.0087,-4.0087,-4.0087,-4.0087,-4.0087,-4.0087,-4.0087,-4.0087,-4.0087,-4.0087,-4.0087,-4.0121,-4.0319,-4.0286,-4.0221,-4.0303,-4.0434,-4.0466,-4.0685,-4.1268,-4.1853,-4.2302,-4.2752,-4.3267,-4.3013,-4.2522,-4.1097,-3.9549,-3.8403,-3.7356,-3.6724,-3.6522,-3.6925,-3.7342,-3.7632,-3.7861,-3.7895,-3.7791,-3.7266,-3.662,-3.6291,-3.5985,-3.5667,-3.5639,-3.637,-3.637,-3.637,-3.632,-3.6144,-3.5165,-3.4688,-3.4474,-3.3545,-3.3081,-3.3081,-3.3081,-3.3081,-3.3081,-3.3081,-3.2792,-3.224,-3.165,-3.116,-3.0595,-3.0118,-2.9779,-2.9779,-2.9779,-3.0355,-3.1254,-3.1389,-3.2393,-3.4163,-3.423,-3.4543,-3.5424,-3.5489,-3.5489,-3.5489,-3.5489,-3.5489,-3.5489,-3.5459,-3.513,-3.4622,-3.4547,-3.4218,-3.3574,-3.2961,-3.2572,-3.2347,-3.1854,-3.1467,-3.1467,-3.1467,-3.1739,-3.2327,-3.2547,-3.2841,-3.3495,-3.4186,-3.4544,-3.4783,-3.527,-3.5639,-3.5673,-3.6299,-3.7094,-3.7804,-3.8497,-3.9174,-3.9969,-4.0087,-4.0087,-4.0087,-4.0087,-4.0087,-4.0087,-4.0087,-4.0087,-4.0087,-4.0087,-4.0087,-4.0087,-4.0087,-4.0087,-4.0121,-4.0497,-4.0449,-4.0336,-4.0483,-4.0611,-4.0767,-4.092,-4.149,-4.2021,-4.2519,-4.3014,-4.3444,-4.3408,-4.2904,-4.2232,-4.065,-3.9269,-3.8139,-3.7461,-3.7097,-3.7488,-3.7925,-3.8231,-3.8364,-3.8396,-3.8032,-3.7323,-3.6865,-3.6563,-3.6182,-3.5783,-3.5639,-3.637,-3.637,-3.637,-3.6132,-3.5705,-3.5002,-3.4487,-3.406,-3.3395,-3.3081,-3.3081,-3.3081,-3.3081,-3.3081,-3.3081,-3.298,-3.2591,-3.1813,-3.1348,-3.106,-3.0206,-2.9817,-2.9779,-2.9792,-3.0646,-3.196,-3.2164,-3.3255,-3.4986,-3.5037,-3.5213,-3.5489,-3.5489,-3.5489,-3.5489,-3.5489,-3.5489,-3.5489,-3.5489,-3.5429,-3.5265,-3.5205,-3.4906,-3.4247,-3.3589,-3.3021,-3.2527,-3.1825,-3.1467,-3.1467,-3.1467,-3.1582,-3.191,-3.2327,-3.2895,-3.3582,-3.4235,-3.483,-3.5207,-3.547,-3.5577,-3.569,-3.6282,-3.711,-3.7855,-3.8565,-3.9292,-3.9901,-4.0087,-4.0087,-4.0087,-4.0087,-4.0087,-4.0087,-4.0087,-4.0087,-4.0087,-4.0087,-4.0087,-4.0087,-4.0087,-4.0087,-4.0121,-4.0286,-4.0336,-4.0204,-4.0353,-4.0531,-4.0767,-4.115,-4.1768,-4.2144,-4.258,-4.3124,-4.3444,-4.3479,-4.3316,-4.2972,-4.1649,-3.9968,-3.8887,-3.7933,-3.7757,-3.7841,-3.8345,-3.8722,-3.873,-3.8718,-3.8077,-3.7434,-3.7135,-3.6843,-3.6097,-3.5639,-3.5639,-3.637,-3.637,-3.637,-3.6044,-3.5504,-3.4964,-3.4412,-3.3859,-3.3332,-3.3081,-3.3081,-3.3081,-3.3081,-3.3081,-3.3081,-3.293,-3.2616,-3.18,-3.1286,-3.0922,-3.0181,-2.9817,-2.9779,-2.9792,-3.0771,-3.2464,-3.2593,-3.3685,-3.5133,-3.5489,-3.5489,-3.5489,-3.5489,-3.5489,-3.5489,-3.5489,-3.5489,-3.5489,-3.5489,-3.5489,-3.5489,-3.5489,-3.5325,-3.4831,-3.4262,-3.3604,-3.2961,-3.2302,-3.1839,-3.1556,-3.1524,-3.164,-3.1966,-3.2327,-3.2895,-3.3582,-3.4235,-3.48,-3.5144,-3.5407,-3.5622,-3.5673,-3.6113,-3.684,-3.7669,-3.8328,-3.8886,-3.9901,-4.0054,-4.0087,-4.0087,-4.0087,-4.0087,-4.0087,-4.0087,-4.0087,-4.0087,-4.0087,-4.0087,-4.0087,-4.0087,-4.007,-4.0121,-4.0466,-4.0466,-4.0368,-4.0642,-4.0814,-4.103,-4.1508,-4.2021,-4.2444,-4.2772,-4.3232,-4.3277,-4.3185,-4.28,-4.2546,-4.1687,-4.0154,-3.9254,-3.8307,-3.8264,-3.831,-3.8792,-3.9044,-3.8923,-3.8748,-3.83,-3.7787,-3.7434,-3.6843,-3.6054,-3.5639,-3.5639,-3.637,-3.637,-3.6307,-3.5956,-3.5391,-3.4864,-3.4261,-3.3771,-3.3282,-3.3081,-3.3081,-3.3081,-3.3081,-3.3081,-3.3068,-3.278,-3.2227,-3.1662,-3.106,-3.0557,-3.003,-2.9779,-2.9779,-3.0075,-3.1057,-3.2464,-3.2678,-3.3837,-3.5133,-3.5489,-3.5489,-3.5489,-3.5489,-3.5489,-3.5489,-3.5489,-3.5489,-3.5489,-3.5489,-3.5489,-3.5489,-3.5489,-3.5429,-3.531,-3.4711,-3.4053,-3.3469,-3.2901,-3.2392,-3.1794,-3.1674,-3.1917,-3.2404,-3.2477,-3.2841,-3.3391,-3.3987,-3.4496,-3.4688,-3.5161,-3.5515,-3.5611,-3.5825,-3.6383,-3.7669,-3.8261,-3.8954,-3.9986,-4.007,-4.0087,-4.0087,-4.0087,-4.0087,-4.0087,-4.0087,-4.0087,-4.0087,-4.0087,-4.0121,-4.0154,-4.0204,-4.0204,-4.0514,-4.0984,-4.142,-4.0861,-4.1122,-4.1286,-4.1508,-4.1871,-4.2404,-4.2921,-4.3196,-4.3391,-4.3185,-4.2855,-4.2323,-4.1827,-4.0946,-3.9841,-3.9168,-3.8574,-3.8619,-3.8773,-3.9054,-3.9045,-3.8803,-3.8585,-3.8425,-3.7821,-3.7285,-3.6603,-3.5941,-3.5711,-3.5639,-3.637,-3.632,-3.5893,-3.5403,-3.4864,-3.4311,-3.3771,-3.3269,-3.3144,-3.3081,-3.3081,-3.3081,-3.3081,-3.3081,-3.3056,-3.2767,-3.2139,-3.1549,-3.0909,-3.0018,-2.988,-2.9792,-2.9998,-3.0495,-3.1549,-3.2522,-3.338,-3.4327,-3.5279,-3.5489,-3.5489,-3.5489,-3.5489,-3.5489,-3.5489,-3.5489,-3.5489,-3.5489,-3.5489,-3.5489,-3.5489,-3.5489,-3.5489,-3.5429,-3.4831,-3.4203,-3.3634,-3.3365,-3.3215,-3.2991,-3.2602,-3.23,-3.2049,-3.2302,-3.2586,-3.2895,-3.3443,-3.4037,-3.4479,-3.4736,-3.5068,-3.5621,-3.654,-3.755,-3.7855,-3.8937,-3.958,-4.0087,-4.0087,-4.0087,-4.0087,-4.0087,-4.0087,-4.0087,-4.0121,-4.0171,-4.0121,-4.0121,-4.0286,-4.0577,-4.075,-4.092,-4.1331,-4.1508,-4.1682,-4.1481,-4.1595,-4.1768,-4.1997,-4.2221,-4.2675,-4.3178,-4.3339,-4.3424,-4.291,-4.2341,-4.1442,-4.0946,-4.0139,-3.9606,-3.8964,-3.8707,-3.8707,-3.8902,-3.9189,-3.9064,-3.8822,-3.9045,-3.9005,-3.8067,-3.7152,-3.6563,-3.6054,-3.5827,-3.5639,-3.6207,-3.5956,-3.5667,-3.5077,-3.4361,-3.4022,-3.3583,-3.3144,-3.3081,-3.3081,-3.3081,-3.3081,-3.3081,-3.3081,-3.3043,-3.2641,-3.1763,-3.0984,-3.0357,-2.9867,-2.9792,-2.9792,-3.0139,-3.1119,-3.2177,-3.2749,-3.3518,-3.4543,-3.5264,-3.5489,-3.5489,-3.5489,-3.5489,-3.5489,-3.5489,-3.5489,-3.5489,-3.5489,-3.5489,-3.5489,-3.5489,-3.5489,-3.5489,-3.537,-3.4876,-3.4382,-3.4472,-3.4113,-3.3993,-3.3873,-3.3589,-3.2961,-3.2093,-3.2019,-3.2079,-3.2216,-3.2734,-3.3235,-3.3633,-3.4252,-3.4949,-3.5599,-3.6754,-3.7621,-3.8261,-3.9208,-3.9681,-3.9986,-4.0087,-4.0087,-4.0087,-4.0087,-4.0087,-4.0171,-4.0336,-4.0466,-4.0466,-4.0497,-4.0577,-4.0903,-4.1115,-4.1402,-4.1707,-4.2062,-4.1955,-4.1785,-4.2121,-4.2302,-4.2302,-4.2559,-4.2808,-4.3178,-4.3375,-4.3277,-4.269,-4.1791,-4.0524,-3.9955,-3.9405,-3.9111,-3.8817,-3.8707,-3.8707,-3.8931,-3.9154,-3.91,-3.897,-3.9257,-3.9111,-3.7935,-3.702,-3.6545,-3.6122,-3.5783,-3.5622,-3.5968,-3.5424,-3.5274,-3.4738,-3.3972,-3.3796,-3.3495,-3.3119,-3.3081,-3.324,-3.3326,-3.3227,-3.324,-3.3313,-3.3154,-3.2416,-3.1386,-3.0382,-2.9842,-2.9804,-2.9779,-2.9779,-3.0216,-3.1476,-3.2522,-3.2749,-3.3822,-3.4773,-3.5279,-3.5489,-3.5489,-3.5489,-3.5489,-3.5489,-3.5489,-3.5489,-3.5489,-3.5489,-3.5489,-3.5489,-3.5489,-3.5489,-3.5489,-3.5385,-3.507,-3.4936,-3.5115,-3.4906,-3.4637,-3.4622,-3.4532,-3.3888,-3.3006,-3.2093,-3.1541,-3.1584,-3.212,-3.2532,-3.2949,-3.363,-3.4513,-3.5448,-3.6352,-3.7393,-3.8386,-3.9075,-3.9597,-3.9884,-4.0087,-4.0087,-4.0087,-4.0087,-4.0087,-4.0171,-4.0528,-4.0733,-4.0763,-4.081,-4.0949,-4.1358,-4.1707,-4.2021,-4.2284,-4.258,-4.2324,-4.2162,-4.2519,-4.2732,-4.2693,-4.2808,-4.3032,-4.3214,-4.341,-4.2818,-4.2158,-4.1313,-4.0029,-3.9405,-3.8854,-3.8799,-3.8726,-3.8707,-3.8719,-3.8862,-3.8998,-3.9036,-3.9127,-3.9308,-3.8813,-3.7665,-3.7097,-3.6746,-3.6291,-3.5739,-3.5622,-3.5617,-3.5466,-3.455,-3.406,-3.3834,-3.342,-3.3181,-3.3093,-3.3167,-3.3641,-3.4191,-3.3543,-3.3628,-3.394,-3.3398,-3.2512,-3.1286,-3.0294,-2.9779,-2.9779,-2.9779,-2.9779,-3.0139,-3.1549,-3.2451,-3.3115,-3.4124,-3.5133,-3.5424,-3.5489,-3.5489,-3.5489,-3.5489,-3.5489,-3.5489,-3.5489,-3.5489,-3.5489,-3.5489,-3.5489,-3.5489,-3.5489,-3.5489,-3.5489,-3.5295,-3.534,-3.5415,-3.54,-3.534,-3.528,-3.4771,-3.4412,-3.3888,-3.2961,-3.2228,-3.1734,-3.1727,-3.2007,-3.2492,-3.285,-3.3615,-3.4716,-3.6037,-3.7068,-3.81,-3.9109,-3.9716,-3.9969,-4.0087,-4.0087,-4.0087,-4.0087,-4.0087,-4.0121,-4.0237,-4.0368,-4.04,-4.075,-4.1313,-4.1895,-4.2302,-4.2519,-4.2541,-4.2619,-4.2462,-4.2284,-4.2501,-4.2598,-4.2519,-4.2828,-4.3195,-4.3338,-4.3479,-4.2543,-4.157,-4.0653,-3.9662,-3.9166,-3.8762,-3.8762,-3.8707,-3.8707,-3.875,-3.8833,-3.9045,-3.9249,-3.9358,-3.9383,-3.8841,-3.792,-3.7452,-3.6999,-3.6333,-3.5739,-3.5622,-3.5203,-3.4663,-3.411,-3.3721,-3.3445,-3.3206,-3.3081,-3.3154,-3.3641,-3.3869,-3.3869,-3.3869,-3.3869,-3.3707,-3.303,-3.2014,-3.1009,-3.0206,-2.9804,-2.9779,-2.9779,-2.9779,-2.9934,-3.1341,-3.2105,-3.282,-3.4041,-3.5133,-3.5439,-3.5489,-3.5489,-3.5489,-3.5489,-3.5489,-3.5489,-3.5489,-3.5489,-3.5489,-3.5489,-3.5489,-3.5489,-3.5489,-3.5489,-3.5489,-3.5489,-3.5489,-3.5489,-3.5489,-3.5489,-3.5429,-3.519,-3.4846,-3.4397,-3.3873,-3.3066,-3.2243,-3.1779,-3.167,-3.217,-3.2604,-3.3646,-3.4636,-3.5931,-3.7236,-3.8179,-3.9046,-3.9645,-3.9969,-4.0087,-4.0087,-4.0087,-4.0087,-4.0087,-4.0171,-4.0286,-4.0449,-4.0625,-4.1013,-4.1552,-4.208,-4.208,-4.208,-4.2266,-4.2346,-4.2404,-4.2501,-4.2505,-4.239,-4.2213,-4.2423,-4.2687,-4.2483,-4.237,-4.168,-4.0763,-4.0065,-3.9441,-3.8964,-3.8707,-3.8707,-3.8707,-3.8707,-3.8707,-3.8719,-3.9008,-3.9358,-3.9275,-3.9189,-3.8678,-3.8164,-3.7578,-3.6943,-3.6249,-3.5783,-3.5667,-3.4713,-3.3897,-3.3771,-3.3483,-3.3119,-3.3081,-3.3081,-3.3313,-3.3953,-3.4037,-3.3556,-3.3953,-3.3953,-3.3377,-3.247,-3.1512,-3.0595,-3.0043,-2.9804,-2.9779,-2.9779,-2.9779,-3.0075,-3.0983,-3.196,-3.2749,-3.4027,-3.4691,-3.5344,-3.5489,-3.5489,-3.5489,-3.5489,-3.5489,-3.5489,-3.5489,-3.5489,-3.5489,-3.5489,-3.5489,-3.5489,-3.5489,-3.5489,-3.5489,-3.5489,-3.5489,-3.5489,-3.5489,-3.5489,-3.5489,-3.5415,-3.525,-3.4771,-3.4547,-3.3978,-3.3021,-3.2302,-3.1958,-3.2015,-3.2786,-3.3744,-3.4611,-3.5791,-3.7038,-3.7987,-3.8443,-3.8978,-3.9679,-3.985,-3.9952,-4.002,-4.0087,-4.0087,-4.0171,-4.0466,-4.075,-4.0703,-4.0891,-4.103,-4.1331,-4.1464,-4.1682,-4.1877,-4.2003,-4.2062,-4.1682,-4.173,-4.1422,-4.1286,-4.1364,-4.1501,-4.1162,-4.0866,-4.0478,-3.99,-3.9496,-3.9074,-3.8836,-3.8707,-3.8707,-3.8707,-3.8707,-3.8707,-3.8689,-3.9045,-3.9308,-3.9163,-3.9017,-3.8726,-3.8245,-3.7596,-3.6943,-3.6333,-3.5854,-3.5622,-3.4022,-3.3847,-3.337,-3.3131,-3.3093,-3.3081,-3.3081,-3.3167,-3.3398,-3.3797,-3.4191,-3.37,-3.3869,-3.3687,-3.2206,-3.1173,-3.057,-3.0068,-2.9792,-2.9779,-2.9779,-2.9779,-3.0062,-3.1683,-3.2177,-3.282,-3.4341,-3.5213,-3.5489,-3.5489,-3.5489,-3.5489,-3.5489,-3.5489,-3.5489,-3.5489,-3.5489,-3.5489,-3.5489,-3.5489,-3.5489,-3.5489,-3.5489,-3.5489,-3.5489,-3.5489,-3.5489,-3.5489,-3.5489,-3.5489,-3.5489,-3.5459,-3.5295,-3.4786,-3.4517,-3.4113,-3.3634,-3.3006,-3.2632,-3.3171,-3.3834,-3.4516,-3.5383,-3.6084,-3.6951,-3.7774,-3.8358,-3.8978,-3.9032,-3.9368,-3.9782,-4.002,-4.007,-4.0121,-4.0204,-4.0286,-4.0336,-4.0546,-4.0689,-4.0642,-4.0784,-4.1168,-4.149,-4.1578,-4.1647,-4.1227,-4.085,-4.0526,-4.0219,-4.0223,-4.0399,-4.0128,-3.9698,-3.9254,-3.9049,-3.8627,-3.8611,-3.8546,-3.8578,-3.8596,-3.8707,-3.8707,-3.8627,-3.8743,-3.9008,-3.8989,-3.8726,-3.8637,-3.8689,-3.8227,-3.7416,-3.6886,-3.6481,-3.6054,-3.5605,-3.3432,-3.3407,-3.3181,-3.3081,-3.3081,-3.3081,-3.3081,-3.324,-3.3797,-3.3882,-3.3882,-3.4024,-3.37,-3.2782,-3.141,-3.0658,-3.0181,-2.9905,-2.9792,-2.9779,-2.9779,-2.9779,-3.0075,-3.1119,-3.196,-3.289,-3.3891,-3.492,-3.5279,-3.5489,-3.5489,-3.5489,-3.5489,-3.5489,-3.5489,-3.5489,-3.5489,-3.5489,-3.5489,-3.5489,-3.5489,-3.5489,-3.5489,-3.5489,-3.5489,-3.5489,-3.5489,-3.5489,-3.5489,-3.5489,-3.5489,-3.5489,-3.5459,-3.519,-3.4921,-3.4472,-3.4637,-3.4128,-3.335,-3.3739,-3.4158,-3.4535,-3.5135,-3.5905,-3.6569,-3.7263,-3.7806,-3.8262,-3.8302,-3.8652,-3.9209,-3.942,-3.9731,-3.9901,-4.002,-4.0087,-4.0087,-4.0087,-4.0204,-4.0121,-4.0104,-4.0542,-4.0834,-4.0799,-4.0626,-4.0205,-3.9755,-3.9382,-3.8939,-3.8617,-3.886,-3.9144,-3.865,-3.8151,-3.8008,-3.7828,-3.802,-3.8032,-3.815,-3.8267,-3.8627,-3.8658,-3.8465,-3.8318,-3.8337,-3.83,-3.8186,-3.8264,-3.8339,-3.7819,-3.7195,-3.6689,-3.6207,-3.5916,-3.5436,-3.3081,-3.3081,-3.3081,-3.3081,-3.3081,-3.3081,-3.3081,-3.324,-3.3882,-3.3797,-3.3433,-3.3675,-3.2937,-3.1486,-3.0809,-3.0369,-2.9817,-2.9779,-2.9779,-2.9779,-2.9779,-2.9779,-3.0203,-3.097,-3.2033,-3.2664,-3.4041,-3.4854,-3.5279,-3.5489,-3.5489,-3.5489,-3.5489,-3.5489,-3.5489,-3.5489,-3.5489,-3.5489,-3.5489,-3.5489,-3.5489,-3.5489,-3.5489,-3.5489,-3.5489,-3.5489,-3.5489,-3.5489,-3.5489,-3.5489,-3.5489,-3.5489,-3.5474,-3.5415,-3.5235,-3.4966,-3.5115,-3.4981,-3.4442,-3.4487,-3.4696,-3.4891,-3.507,-3.5706,-3.615,-3.6935,-3.7397,-3.7456,-3.7515,-3.7905,-3.8469,-3.8799,-3.9209,-3.961,-3.9969,-4.002,-4.0054,-3.9986,-4.002,-4.0087,-4.002,-3.9851,-4.0014,-3.9881,-3.9611,-3.9156,-3.8717,-3.8278,-3.7819,-3.7322,-3.7532,-3.7954,-3.7922,-3.7537,-3.7447,-3.7358,-3.747,-3.7524,-3.7685,-3.7808,-3.8083,-3.8135,-3.7982,-3.7843,-3.772,-3.7702,-3.7701,-3.7837,-3.7887,-3.7271,-3.6729,-3.6274,-3.5881,-3.5593,-3.4928,-3.3081,-3.3081,-3.3081,-3.3081,-3.3081,-3.3081,-3.3081,-3.3081,-3.3227,-3.3215,-3.3003,-3.2622,-3.1776,-3.0871,-3.0583,-3.0256,-2.9792,-2.9779,-2.9779,-2.9779,-2.9779,-2.9779,-3.0355,-3.1341,-3.2464,-3.289,-3.4259,-3.5198,-3.5489,-3.5489,-3.5489,-3.5489,-3.5489,-3.5489,-3.5489,-3.5489,-3.5489,-3.5489,-3.5489,-3.5489,-3.5489,-3.5489,-3.5489,-3.5489,-3.5489,-3.5489,-3.5489,-3.5489,-3.5489,-3.5489,-3.5489,-3.5489,-3.5489,-3.5489,-3.537,-3.5355,-3.5355,-3.5295,-3.516,-3.5145,-3.5325,-3.5429,-3.5459,-3.5554,-3.5782,-3.5668,-3.6006,-3.6631,-3.6692,-3.71,-3.779,-3.843,-3.858,-3.9049,-3.9401,-3.9679,-3.9766,-3.98,-3.9851,-4.002,-3.9834,-3.9411,-3.9225,-3.9089,-3.8802,-3.8379,-3.7753,-3.7297,-3.678,-3.6403,-3.6526,-3.6806,-3.7115,-3.7094,-3.715,-3.7097,-3.6964,-3.7041,-3.721,-3.7285,-3.7414,-3.7414,-3.756,-3.7323,-3.721,-3.721,-3.7135,-3.712,-3.697,-3.6649,-3.6249,-3.5916,-3.5477,-3.5108,-3.4134,-3.3081,-3.3081,-3.3081,-3.3081,-3.3081,-3.3081,-3.3081,-3.3081,-3.3081,-3.2855,-3.2478,-3.1637,-3.1009,-3.062,-3.0218,-3.0018,-2.9804,-2.9779,-2.9779,-2.9779,-2.9779,-2.9792,-3.0419,-3.1476,-3.2593,-3.3031,-3.4476,-3.5489,-3.5489,-3.5489,-3.5489,-3.5489,-3.5489,-3.5489,-3.5489,-3.5489,-3.5489,-3.5489,-3.5489,-3.5489,-3.5489,-3.5489,-3.5489,-3.5489,-3.5489,-3.5489,-3.5489,-3.5489,-3.5489,-3.5489,-3.5489,-3.5489,-3.5489,-3.5489,-3.5489,-3.5489,-3.5489,-3.5489,-3.5489,-3.5489,-3.5489,-3.5489,-3.5489,-3.5489,-3.5489,-3.5489,-3.5619,-3.5831,-3.5991,-3.6352,-3.6964,-3.7306,-3.7584,-3.8189,-3.8674,-3.9159,-3.9326,-3.9312,-3.9478,-3.9546,-3.9039,-3.8497,-3.8396,-3.8328,-3.799,-3.7601,-3.6941,-3.6349,-3.6,-3.5783,-3.5941,-3.6071,-3.6374,-3.6399,-3.6457,-3.6399,-3.6357,-3.6563,-3.6724,-3.6803,-3.6921,-3.719,-3.7248,-3.6999,-3.6684,-3.6563,-3.644,-3.6274,-3.6207,-3.6207,-3.5968,-3.5606,-3.5169,-3.4624,-3.3558,-3.3081,-3.3081,-3.3081,-3.3081,-3.3081,-3.3081,-3.3081,-3.3043,-3.288,-3.239,-3.17,-3.0922,-3.0507,-3.0294,-3.0018,-2.9804,-2.9792,-2.9779,-2.9779,-2.9779,-2.9792,-2.9934,-3.0709,-3.1696,-3.282,-3.3325,-3.4476,-3.5489,-3.5489,-3.5489,-3.5489,-3.5489,-3.5489,-3.5489,-3.5489,-3.5489,-3.5489,-3.5489,-3.5489,-3.5489,-3.5489,-3.5489,-3.5489,-3.5489,-3.5489,-3.5489,-3.5489,-3.5489,-3.5489,-3.5489,-3.5489,-3.5489,-3.5489,-3.5489,-3.5489,-3.5489,-3.5489,-3.5489,-3.5489,-3.5489,-3.5489,-3.5489,-3.5489,-3.5489,-3.5489,-3.5489,-3.5554,-3.5554,-3.5554,-3.5718,-3.6322,-3.6615,-3.6908,-3.7511,-3.8068,-3.8487,-3.8589,-3.8604,-3.8854,-3.9005,-3.8447,-3.8007,-3.7686,-3.7618,-3.7263,-3.6924,-3.6502,-3.6062,-3.5825,-3.5667,-3.5667,-3.5756,-3.5783,-3.5739,-3.5667,-3.5854,-3.6054,-3.6054,-3.6207,-3.6291,-3.644,-3.6764,-3.6764,-3.6357,-3.6097,-3.5941,-3.5898,-3.5898,-3.5968,-3.6054,-3.5615,-3.5135,-3.4346,-3.3761,-3.3051,-3.3081,-3.3081,-3.3081,-3.3068,-3.3018,-3.3056,-3.3043,-3.2893,-3.239,-3.1662,-3.0859,-3.0583,-3.0294,-2.9955,-2.9817,-2.9792,-2.9779,-2.9779,-2.9779,-2.9779,-2.9779,-3.0279,-3.1132,-3.2105,-3.3031,-3.4041,-3.492,-3.5489,-3.5489,-3.5489,-3.5489,-3.5489,-3.5489,-3.5489,-3.5489,-3.5489,-3.5489,-3.5489,-3.5489,-3.5489,-3.5489,-3.5489,-3.5489,-3.5489,-3.5489,-3.5489,-3.5489,-3.5489,-3.5489,-3.5489,-3.5489,-3.5489,-3.5489,-3.5489,-3.5489,-3.5489,-3.5489,-3.5489,-3.5489,-3.5489,-3.5489,-3.5489,-3.5489,-3.5489,-3.5489,-3.5489,-3.5489,-3.5489,-3.5489,-3.5474,-3.5816,-3.6134,-3.644,-3.6642,-3.7171,-3.7669,-3.7702,-3.761,-3.7773,-3.8041,-3.799,-3.7753,-3.728,-3.6891,-3.6552,-3.6231,-3.5943,-3.5757,-3.5656,-3.5639,-3.5639,-3.5639,-3.5639,-3.5639,-3.5639,-3.5639,-3.5667,-3.5667,-3.5739,-3.5898,-3.5941,-3.6011,-3.5941,-3.5694,-3.5694,-3.5739,-3.5711,-3.5622,-3.5637,-3.5581,-3.5086,-3.4498,-3.366,-3.2983,-3.2425,-3.3081,-3.3081,-3.3081,-3.2855,-3.2541,-3.2491,-3.2503,-3.234,-3.1587,-3.0947,-3.0595,-3.0269,-3.0018,-2.9829,-2.9779,-2.9779,-2.9779,-2.9779,-2.9779,-2.9779,-2.9779,-3.0419,-3.1267,-3.2177,-3.3087,-3.4041,-3.4986,-3.5489,-3.5489,-3.5489,-3.5489,-3.5489,-3.5489,-3.5489,-3.5489,-3.5489,-3.5489,-3.5489,-3.5489,-3.5489,-3.5489,-3.5489,-3.5489,-3.5489,-3.5489,-3.5489,-3.5489,-3.5489,-3.5489,-3.5489,-3.5489,-3.5489,-3.5489,-3.5489,-3.5489,-3.5489,-3.5489,-3.5489,-3.5489,-3.5489,-3.5489,-3.5474,-3.5489,-3.5489,-3.5489,-3.5489,-3.5489,-3.5459,-3.54,-3.5265,-3.5112,-3.5522,-3.5753,-3.543,-3.5776,-3.6535,-3.6704,-3.6458,-3.6434,-3.6789,-3.6907,-3.6671,-3.6299,-3.6366,-3.6113,-3.5977,-3.5774,-3.5707,-3.5639,-3.5639,-3.5639,-3.5639,-3.5639,-3.5639,-3.5639,-3.5639,-3.5639,-3.5622,-3.5622,-3.5711,-3.5667,-3.5639,-3.5622,-3.5667,-3.5622,-3.5622,-3.5504,-3.5368,-3.5233,-3.4979,-3.4438,-3.3998,-3.3423,-3.2763,-3.2171,-3.2503,-3.2491,-3.2491,-3.229,-3.1989,-3.2127,-3.2026,-3.1599,-3.0922,-3.0532,-3.0281,-2.9942,-2.9792,-2.9792,-2.9779,-2.9779,-2.9779,-2.9779,-2.9779,-2.9779,-2.9779,-3.0633,-3.1609,-3.2307,-3.3394,-3.4341,-3.5052,-3.5489,-3.5489,-3.5489,-3.5489,-3.5489,-3.5489,-3.5489,-3.5489,-3.5489,-3.5489,-3.5489,-3.5489,-3.5489,-3.5489,-3.5489,-3.5489,-3.5489,-3.5489,-3.5489,-3.5489,-3.5489,-3.5489,-3.5489,-3.5489,-3.5489,-3.5489,-3.5489,-3.5489,-3.5489,-3.5489,-3.5489,-3.5489,-3.5489,-3.54,-3.51,-3.534,-3.5489,-3.5489,-3.5489,-3.5295,-3.522,-3.5175,-3.4805,-3.4445,-3.488,-3.5003,-3.471,-3.523,-3.5934,-3.6057,-3.5852,-3.5994,-3.6265,-3.618,-3.5842,-3.5639,-3.569,-3.574,-3.569,-3.5639,-3.5639,-3.5639,-3.5639,-3.5639,-3.5639,-3.5639,-3.5639,-3.5639,-3.5639,-3.5639,-3.5639,-3.5639,-3.5639,-3.5639,-3.5639,-3.5639,-3.5639,-3.5639,-3.5554,-3.5267,-3.5064,-3.4827,-3.4353,-3.3744,-3.3355,-3.3085,-3.2493,-3.1816,-3.1399,-3.1386,-3.1386,-3.1411,-3.1461,-3.1788,-3.1461,-3.0633,-3.0583,-3.0281,-2.9882,-2.9894,-2.9934,-2.9869,-2.9856,-2.9779,-2.9779,-2.9779,-2.9779,-2.9779,-2.9779,-3.0983,-3.196,-3.2593,-3.3685,-3.4839,-3.5489,-3.5489,-3.5489,-3.5489,-3.5489,-3.5489,-3.5489,-3.5489,-3.5489,-3.5489,-3.5489,-3.5489,-3.5489,-3.5489,-3.5489,-3.5489,-3.5489,-3.5489,-3.5489,-3.5489,-3.5489,-3.5489,-3.5489,-3.5489,-3.5489,-3.5489,-3.5489,-3.5489,-3.5489,-3.5489,-3.5489,-3.5489,-3.5489,-3.5489,-3.5145,-3.4861,-3.5085,-3.534,-3.5265,-3.5055,-3.4816,-3.4592,-3.4442,-3.4055,-3.3802,-3.4224,-3.4665,-3.4854,-3.5221,-3.5563,-3.5685,-3.5774,-3.6011,-3.6079,-3.5893,-3.569,-3.5639,-3.5639,-3.5639,-3.5639,-3.5639,-3.5639,-3.5639,-3.5639,-3.5639,-3.5639,-3.5639,-3.5639,-3.5639,-3.5639,-3.5639,-3.5639,-3.5639,-3.5639,-3.5639,-3.5639,-3.5639,-3.5639,-3.5639,-3.552,-3.5318,-3.4861,-3.432,-3.3778,-3.3254,-3.2882,-3.2645,-3.1985,-3.1376,-3.1386,-3.1386,-3.1386,-3.1173,-3.0821,-3.0583,-3.0281,-3.0043,-3.003,-3.0253,-3.0758,-3.0062,-3.0139,-3.0696,-3.0126,-2.9856,-2.9779,-2.9779,-2.9779,-2.9779,-2.9779,-3.1057,-3.196,-3.2735,-3.3822,-3.4839,-3.5489,-3.5489,-3.5489,-3.5489,-3.5489,-3.5489,-3.5489,-3.5489,-3.5489,-3.5489,-3.5489,-3.5489,-3.5489,-3.5489,-3.5489,-3.5489,-3.5489,-3.5489,-3.5489,-3.5489,-3.5489,-3.5489,-3.5489,-3.5489,-3.5489,-3.5489,-3.5489,-3.5489,-3.5489,-3.5489,-3.5489,-3.5489,-3.5489,-3.5489,-3.516,-3.4562,-3.4622,-3.4367,-3.4262,-3.4113,-3.4038,-3.3903,-3.3923,-3.3668,-3.3676,-3.4007,-3.439,-3.4794,-3.5186,-3.5492,-3.5621,-3.569,-3.591,-3.5876,-3.569,-3.569,-3.5639,-3.5639,-3.5639,-3.5639,-3.5639,-3.5639,-3.5639,-3.5639,-3.5639,-3.5639,-3.5639,-3.5639,-3.5639,-3.5639,-3.5639,-3.5639,-3.5639,-3.5639,-3.5639,-3.5639,-3.5639,-3.5639,-3.5639,-3.5571,-3.547,-3.4844,-3.4015,-3.3457,-3.2933,-3.256,-3.2178,-3.1579,-3.119,-3.0758,-3.0758,-3.0758,-3.057,-3.0269,-2.993,-2.9998,-3.0279,-3.0343,-3.0558,-3.0633,-3.0482,-3.0482,-3.0419,-2.9998,-2.9779,-2.9779,-2.9779,-2.9779,-2.9779,-2.9779,-3.1057,-3.2046,-3.2735,-3.3822,-3.4839,-3.5489,-3.5489,-3.5489,-3.5489,-3.5489,-3.5489,-3.5489,-3.5489,-3.5489,-3.5489,-3.5489,-3.5489,-3.5489,-3.5489,-3.5489,-3.5489,-3.5489,-3.5489,-3.5489,-3.5489,-3.5489,-3.5489,-3.5489,-3.5489,-3.5489,-3.5489,-3.5489,-3.5489,-3.5489,-3.5489,-3.5489,-3.5489,-3.5459,-3.5175,-3.4741,-3.4233,-3.3858,-3.332,-3.3275,-3.323,-3.3245,-3.32,-3.3336,-3.3493,-3.3686,-3.3857,-3.4269,-3.4627,-3.5081,-3.5549,-3.5614,-3.5611,-3.5656,-3.5656,-3.5639,-3.5639,-3.5639,-3.5639,-3.5639,-3.5639,-3.5639,-3.5639,-3.5639,-3.5639,-3.5639,-3.5639,-3.5639,-3.5639,-3.5639,-3.5639,-3.5639,-3.5639,-3.5639,-3.5639,-3.5639,-3.5639,-3.5639,-3.5639,-3.5639,-3.5402,-3.503,-3.4421,-3.3677,-3.3068,-3.2459,-3.2019,-3.1715,-3.1495,-3.1224,-2.9804,-2.9829,-2.9779,-2.9854,-2.9792,-2.9792,-3.0216,-3.1031,-3.1031,-3.0833,-3.0432,-3.0771,-3.0545,-3.0279,-2.9934,-2.9779,-2.9779,-2.9779,-2.9779,-2.9779,-2.9779,-3.0846,-3.2105,-3.2735,-3.3754,-3.492,-3.5489,-3.5489,-3.5489,-3.5489,-3.5489,-3.5489,-3.5489,-3.5489,-3.5489,-3.5489,-3.5489,-3.5489,-3.5489,-3.5489,-3.5489,-3.5489,-3.5489,-3.5489,-3.5489,-3.5489,-3.5489,-3.5489,-3.5489,-3.5489,-3.5489,-3.5489,-3.5489,-3.5325,-3.534,-3.522,-3.5115,-3.5026,-3.4906,-3.4637,-3.4083,-3.3469,-3.2856,-3.2452,-3.2437,-3.2542,-3.2587,-3.2851,-3.3031,-3.3441,-3.3704,-3.4118,-3.453,-3.4897,-3.5295,-3.558,-3.5605,-3.5639,-3.5639,-3.5639,-3.5639,-3.5639,-3.5639,-3.5639,-3.5639,-3.5639,-3.5639,-3.5639,-3.5639,-3.5639,-3.5639,-3.5639,-3.5639,-3.5639,-3.5639,-3.5639,-3.5639,-3.5639,-3.5639,-3.5639,-3.5639,-3.5639,-3.5639,-3.5639,-3.5588,-3.4861,-3.4336,-3.388,-3.3305,-3.2357,-3.1782,-3.1393,-3.1207,-3.1224,-3.1224,-2.9779,-2.9779,-2.9779,-2.9779,-2.9779,-2.9779,-2.9921,-3.0203,-3.0908,-3.1462,-3.1623,-3.0771,-3.0406,-3.0633,-2.9998,-2.9779,-2.9779,-2.9779,-2.9779,-2.9779,-2.9779,-3.0846,-3.2249,-3.2664,-3.3754,-3.492,-3.5489,-3.5489,-3.5489,-3.5489,-3.5489,-3.5489,-3.5489,-3.5489,-3.5489,-3.5489,-3.5489,-3.5489,-3.5489,-3.5489,-3.5489,-3.5489,-3.5489,-3.5489,-3.5489,-3.5489,-3.5489,-3.5489,-3.5489,-3.5489,-3.5489,-3.5489,-3.5489,-3.5011,-3.4771,-3.4651,-3.4367,-3.4247,-3.4098,-3.3903,-3.3455,-3.3021,-3.2527,-3.2108,-3.1913,-3.1973,-3.2118,-3.244,-3.2803,-3.3309,-3.3799,-3.4317,-3.48,-3.5161,-3.5424,-3.547,-3.5577,-3.5577,-3.5577,-3.5639,-3.5639,-3.5639,-3.5639,-3.5639,-3.5639,-3.5639,-3.5639,-3.5639,-3.5639,-3.5639,-3.5639,-3.5639,-3.5639,-3.5639,-3.5639,-3.5639,-3.5639,-3.5639,-3.5639,-3.5639,-3.5639,-3.5639,-3.5639,-3.5639,-3.5453,-3.481,-3.4235,-3.3778,-3.3068,-3.1985,-3.1478,-3.1241,-3.119,-3.1207,-3.1207,-2.9779,-2.9779,-2.9779,-3.0075,-3.0343,-3.0419,-3.0633,-3.1044,-3.118,-3.1449,-3.1829,-3.0983,-3.0558,-3.062,-2.9998,-2.9779,-2.9779,-2.9779,-2.9779,-2.9779,-2.9998,-3.1044,-3.1888,-3.2664,-3.3905,-3.5067,-3.5424,-3.5489,-3.5489,-3.5489,-3.5489,-3.5489,-3.5489,-3.5489,-3.5489,-3.5489,-3.5489,-3.5489,-3.5489,-3.5489,-3.5489,-3.5489,-3.5489,-3.5489,-3.5489,-3.5489,-3.5489,-3.5489,-3.5489,-3.5489,-3.5489,-3.5205,-3.5055,-3.4696,-3.4352,-3.4068,-3.3769,-3.3499,-3.3395,-3.317,-3.2901,-3.2572,-3.2153,-3.1676,-3.1616,-3.1734,-3.1734,-3.2016,-3.2545,-3.3018,-3.3665,-3.4252,-3.4847,-3.5316,-3.5161,-3.5005,-3.5207,-3.5362,-3.547,-3.5639,-3.5639,-3.5639,-3.5639,-3.5639,-3.5639,-3.5639,-3.5639,-3.5639,-3.5639,-3.5639,-3.5639,-3.5639,-3.5639,-3.5639,-3.5639,-3.5639,-3.5639,-3.5639,-3.5639,-3.5639,-3.5639,-3.5639,-3.5639,-3.5639,-3.5436,-3.4912,-3.437,-3.3744,-3.2814,-3.1732,-3.1393,-3.119,-3.119,-3.119,-3.119,-2.9779,-2.9779,-2.9779,-3.0355,-3.1119,-3.1031,-3.1476,-3.2033,-3.1402,-3.097,-3.1044,-3.097,-3.0482,-3.0075,-2.9792,-2.9792,-2.9779,-2.9779,-2.9779,-2.9779,-2.9779,-3.0983,-3.196,-3.2735,-3.3973,-3.492,-3.5424,-3.5489,-3.5489,-3.5489,-3.5489,-3.5489,-3.5489,-3.5489,-3.5489,-3.5489,-3.5489,-3.5489,-3.5489,-3.5489,-3.5489,-3.5489,-3.5489,-3.5489,-3.5489,-3.5489,-3.5489,-3.5489,-3.5489,-3.54,-3.531,-3.4861,-3.4427,-3.4068,-3.3769,-3.3425,-3.3095,-3.3006,-3.2976,-3.2602,-3.2452,-3.2213,-3.1721,-3.1511,-3.1482,-3.1524,-3.1524,-3.1739,-3.2216,-3.2949,-3.3598,-3.4202,-3.4847,-3.5098,-3.48,-3.4479,-3.4736,-3.5052,-3.5253,-3.547,-3.5532,-3.5532,-3.5639,-3.5639,-3.5639,-3.5639,-3.5639,-3.5639,-3.5639,-3.5639,-3.5639,-3.5639,-3.5639,-3.5639,-3.5639,-3.5639,-3.5639,-3.5639,-3.5639,-3.5639,-3.5639,-3.5639,-3.5639,-3.5639,-3.5351,-3.4945,-3.4252,-3.3541,-3.2544,-3.1562,-3.1326,-3.119,-3.119,-3.119,-3.119,-2.9779,-2.9779,-2.9779,-3.0343,-3.1044,-3.0482,-3.0633,-3.1254,-3.057,-3.0075,-3.0139,-3.0075,-2.9934,-2.9779,-2.9779,-2.9779,-2.9779,-2.9779,-2.9779,-2.9779,-2.9779,-3.0996,-3.2119,-3.2735,-3.3837,-3.4787,-3.5424,-3.5439,-3.5133,-3.5279,-3.5424,-3.5279,-3.5359,-3.5359,-3.5439,-3.5424,-3.5359,-3.5424,-3.5489,-3.5489,-3.5489,-3.5489,-3.5489,-3.5489,-3.5489,-3.5489,-3.5489,-3.5489,-3.5489,-3.5355,-3.4981,-3.4397,-3.3814,-3.3335,-3.3006,-3.2736,-3.2407,-3.2228,-3.2093,-3.2003,-3.1898,-3.1854,-3.1497,-3.1482,-3.1467,-3.1467,-3.1524,-3.1582,-3.216,-3.3039,-3.3684,-3.4037,-3.4544,-3.4447,-3.4186,-3.3937,-3.3937,-3.4382,-3.4736,-3.5005,-3.5253,-3.5424,-3.5639,-3.5639,-3.5639,-3.5639,-3.5639,-3.5639,-3.5639,-3.5639,-3.5639,-3.5639,-3.5639,-3.5639,-3.5639,-3.5639,-3.5639,-3.5639,-3.5639,-3.5639,-3.5639,-3.5639,-3.5639,-3.5639,-3.5402,-3.503,-3.4286,-3.3389,-3.2527,-3.1681,-3.136,-3.119,-3.119,-3.119,-3.119]}]]